[[{"header":{"parameterUnit":"m.s-1","parameterCategory":1,"la1":30.6,"la2":29.2853,"lo1":-89.7004,"lo2":-87.6739,"dy":0.0162,"dx":0.0183,"nx":112,"ny":82,"refTime":"2024-06-20T12:00:00:Z","depth":0,"parameterNumber":2,"parameterNumberName":"U-component_of_WINDS"},"data":[0.0,0.0,0.0,0.0,0.0,0.0,0.0,0.0,0.0,0.0,0.0,0.0,0.0,0.0,0.0,0.0,0.0,0.0,0.0,0.0,0.0,0.0,0.0,0.0,0.0,0.0,0.0,0.0,0.0,0.0,0.0,0.0,0.0,0.0,0.0,0.0,0.0,0.0,0.0,0.0,0.0,0.0,0.0,0.0,0.0,0.0,0.0,0.0,0.0,0.0,0.0,0.0,0.0,0.0,0.0,0.0,0.0,0.0,0.0,0.0,0.0,0.0,0.0,0.0,0.0,0.0,0.0,0.0,0.0,0.0,0.0,0.0,0.0,0.0,0.0,0.0,0.0,0.0,0.0,0.0,0.0,0.0,0.0,0.0,0.0,0.0,0.0,0.0,0.0,0.0,0.0,-3.6821,-4.0402,-4.2602,-4.2602,-4.1873,-3.9343,-3.4408,0.0,0.0,0.0,0.0,0.0,0.0,0.0,0.0,0.0,0.0,0.0,0.0,0.0,0.0,0.0,0.0,0.0,0.0,0.0,0.0,0.0,0.0,0.0,0.0,0.0,0.0,0.0,0.0,0.0,0.0,0.0,0.0,0.0,0.0,0.0,0.0,0.0,0.0,0.0,0.0,0.0,0.0,0.0,0.0,0.0,0.0,0.0,0.0,0.0,0.0,0.0,0.0,0.0,0.0,0.0,0.0,0.0,0.0,0.0,0.0,0.0,0.0,0.0,0.0,0.0,0.0,0.0,0.0,0.0,0.0,0.0,0.0,0.0,0.0,0.0,0.0,0.0,0.0,0.0,0.0,0.0,0.0,0.0,0.0,0.0,0.0,0.0,0.0,0.0,0.0,0.0,0.0,0.0,0.0,0.0,0.0,0.0,0.0,0.0,0.0,0.0,0.0,0.0,0.0,-3.4376,-4.0186,-4.1889,-4.2602,-4.2602,-4.1419,-3.878,-3.4376,0.0,0.0,0.0,0.0,0.0,0.0,0.0,0.0,0.0,0.0,0.0,0.0,0.0,0.0,0.0,0.0,0.0,0.0,0.0,0.0,0.0,0.0,0.0,0.0,0.0,0.0,0.0,0.0,0.0,0.0,0.0,0.0,0.0,0.0,0.0,0.0,0.0,0.0,0.0,0.0,0.0,0.0,0.0,0.0,0.0,0.0,0.0,0.0,0.0,0.0,0.0,0.0,0.0,0.0,0.0,0.0,0.0,0.0,0.0,0.0,0.0,0.0,0.0,0.0,0.0,0.0,0.0,0.0,0.0,0.0,0.0,0.0,0.0,0.0,0.0,0.0,0.0,0.0,0.0,0.0,0.0,0.0,0.0,0.0,0.0,0.0,0.0,0.0,0.0,0.0,0.0,0.0,0.0,0.0,0.0,0.0,0.0,0.0,0.0,0.0,0.0,0.0,0.0,-3.3744,-3.6351,-4.1581,-4.2408,-4.2602,-4.2602,-4.1322,-3.8667,-3.4376,-3.206,0.0,0.0,0.0,0.0,0.0,0.0,0.0,0.0,0.0,0.0,0.0,0.0,0.0,0.0,0.0,0.0,0.0,0.0,0.0,0.0,0.0,0.0,0.0,0.0,0.0,0.0,0.0,0.0,0.0,0.0,0.0,0.0,0.0,0.0,0.0,0.0,0.0,0.0,0.0,0.0,0.0,0.0,0.0,0.0,0.0,0.0,0.0,0.0,0.0,0.0,0.0,0.0,0.0,0.0,0.0,0.0,0.0,0.0,0.0,0.0,0.0,0.0,0.0,0.0,0.0,0.0,0.0,0.0,0.0,0.0,0.0,0.0,0.0,0.0,0.0,0.0,0.0,0.0,0.0,0.0,0.0,0.0,0.0,0.0,0.0,0.0,0.0,0.0,0.0,0.0,0.0,0.0,0.0,0.0,0.0,0.0,0.0,0.0,0.0,0.0,0.0,0.0,-3.6983,-3.8667,-4.2214,-4.2602,-4.2602,-4.2602,-4.0853,-3.8104,-3.4277,-3.0914,0.0,0.0,0.0,0.0,0.0,0.0,0.0,0.0,0.0,0.0,0.0,0.0,0.0,0.0,0.0,0.0,0.0,0.0,0.0,0.0,0.0,0.0,0.0,0.0,0.0,0.0,0.0,0.0,0.0,0.0,0.0,0.0,0.0,0.0,0.0,0.0,0.0,0.0,0.0,0.0,0.0,0.0,0.0,0.0,0.0,0.0,0.0,0.0,0.0,0.0,0.0,0.0,0.0,0.0,0.0,0.0,0.0,0.0,0.0,0.0,0.0,0.0,0.0,0.0,0.0,0.0,0.0,0.0,0.0,0.0,0.0,0.0,0.0,0.0,0.0,0.0,0.0,0.0,0.0,0.0,0.0,0.0,0.0,0.0,0.0,0.0,0.0,0.0,0.0,0.0,0.0,0.0,0.0,0.0,0.0,0.0,0.0,0.0,0.0,0.0,0.0,0.0,-3.776,-4.082,-4.2424,-4.2602,-4.2602,-4.2602,-3.948,-3.6481,-3.3976,-2.9315,0.0,0.0,0.0,0.0,0.0,0.0,0.0,0.0,0.0,0.0,0.0,0.0,0.0,0.0,0.0,0.0,0.0,0.0,0.0,0.0,0.0,0.0,0.0,0.0,0.0,0.0,0.0,0.0,0.0,0.0,0.0,0.0,0.0,0.0,0.0,0.0,0.0,0.0,0.0,0.0,0.0,0.0,0.0,0.0,0.0,0.0,0.0,0.0,0.0,0.0,0.0,0.0,0.0,0.0,0.0,0.0,0.0,0.0,0.0,0.0,0.0,0.0,0.0,0.0,0.0,0.0,0.0,0.0,0.0,0.0,0.0,0.0,0.0,0.0,0.0,0.0,0.0,0.0,0.0,0.0,0.0,0.0,0.0,0.0,0.0,0.0,0.0,0.0,0.0,0.0,0.0,0.0,0.0,0.0,0.0,0.0,0.0,0.0,0.0,0.0,0.0,0.0,-3.6691,-3.9573,0.0,-4.2602,-4.2602,-4.2602,-4.0189,-3.7273,-3.4024,0.0,0.0,0.0,0.0,0.0,0.0,0.0,0.0,0.0,0.0,0.0,0.0,0.0,0.0,0.0,0.0,0.0,0.0,0.0,0.0,0.0,0.0,0.0,0.0,0.0,0.0,0.0,0.0,0.0,0.0,0.0,0.0,0.0,0.0,0.0,0.0,0.0,0.0,0.0,0.0,0.0,0.0,0.0,0.0,0.0,0.0,0.0,0.0,0.0,0.0,0.0,0.0,0.0,0.0,0.0,0.0,0.0,0.0,0.0,0.0,0.0,0.0,0.0,0.0,0.0,0.0,0.0,0.0,0.0,0.0,0.0,0.0,0.0,0.0,0.0,0.0,0.0,0.0,0.0,0.0,0.0,0.0,0.0,0.0,0.0,0.0,0.0,0.0,0.0,0.0,0.0,0.0,0.0,0.0,0.0,0.0,0.0,0.0,0.0,0.0,0.0,0.0,-3.355,-3.6578,-3.9428,0.0,-4.2602,-4.2505,-4.231,-3.9946,-3.6922,-3.3281,0.0,0.0,0.0,0.0,0.0,0.0,0.0,0.0,0.0,0.0,0.0,0.0,0.0,0.0,0.0,0.0,0.0,0.0,0.0,0.0,0.0,0.0,0.0,0.0,0.0,0.0,0.0,0.0,0.0,0.0,0.0,0.0,0.0,0.0,0.0,0.0,0.0,0.0,0.0,0.0,0.0,0.0,0.0,0.0,0.0,0.0,0.0,0.0,0.0,0.0,0.0,0.0,0.0,0.0,0.0,0.0,0.0,0.0,0.0,0.0,0.0,0.0,0.0,0.0,0.0,0.0,0.0,0.0,0.0,0.0,0.0,0.0,0.0,0.0,0.0,0.0,0.0,0.0,0.0,0.0,0.0,0.0,0.0,0.0,0.0,0.0,0.0,0.0,0.0,0.0,0.0,0.0,0.0,0.0,0.0,0.0,0.0,0.0,0.0,0.0,0.0,0.0,-3.3744,-3.7841,-4.1047,-4.2441,-4.2602,-4.2342,-4.1661,-3.8359,-3.4933,0.0,0.0,0.0,0.0,0.0,0.0,0.0,0.0,0.0,0.0,0.0,0.0,0.0,0.0,0.0,0.0,0.0,0.0,0.0,0.0,0.0,0.0,0.0,0.0,0.0,0.0,0.0,0.0,0.0,0.0,0.0,0.0,0.0,0.0,0.0,0.0,0.0,0.0,0.0,0.0,0.0,0.0,0.0,0.0,0.0,0.0,0.0,0.0,0.0,0.0,0.0,0.0,0.0,0.0,0.0,0.0,0.0,0.0,0.0,0.0,0.0,0.0,0.0,0.0,0.0,0.0,0.0,0.0,0.0,0.0,0.0,0.0,0.0,0.0,0.0,0.0,0.0,0.0,0.0,0.0,0.0,0.0,0.0,0.0,0.0,0.0,0.0,0.0,0.0,0.0,0.0,0.0,0.0,0.0,0.0,0.0,0.0,0.0,0.0,0.0,0.0,0.0,0.0,-3.3663,-3.7841,-4.1047,-4.2441,-4.2602,-4.2342,-4.1661,-3.925,-3.6018,-3.1862,0.0,0.0,0.0,0.0,0.0,0.0,0.0,0.0,0.0,0.0,0.0,0.0,0.0,0.0,0.0,0.0,0.0,0.0,0.0,0.0,0.0,0.0,0.0,0.0,0.0,0.0,0.0,0.0,0.0,0.0,0.0,0.0,0.0,0.0,0.0,0.0,0.0,0.0,0.0,0.0,0.0,0.0,0.0,0.0,0.0,0.0,0.0,0.0,0.0,0.0,0.0,0.0,0.0,0.0,0.0,0.0,0.0,0.0,0.0,0.0,0.0,0.0,0.0,0.0,0.0,0.0,0.0,0.0,0.0,0.0,0.0,0.0,0.0,0.0,0.0,0.0,0.0,0.0,0.0,0.0,0.0,0.0,0.0,0.0,0.0,0.0,0.0,0.0,0.0,0.0,0.0,0.0,0.0,0.0,0.0,0.0,0.0,0.0,0.0,0.0,0.0,0.0,-3.3144,-3.7607,-4.0934,-4.2083,-4.2213,-4.1921,-4.1223,-3.946,-3.6368,-3.159,0.0,0.0,0.0,0.0,0.0,0.0,0.0,0.0,0.0,0.0,0.0,0.0,0.0,0.0,0.0,0.0,0.0,0.0,0.0,0.0,0.0,0.0,0.0,0.0,0.0,0.0,0.0,0.0,0.0,0.0,0.0,0.0,0.0,0.0,0.0,0.0,0.0,0.0,0.0,0.0,0.0,0.0,0.0,0.0,0.0,0.0,0.0,0.0,0.0,0.0,0.0,0.0,0.0,0.0,0.0,0.0,0.0,0.0,0.0,0.0,0.0,0.0,0.0,0.0,0.0,0.0,0.0,0.0,0.0,0.0,0.0,0.0,0.0,0.0,0.0,0.0,0.0,0.0,0.0,0.0,0.0,0.0,0.0,0.0,0.0,0.0,0.0,0.0,0.0,0.0,0.0,0.0,0.0,0.0,0.0,0.0,0.0,0.0,0.0,0.0,0.0,0.0,-3.2401,-3.7229,-4.0704,-4.1417,-4.1498,-4.1207,-4.0464,-3.9169,-3.6265,-3.1235,0.0,0.0,0.0,0.0,0.0,0.0,0.0,0.0,0.0,0.0,0.0,0.0,0.0,0.0,0.0,0.0,0.0,0.0,0.0,0.0,0.0,0.0,0.0,0.0,0.0,0.0,0.0,0.0,0.0,0.0,0.0,0.0,0.0,0.0,0.0,0.0,0.0,0.0,0.0,0.0,0.0,0.0,0.0,0.0,0.0,0.0,0.0,0.0,0.0,0.0,0.0,0.0,0.0,0.0,0.0,0.0,0.0,0.0,0.0,0.0,-3.1131,0.0,0.0,0.0,0.0,0.0,0.0,0.0,0.0,0.0,0.0,0.0,0.0,0.0,0.0,0.0,0.0,0.0,0.0,0.0,0.0,0.0,0.0,0.0,0.0,0.0,0.0,0.0,0.0,0.0,0.0,0.0,0.0,0.0,0.0,0.0,0.0,0.0,0.0,0.0,0.0,0.0,-3.2644,-3.695,-3.9991,-4.0642,-4.0723,-4.0448,-3.9781,-3.891,-3.6756,-3.2822,0.0,0.0,0.0,0.0,0.0,0.0,0.0,0.0,0.0,0.0,0.0,0.0,0.0,0.0,0.0,0.0,0.0,0.0,0.0,0.0,0.0,0.0,0.0,0.0,0.0,0.0,0.0,0.0,0.0,0.0,0.0,0.0,0.0,0.0,0.0,0.0,0.0,0.0,0.0,0.0,0.0,0.0,0.0,0.0,0.0,0.0,0.0,0.0,0.0,0.0,0.0,0.0,0.0,0.0,0.0,0.0,0.0,0.0,0.0,0.0,0.0,-3.2567,0.0,0.0,0.0,0.0,0.0,0.0,0.0,0.0,0.0,0.0,0.0,0.0,0.0,0.0,0.0,0.0,0.0,0.0,0.0,0.0,0.0,0.0,0.0,0.0,0.0,0.0,0.0,0.0,0.0,0.0,0.0,0.0,0.0,0.0,0.0,0.0,0.0,0.0,0.0,0.0,-3.2119,-3.6556,-3.9635,-3.9962,-4.004,-3.9894,-3.9538,-3.8812,-3.7161,-3.4304,-3.1619,0.0,0.0,0.0,0.0,0.0,0.0,0.0,0.0,0.0,0.0,0.0,0.0,0.0,0.0,0.0,0.0,0.0,0.0,0.0,0.0,0.0,0.0,0.0,0.0,0.0,0.0,0.0,0.0,0.0,0.0,0.0,0.0,0.0,0.0,0.0,0.0,0.0,0.0,0.0,0.0,0.0,0.0,0.0,0.0,0.0,0.0,0.0,0.0,0.0,0.0,0.0,0.0,0.0,0.0,-3.8807,-4.0523,-3.9885,-4.1106,-4.3506,-3.9508,-3.77,-3.7314,0.0,0.0,0.0,0.0,0.0,0.0,0.0,0.0,0.0,0.0,0.0,0.0,0.0,0.0,0.0,0.0,0.0,0.0,0.0,0.0,0.0,0.0,0.0,0.0,0.0,-3.4343,-3.4003,0.0,0.0,0.0,0.0,0.0,0.0,0.0,0.0,0.0,0.0,0.0,0.0,-3.1863,-3.6335,-3.9327,-3.9327,-3.9327,-3.9327,-3.9327,-3.8748,-3.7582,-3.5697,-3.3564,-3.1146,0.0,0.0,0.0,0.0,0.0,0.0,0.0,0.0,0.0,0.0,0.0,0.0,0.0,0.0,0.0,0.0,0.0,0.0,0.0,0.0,0.0,0.0,0.0,0.0,0.0,0.0,0.0,0.0,0.0,0.0,0.0,0.0,-2.4822,-2.5736,0.0,0.0,0.0,0.0,0.0,0.0,0.0,0.0,0.0,0.0,0.0,0.0,0.0,0.0,-3.7615,-3.9543,-4.1188,-4.2443,-4.4356,-4.5682,-4.6381,-4.6278,-4.6507,-4.6928,-4.632,0.0,-4.0898,-3.9035,0.0,0.0,0.0,0.0,0.0,0.0,0.0,0.0,0.0,0.0,0.0,0.0,0.0,0.0,0.0,0.0,0.0,0.0,0.0,0.0,0.0,0.0,-3.742,-3.6886,-3.7307,-3.7533,0.0,-3.3331,-3.0457,-2.9394,0.0,0.0,0.0,0.0,0.0,0.0,0.0,0.0,-3.3525,-3.6551,-3.8537,-3.8537,-3.8537,-3.8537,-3.8537,-3.8456,-3.8003,-3.7096,-3.5606,-3.367,-3.1244,-2.7795,0.0,0.0,0.0,0.0,0.0,0.0,0.0,0.0,0.0,0.0,0.0,0.0,0.0,0.0,0.0,0.0,0.0,0.0,0.0,0.0,0.0,0.0,0.0,0.0,0.0,0.0,0.0,0.0,0.0,-2.4983,-2.818,-2.7641,-2.8849,-2.9042,0.0,0.0,0.0,0.0,0.0,0.0,0.0,0.0,0.0,-3.8377,-3.9239,-4.0365,-4.1839,-4.3197,-4.4391,-4.5394,-4.6363,-4.7541,-4.889,-4.8452,-4.8915,-5.005,-4.9545,-4.8356,-4.6492,-4.2876,-4.0245,-3.8259,0.0,0.0,0.0,0.0,0.0,-3.4651,-3.6238,0.0,0.0,0.0,0.0,0.0,0.0,0.0,0.0,0.0,0.0,0.0,0.0,0.0,0.0,-3.8424,-3.8472,-3.8424,-3.8521,-3.674,-3.4554,0.0,-3.1737,-3.0231,-2.6879,0.0,0.0,0.0,0.0,0.0,-3.4538,-3.6869,-3.8391,-3.8391,-3.8391,-3.8391,-3.8391,-3.8391,-3.8262,-3.7954,-3.695,-3.5564,-3.3742,-3.0921,-2.7929,0.0,0.0,0.0,0.0,0.0,0.0,0.0,0.0,0.0,0.0,0.0,0.0,0.0,0.0,0.0,0.0,0.0,0.0,0.0,0.0,0.0,0.0,0.0,0.0,0.0,0.0,0.0,0.0,-2.8228,-3.0994,-2.9539,-3.1801,-3.2427,0.0,0.0,0.0,0.0,0.0,0.0,-3.7301,-3.8278,-3.9785,-4.1972,-4.3081,-4.434,-4.5798,-4.6361,-4.7007,-4.7736,-4.7736,-4.8544,-5.0016,-4.9446,-5.0014,-5.1449,-5.0979,-5.0752,-5.0406,-4.6304,-4.3785,-4.225,-3.9576,-3.8031,-3.7431,-3.8249,-3.8112,-3.7845,-3.9826,-4.0156,-3.9441,-3.748,0.0,-3.5234,-3.2602,0.0,0.0,0.0,0.0,-3.5493,-3.6788,0.0,-3.8408,-3.9476,-3.9201,-3.8812,-3.9392,-3.891,-3.776,0.0,-3.5056,-3.3793,-3.0231,0.0,0.0,0.0,0.0,-3.47,-3.5606,-3.729,-3.8391,-3.8391,-3.8391,-3.8391,-3.8391,-3.8391,-3.8327,-3.8132,-3.7614,-3.6675,-3.526,-3.3193,-3.0528,-2.7286,0.0,0.0,0.0,0.0,0.0,0.0,0.0,0.0,0.0,0.0,0.0,0.0,0.0,0.0,0.0,0.0,0.0,0.0,0.0,0.0,0.0,0.0,0.0,0.0,0.0,0.0,0.0,0.0,0.0,-3.2144,-3.6031,0.0,0.0,0.0,0.0,-3.6041,-3.7253,-3.8881,-4.1028,-4.2489,-4.4277,-4.6493,-4.6643,-4.7388,-4.8862,-4.8928,-4.9309,-5.0038,-5.0038,-5.0088,-5.0188,-5.0155,-5.0126,-5.013,-5.0673,-5.0858,-5.0707,-4.9469,-4.8147,-4.6693,-4.4754,-4.3632,-4.2915,-4.1538,-4.1,-4.0898,-4.0609,-4.0464,-4.0529,-4.111,-3.9428,-3.715,-3.6972,-3.5542,0.0,0.0,-3.7096,-3.8359,-3.912,-3.9862,-4.0351,-4.0415,-3.993,-3.9457,-3.9505,-3.891,-3.8359,0.0,-3.763,-3.6659,-3.5098,0.0,-3.3858,-3.3793,-3.4554,-3.5639,-3.7004,-3.7906,-3.8391,-3.8391,-3.8391,-3.8391,-3.8391,-3.8391,-3.81,-3.7392,-3.7311,-3.6675,-3.526,-3.3793,-3.1909,-2.9486,-2.5622,0.0,0.0,0.0,0.0,0.0,0.0,0.0,0.0,0.0,0.0,0.0,0.0,0.0,0.0,0.0,0.0,0.0,0.0,0.0,0.0,0.0,0.0,0.0,0.0,0.0,0.0,0.0,0.0,-3.5677,-3.8692,0.0,0.0,-3.8267,-3.9387,-3.9906,-4.1472,-4.3131,-4.4854,-4.5897,-4.7023,-4.8282,-4.8779,-4.9293,-4.9806,-4.9823,-5.0187,-5.0899,-5.0899,-5.1148,-5.1612,-5.1612,-5.1829,-5.2197,-5.2309,-5.231,-5.2172,-5.1781,-5.0692,-4.9146,-4.7447,-4.6291,-4.5419,-4.4316,-4.3518,-4.2928,-4.2459,-4.231,-4.2217,-4.1752,-4.0561,-3.9363,-3.9363,-3.8829,-3.8327,-3.8845,-3.9363,-3.98,-4.0075,-4.0302,-4.0496,-4.0496,-4.0302,-4.0124,-4.0124,-3.959,-3.9104,-3.9104,-3.8505,-3.742,-3.5535,-3.6125,-3.64,-3.5033,-3.6206,-3.7436,-3.7938,-3.8246,-3.8391,-3.8391,-3.8391,-3.8391,-3.8391,-3.797,-3.757,-3.7311,-3.6448,-3.5509,-3.4522,-3.3582,-3.1826,-2.9124,-2.6978,-2.439,0.0,0.0,0.0,0.0,0.0,0.0,0.0,0.0,0.0,0.0,0.0,0.0,0.0,0.0,0.0,0.0,0.0,0.0,0.0,0.0,0.0,0.0,0.0,0.0,0.0,0.0,-3.9329,-3.8726,-4.1547,-4.2636,-4.0354,-4.2081,-4.3615,-4.4224,-4.5404,-4.6669,-4.7922,-4.8463,-4.9077,-4.9823,-5.032,-5.0701,-5.0949,-5.0949,-5.1181,-5.168,-5.168,-5.1945,-5.2409,-5.2409,-5.263,-5.3026,-5.2858,-5.2726,-5.2611,-5.2528,-5.1869,-5.0766,-4.9326,-4.8277,-4.74,-4.6272,-4.5303,-4.4467,-4.3706,-4.3262,-4.2937,-4.219,-4.1436,-4.0853,-4.0853,-4.0691,-4.0496,-4.0496,-4.0658,-4.0853,-4.0853,-4.1031,-4.1209,-4.1209,-4.1031,-4.0853,-4.0853,-4.0348,-3.9781,-3.9554,-3.8893,-3.7954,-3.6513,-3.7452,-3.7922,-3.6481,-3.7485,-3.8391,-3.8391,-3.8391,-3.8391,-3.8391,-3.8391,-3.8391,-3.8391,-3.7728,-3.7198,-3.6999,-3.5849,-3.4774,-3.3793,-3.3097,-3.1568,-2.907,-2.7445,-2.5413,-2.293,0.0,0.0,0.0,0.0,0.0,0.0,0.0,0.0,0.0,0.0,0.0,0.0,0.0,0.0,0.0,0.0,0.0,0.0,0.0,0.0,0.0,0.0,0.0,-3.6363,-4.0013,-4.2273,-4.1197,-4.4706,-4.633,-4.406,-4.5942,-4.7751,-4.8871,-4.8967,-4.932,-5.0147,-5.0209,-5.0568,-5.135,-5.1365,-5.1713,-5.2478,-5.2475,-5.2492,-5.2492,-5.2492,-5.2492,-5.2492,-5.2475,-5.2465,-5.2415,-5.2189,-5.2032,-5.1964,-5.1773,-5.1683,-5.1569,-5.0541,-4.9749,-4.8993,-4.738,-4.6314,-4.5507,-4.4219,-4.3281,-4.2651,-4.2635,-4.2197,-4.1661,-4.1644,-4.1112,-4.0561,-4.0561,-4.1093,-4.1628,-4.1628,-4.2116,-4.2602,-4.2602,-4.2099,-4.1628,-4.1628,-4.1061,-4.0335,-3.97,-3.8942,-3.8424,-3.8391,-3.8391,-3.8391,-3.8391,-3.8391,0.0,-3.8391,-3.8391,-3.8391,-3.8391,-3.8391,-3.8391,-3.8391,-3.7684,-3.6972,-3.6319,-3.5525,-3.4498,-3.3113,-3.2368,-3.12,-2.9579,-2.7072,-2.553,-2.5036,0.0,0.0,0.0,0.0,0.0,0.0,0.0,0.0,0.0,0.0,0.0,0.0,0.0,0.0,0.0,0.0,0.0,0.0,0.0,0.0,0.0,0.0,-4.0111,-3.9672,-4.2297,-4.4343,-4.4577,-4.6613,-4.7742,-4.7095,-4.8589,-4.9726,-5.0098,-5.0395,-5.0909,-5.1639,-5.1244,-5.1575,-5.2774,-5.2824,-5.3154,-5.3918,-5.3939,-5.393,-5.393,-5.393,-5.393,-5.393,-5.4479,-5.4974,-5.5355,-5.4227,-5.3688,-5.3517,-5.1811,-5.1094,-5.1044,-5.0981,-5.0242,-4.909,-4.8306,-4.6962,-4.5497,-4.5126,-4.4642,-4.4107,-4.3589,-4.3281,-4.3022,-4.2504,-4.2166,-4.2004,-4.2004,-4.2149,-4.2342,-4.2342,-4.2457,-4.2602,-4.2602,-4.2457,-4.2342,-4.2342,-4.1776,-4.1255,-4.1061,-4.004,-3.9023,-3.8489,-3.8391,-3.8391,-3.8391,0.0,0.0,-3.8391,-3.8391,-3.8391,-3.8391,-3.8391,-3.8391,-3.8391,-3.729,-3.627,0.0,-3.3841,-3.2708,-3.2319,-3.1584,-3.0926,-3.03,-2.8405,-2.6973,0.0,0.0,0.0,0.0,0.0,0.0,0.0,0.0,0.0,0.0,0.0,0.0,0.0,0.0,0.0,0.0,0.0,0.0,0.0,0.0,0.0,0.0,-4.1197,-4.3454,-4.4142,-4.5594,-4.6733,-4.7156,-4.8443,-4.9424,-4.9733,-5.0735,-5.1686,-5.2382,-5.2438,-5.2785,-5.3559,-5.3275,-5.3449,-5.4256,-5.4307,-5.4535,-5.4955,-5.4972,-5.4809,-5.451,-5.4809,-5.4809,-5.451,-5.4938,-5.5494,0.0,-5.4886,-5.4491,-5.4595,-5.2919,-5.1999,0.0,0.0,0.0,0.0,0.0,-4.7693,-4.6308,-4.6308,-4.592,-4.5369,-4.4925,-4.444,-4.3971,-4.3547,-4.3018,-4.2602,-4.2602,-4.2602,-4.2602,-4.2602,-4.2602,-4.2602,-4.2602,-4.2602,-4.2602,-4.2602,-4.2279,-4.1938,-4.1661,0.0,0.0,-3.9023,-3.8602,-3.8391,-3.8391,-3.8391,-3.8391,0.0,-3.8391,-3.8391,-3.8391,-3.8391,-3.8391,-3.8391,-3.7371,0.0,0.0,0.0,-3.2935,-3.2044,-3.1207,0.0,0.0,0.0,0.0,0.0,0.0,0.0,0.0,-2.7971,-2.7896,0.0,0.0,0.0,0.0,0.0,0.0,0.0,0.0,0.0,0.0,0.0,0.0,0.0,0.0,0.0,0.0,-4.4458,-4.6359,-4.8583,-4.9054,-4.9162,-4.9101,-5.0052,-5.1047,-5.1853,-5.2432,-5.3406,-5.4946,-5.4645,-5.47,-5.5472,0.0,0.0,0.0,0.0,-5.5875,-5.5944,-5.596,-5.5641,-5.4985,-5.5658,-5.5623,-5.5002,-5.5059,-5.5461,-5.5977,-5.5165,-5.506,-5.5373,-5.4431,-5.3602,-5.2774,-5.137,-5.0721,-5.0495,-4.947,-4.8354,0.0,0.0,0.0,0.0,-4.6269,-4.5526,-4.4626,-4.456,-4.3693,-4.2716,-4.2716,-4.2651,-4.2602,-4.2602,-4.2602,-4.2602,-4.2602,-4.2602,-4.2602,-4.2602,-4.2602,-4.2408,-4.1839,-4.1661,-4.1207,-3.9959,-3.9055,-3.8489,-3.8408,-3.8391,0.0,-3.8391,-3.8391,-3.8391,-3.8391,0.0,0.0,-3.8391,-3.7728,-3.7004,-3.6351,-3.5606,-3.4369,-3.2449,-3.1653,-3.151,-3.2119,-3.251,-3.3156,-3.4128,-3.4682,-3.4854,-3.4534,-2.9682,-2.9203,0.0,0.0,0.0,0.0,0.0,0.0,0.0,0.0,0.0,0.0,0.0,0.0,0.0,0.0,0.0,-4.3516,-4.5761,-4.7645,-4.8728,-5.0017,-5.0701,-5.0324,-5.0534,-5.1244,-5.2648,-5.3355,-5.4231,-5.5406,-5.5375,-5.5637,-5.6327,-5.582,0.0,-5.7236,-5.733,-5.7629,-5.8183,-5.8234,-5.8187,-5.8049,0.0,0.0,-5.8083,-5.868,-5.9012,-5.9107,-5.836,-5.7364,-5.6257,-5.4926,-5.3888,-5.2911,-5.1402,-5.0293,-4.9554,-4.9214,-4.8187,-4.7074,-4.749,-4.7259,-4.6696,-4.6076,-4.5733,-4.5455,-4.4903,-4.4172,0.0,-4.3508,-4.3055,-4.2602,-4.2602,-4.2602,-4.2602,-4.2602,-4.2602,-4.2602,-4.2602,-4.2602,-4.2554,-4.2424,-4.197,-4.1515,-4.1239,-4.0137,-3.9072,-3.8489,-3.8391,-3.8391,-3.8391,-3.8391,-3.8391,-3.8391,-3.8391,-3.8391,-3.8391,-3.7728,-3.7004,-3.6351,-3.5606,-3.5017,-3.4612,-3.4982,-3.5253,-3.5398,-3.5198,-3.524,-3.5429,-3.5368,-3.5404,-3.5571,-3.3796,-3.3621,0.0,0.0,0.0,0.0,0.0,0.0,0.0,0.0,0.0,0.0,0.0,-3.8223,-3.9819,0.0,-4.401,-4.6158,-4.7518,-4.8731,-4.9927,-5.0778,-5.1199,-5.0996,-5.1694,-5.2666,-5.3837,-5.4547,-5.5269,-5.6129,-5.6499,-5.6816,-5.708,-5.7474,-5.8043,-5.8786,-5.8875,-5.9067,-5.9422,-5.9419,-5.9281,-5.8892,-5.9281,-5.9247,-5.8926,-5.9281,-5.9447,-5.9427,-5.8647,-5.7873,-5.703,-5.5502,-5.4567,-5.4034,-5.2856,-5.1681,-5.0599,-5.012,-4.9325,-4.8482,-4.875,-4.8688,-4.8383,-4.7998,-4.7315,-4.6551,-4.6204,-4.5211,-4.4172,-4.3816,-4.3411,-4.3055,-4.2699,-4.2602,-4.2602,-4.2602,-4.2602,-4.2602,-4.2602,-4.2602,-4.2602,-4.2602,-4.2342,-4.1986,-4.1661,-4.1029,-4.0202,-3.9104,-3.8634,-3.8391,-3.8391,-3.8391,-3.8391,-3.8391,-3.8391,-3.8391,-3.8391,-3.7728,-3.715,-3.681,-3.6141,-3.5736,-3.5736,-3.6108,-3.6303,-3.6303,-3.6475,-3.6483,-3.6286,-3.6541,-3.6564,-3.6423,-3.5977,-3.5858,0.0,0.0,0.0,0.0,0.0,0.0,0.0,0.0,-3.6172,-3.7864,-3.9707,-4.1473,-4.2981,-4.4584,-4.6377,-4.8562,-4.9144,-4.9818,-5.1104,-5.143,-5.152,-5.152,-5.2679,-5.3838,-5.4816,-5.5333,-5.5949,-5.6775,-5.7469,-5.7853,-5.7866,-5.9148,-5.9987,-6.0148,-6.0189,-6.0209,-6.0209,-6.0209,-5.9905,-5.933,-5.9937,-5.9905,-5.9347,-5.9347,-5.9347,-5.9294,-5.8307,-5.7802,-5.7563,-5.6037,-5.5437,-5.5348,-5.4536,-5.3531,-5.2423,-5.1409,-5.0589,-4.999,-4.9882,-4.9772,-4.9683,-4.9683,-4.8744,-4.7594,-4.7594,-4.6528,-4.5163,-4.448,-4.4171,-4.3863,-4.3022,-4.2813,-4.278,-4.2635,-4.2602,-4.2602,-4.2602,-4.2602,-4.2602,-4.2602,-4.2602,-4.2424,-4.1873,-4.1693,-4.1126,-3.9716,-3.8974,-3.8553,-3.8424,-3.8391,-3.8391,-3.8391,-3.8391,-3.8391,-3.8391,-3.7873,-3.7506,-3.7506,-3.7015,-3.6707,-3.6707,-3.6707,-3.6707,-3.6707,-3.7242,-3.7379,-3.7122,-3.77,-3.7669,-3.709,-3.709,-3.6862,-2.9861,-3.0641,-3.1952,-3.4897,-3.5261,-3.6328,0.0,0.0,-4.1578,-4.3504,-4.4865,-4.5707,-4.5616,-4.7176,-4.8562,-4.8855,-5.0108,-5.1086,-5.1267,-5.1919,-5.2371,-5.2371,-5.2516,-5.3222,-5.4762,-5.4955,-5.5557,-5.6894,-5.7585,-5.8241,-5.8811,-5.9509,-6.0237,-6.0933,-6.098,-6.0974,-6.0974,-6.0974,-6.0926,-6.0848,-6.0926,-6.0926,-6.0848,-6.0848,-6.0848,-6.0777,-5.9253,-5.8214,-5.7547,-5.6641,-5.6258,-5.6186,-5.5384,-5.4838,-5.427,-5.2494,-5.1072,-4.9933,-4.946,-4.8995,-4.8574,-4.8574,-4.8461,-4.8299,-4.8299,-4.7734,-4.6993,-4.6451,-4.5812,-4.5026,-4.3896,-4.3589,-4.3395,-4.2748,-4.2602,-4.2602,-4.2602,-4.2602,-4.2602,-4.2602,-4.2602,-4.257,-4.2489,-4.1986,-4.1126,-3.9716,-3.9441,-3.912,-3.8472,-3.8391,-3.8391,-3.8391,-3.8391,-3.8391,-3.8391,-3.8327,-3.8278,-3.8278,-3.8213,-3.8165,-3.8165,-3.8165,-3.8165,-3.8165,-3.8246,-3.825,-3.8222,-3.8286,-3.8004,-3.7373,-3.7373,-3.7043,-3.4116,-3.5013,-3.5718,-3.7981,-3.9197,-4.0524,-4.3069,-4.3759,-4.4242,-4.5526,-4.6527,-4.7168,-4.7024,-4.7648,-4.8514,0.0,-5.0144,-5.0923,-5.1864,-5.1864,-5.1792,-5.1792,-5.1792,-5.2625,-5.4707,-5.5287,-5.5962,-5.6938,-5.8061,-5.878,-5.9,-6.0038,-6.0754,-6.1093,-6.1093,-6.1093,-6.1093,-6.1093,-6.1093,-6.1093,-6.1093,-6.1093,-6.1093,-6.1093,-6.0594,-5.9684,-5.8977,-5.8024,-5.6865,-5.6543,-5.6401,-5.6365,-5.6026,-5.5819,-5.546,-5.3103,-5.1675,-5.0831,-5.0137,-4.9661,-4.9333,-4.9333,-4.9135,-4.8855,-4.8855,-4.8467,-4.7849,-4.7228,-4.6847,-4.63,-4.4925,-4.4381,-4.3966,-4.3199,-4.2805,-4.2602,-4.2602,-4.2602,-4.2602,-4.2602,-4.2602,-4.2602,-4.2602,-4.2391,-4.1857,-4.0883,-4.0024,-3.9408,-3.9072,-3.8667,-3.8391,-3.8391,-3.8391,-3.8391,-3.8391,-3.8391,-3.8391,-3.8391,-3.8391,-3.8391,-3.8391,-3.8391,-3.8391,-3.8391,-3.8391,-3.8391,-3.8391,-3.8391,-3.8148,-3.7682,-3.7506,-3.7194,-3.6374,-3.7711,-3.8671,-4.022,-4.2259,-4.3889,-4.4014,-4.5044,-4.6124,-4.6721,-4.7301,-4.7717,-4.7717,-4.7877,-4.8496,-4.9854,-5.0293,-5.0927,-5.2299,-5.181,-5.1375,-5.1593,-5.143,-5.2154,-5.4363,-5.5251,-5.5986,-5.6682,-5.8312,-5.9194,-5.9074,-6.04,-6.1152,-6.1093,-6.1093,-6.1093,-6.1093,-6.1093,-6.1093,-6.1093,-6.1093,-6.1093,-6.1093,-6.1093,-6.0219,-5.8692,-5.8692,-5.7846,-5.6401,-5.6401,-5.6401,-5.6401,-5.6401,-5.6401,-5.6106,-5.3727,-5.2543,-5.1976,-5.0886,-5.0331,-5.0109,-5.0109,-4.9813,-4.9424,-4.9424,-4.9165,-4.8709,-4.8077,-4.7911,-4.7578,-4.6166,-4.5393,-4.4787,-4.4012,-4.338,-4.299,-4.299,-4.2881,-4.282,-4.2943,-4.2774,-4.2618,-4.2774,-4.268,-4.2424,-4.1938,-4.0867,-3.9943,-3.9554,-3.8845,-3.8391,-3.8391,-3.8391,-3.8391,-3.8391,-3.8391,-3.8391,-3.8391,-3.8391,-3.8391,-3.8391,-3.8391,-3.8391,-3.8391,-3.8391,-3.8391,-3.8391,-3.8391,-3.8234,-3.7886,-3.7653,-3.7344,-3.5291,-3.7598,-4.0341,-4.1608,-4.3743,-4.569,-4.6255,-4.7029,-4.7645,-4.7663,-4.7681,-4.7717,-4.7717,-4.833,-4.9148,-4.9985,-5.0764,-5.1538,-5.2371,-5.181,-5.1574,-5.2371,-5.1756,-5.1937,0.0,-5.4472,-5.5251,-5.5975,-5.8127,-5.934,-5.9194,-6.0526,-6.1223,-6.1093,-6.1093,-6.1093,-6.1093,-6.1093,-6.1093,-6.1093,-6.1093,-6.1093,-6.1093,-6.1093,-6.0219,-5.8692,-5.8692,-5.7846,-5.6401,-5.6401,-5.6401,-5.6401,-5.6401,-5.6401,-5.6204,-5.4554,-5.378,-5.3297,-5.1429,-5.0602,-5.0387,-5.0387,-5.0206,-4.9982,-4.9982,-4.9964,-4.983,-4.9299,-4.9161,-4.8853,-4.7651,-4.6742,-4.5975,-4.5303,-4.4537,-4.3972,-4.3972,-4.3604,-4.3426,-4.3885,-4.3218,-4.2743,-4.3185,-4.2912,-4.2586,-4.257,-4.197,-4.1045,-3.9684,-3.8845,-3.8391,-3.8391,-3.8391,-3.8391,-3.8391,-3.8391,-3.8391,-3.8391,-3.8391,-3.8391,-3.8391,-3.8391,-3.8391,-3.8391,-3.8391,-3.8391,-3.8391,-3.8391,-3.8234,-3.7915,-3.7886,-3.7551,-3.9224,-4.0746,-4.1957,-4.3907,-4.5304,-4.6404,-4.712,-4.7102,-4.6902,-4.6902,-4.6486,-4.6106,-4.6106,-4.6776,-4.7753,-4.9094,-4.9981,-5.0981,-5.2299,-5.2263,-5.1991,-5.1737,-5.1937,0.0,0.0,0.0,0.0,-5.5884,-5.7622,-5.8763,-5.9176,-6.0526,-6.1241,-6.1093,-6.1093,-6.1093,-6.1093,-6.1093,-6.1093,-6.1093,-6.1093,-6.1093,-6.1075,-6.0558,-5.9737,-5.8674,-5.8185,-5.7364,-5.6401,-5.6401,-5.6401,-5.6401,-5.6401,-5.6401,-5.6204,-5.4572,-5.3949,-5.3611,-5.1759,-5.0919,-5.063,-5.0453,-5.0331,-5.0235,-5.0051,-5.0011,-4.9964,-4.9772,-4.9725,-4.9524,-4.856,-4.7886,-4.7153,-4.5952,-4.5202,-4.465,-4.4118,-4.3885,-4.381,-4.3972,-4.3486,-4.3111,-4.3276,-4.2912,-4.2441,-4.2002,-4.1322,-4.0559,-3.9635,-3.8845,-3.8391,-3.8391,-3.8391,-3.8391,-3.8391,-3.8391,-3.8391,-3.8391,-3.8391,-3.8391,-3.8391,-3.8391,-3.8391,-3.8391,-3.8391,-3.8391,-3.8391,-3.8391,-3.8335,-3.8205,-3.7786,-3.7447,-4.1454,-4.2724,-4.3521,-4.5435,-4.6422,-4.6993,-4.7228,-4.6866,-4.6341,-4.5761,-4.5236,-4.4784,-4.4494,-4.4856,-4.5924,-4.8134,-4.8912,-5.0108,-5.257,-5.2426,-5.219,-5.2552,-5.2534,-5.2516,0.0,0.0,0.0,-5.5522,-5.7528,-5.8861,-5.9267,-6.0611,-6.1328,-6.1182,-6.1123,-6.1093,-6.1093,-6.1093,-6.1093,-6.1093,-6.1093,-6.095,-6.0647,-6.0148,-5.9327,-5.8292,-5.7792,-5.7132,-5.6401,-5.6401,-5.6401,-5.6401,-5.6401,-5.6401,-5.6204,-5.4572,-5.4001,-5.3743,-5.2038,-5.1237,-5.0955,-5.0784,-5.0647,-5.0481,-5.0235,-5.012,-5.012,-5.004,-5.0011,-4.989,-4.9344,-4.8781,-4.8099,-4.7159,-4.63,-4.5546,-4.5038,-4.4575,-4.4316,-4.4474,-4.4001,-4.3604,-4.3781,-4.3276,-4.2688,-4.2262,-4.1443,-4.0575,-3.9635,-3.8845,-3.8391,-3.8391,-3.8391,-3.8391,-3.8391,-3.8391,-3.8391,-3.8391,-3.8391,-3.8391,-3.8391,-3.8391,-3.8391,-3.8391,-3.8391,-3.8391,-3.8391,-3.8391,-3.8391,-3.8391,-3.796,-3.7766,-4.2059,-4.3519,-4.5022,-4.6241,-4.7102,-4.7446,-4.6667,-4.6413,-4.587,-4.4295,-4.3914,-4.3588,-4.2756,-4.2774,-4.3896,-4.6975,-4.7663,-4.9184,-5.3096,-5.2389,-5.2317,0.0,0.0,0.0,0.0,0.0,0.0,-5.5033,0.0,-5.95,-5.9457,-6.0816,-6.1519,-6.1328,-6.1182,-6.1093,-6.1093,-6.1093,-6.1093,-6.1093,-6.1058,-6.0647,-5.9916,-5.9826,-5.8988,-5.7606,-5.757,-5.7096,-5.6401,-5.6401,-5.6401,-5.6401,-5.6401,-5.6401,-5.6204,-5.4572,-5.4001,-5.3769,-5.2225,-5.1538,-5.1324,-5.1281,-5.1079,-5.0766,-5.0509,-5.0425,-5.0359,-5.0109,-5.0022,-5.004,-4.9993,-4.9413,-4.8844,-4.881,-4.7689,-4.6665,-4.6613,-4.5617,-4.4862,-4.53,-4.4669,-4.4174,-4.4597,-4.3927,-4.3336,-4.3336,-4.237,-4.114,-3.9732,-3.891,-3.844,-3.8391,-3.8391,-3.8391,-3.8391,-3.8391,-3.8391,-3.8391,-3.8391,-3.8391,-3.8391,-3.8391,-3.8391,-3.8391,-3.8391,-3.8391,-3.8391,-3.8391,-3.8391,-3.8391,-3.8363,-3.8402,-4.4448,-4.5682,-4.6596,-4.7241,-4.7102,-4.6757,-4.6558,-4.511,-4.3534,-4.2519,-4.1397,-4.0166,-3.877,-4.0908,0.0,-4.3987,-4.7138,0.0,-5.248,-5.3476,0.0,-5.4834,0.0,-5.5051,-5.4907,-5.5939,0.0,0.0,-5.7913,-5.9182,-6.0232,-6.1122,-6.1519,-6.1328,-6.1182,-6.1093,-6.1093,-6.1093,-6.1093,-6.1093,-6.0504,-6.0112,-5.9862,-5.8702,-5.7953,-5.7588,-5.6954,-5.6579,-5.6401,-5.6401,-5.6401,-5.6401,-5.6401,-5.6401,-5.6204,-5.4572,-5.4001,-5.3769,-5.2225,-5.1665,-5.1564,-5.1359,-5.1228,-5.1105,-5.0793,-5.0712,-5.063,-5.0387,-5.0302,-5.0246,-5.0051,-4.9855,-4.9545,-4.893,-4.8086,-4.7286,-4.6734,-4.5868,-4.5247,-4.5371,-4.4917,-4.4457,-4.4231,-4.3985,-4.381,-4.381,-4.2831,-4.1661,-4.041,-3.9622,-3.9007,-3.8456,-3.8391,-3.8391,-3.8391,-3.8391,-3.8391,-3.8391,-3.8391,-3.8391,-3.8391,-3.8391,-3.8391,-3.8391,-3.8391,-3.8391,-3.8391,-3.8391,-3.8391,-3.8391,-3.8132,-3.8315,-4.5956,-4.7003,-4.7641,-4.7695,-4.7102,-4.6142,-4.4729,-4.3081,-4.1234,-3.9026,-3.7902,-3.6906,-3.5654,-3.81,0.0,0.0,0.0,0.0,-5.2118,-5.3585,-5.4617,0.0,-5.574,0.0,-5.641,-5.7224,-5.8021,0.0,-5.9198,-5.9797,-6.0621,-6.1314,-6.1605,-6.1444,-6.127,-6.1152,-6.1093,-6.1093,-6.0915,-6.0576,-6.013,-5.9559,-5.8863,-5.7971,-5.7428,-5.7043,0.0,-5.6401,-5.6401,-5.6401,-5.6401,-5.6401,-5.6401,-5.6401,-5.6204,-5.4572,-5.4001,-5.3769,-5.2225,-5.169,-5.1665,-5.1513,-5.1479,-5.141,-5.1105,-5.1026,-5.0972,-5.0675,-5.0592,-5.0509,-5.0263,-5.0195,-5.0045,-4.947,-4.8723,-4.7965,-4.7251,-4.6466,-4.5811,-4.5466,-4.5194,-4.4917,-4.4669,-4.4429,-4.4316,-4.4316,-4.3592,-4.27,-4.1741,-4.0368,-3.936,-3.8926,-3.8586,-3.8391,-3.8391,-3.8391,-3.8391,-3.8391,-3.8391,-3.8391,-3.8391,-3.8391,-3.8391,-3.8391,-3.8391,-3.8391,-3.8391,-3.8391,-3.8391,-3.8408,-3.8205,-3.8579,-4.6967,-4.7793,-4.8173,-4.77,-4.6887,-4.5399,-4.2393,-4.0836,-3.9007,-3.5349,-3.4443,-3.4009,-3.3085,-3.5059,-3.781,-4.0745,0.0,-4.7753,-5.1774,-5.3132,-5.4273,-5.5812,-5.6084,-5.6699,-5.8112,-5.8438,-5.9144,-6.0557,-6.0819,-6.0946,-6.0946,-6.1506,-6.1718,-6.1577,-6.1386,-6.1241,-6.1093,-6.0986,-6.0594,-5.9916,-5.9701,-5.8899,-5.7606,-5.7499,-5.7043,-5.6401,0.0,0.0,-5.6401,-5.6401,-5.6401,-5.6401,-5.6401,-5.6329,-5.6062,-5.4536,-5.393,-5.3671,-5.2208,-5.169,-5.169,-5.169,-5.169,-5.1665,-5.141,-5.1333,-5.1281,-5.0955,-5.0874,-5.0793,-5.0537,-5.0453,-5.0369,-5.0149,-4.9389,-4.8521,-4.791,-4.7044,-4.6224,-4.5535,-4.5397,-4.5397,-4.5397,-4.5069,-4.479,-4.479,-4.4401,-4.3882,-4.33,-4.1177,-3.969,-3.9592,-3.8886,-3.8391,-3.8391,-3.8391,-3.8391,-3.8391,-3.8391,-3.8391,-3.8391,-3.8391,-3.8391,-3.8391,-3.8391,-3.8391,-3.8391,-3.8391,-3.8391,-3.8391,-3.8489,-3.9076,-4.7977,-4.8328,-4.8083,-4.7173,-4.572,-4.4023,-4.2121,-3.9586,-3.7049,-3.5023,-3.3538,-3.2162,-3.0708,-3.3484,-3.6616,-3.85,-4.2574,-4.6902,-5.0941,-5.277,-5.4273,0.0,-5.6573,-5.7098,-5.7387,0.0,0.0,0.0,0.0,0.0,-6.1779,-6.1814,-6.1644,-6.1357,-6.131,-6.1241,-6.1093,-6.0451,-6.0058,-5.9898,-5.8613,-5.7874,-5.7588,-5.69,-5.6525,-5.6401,0.0,0.0,-5.6401,-5.6401,-5.6401,-5.6401,-5.6401,-5.599,-5.5294,-5.434,-5.3617,-5.2957,-5.2011,-5.169,-5.169,-5.169,-5.169,-5.169,-5.164,-5.1615,-5.1564,-5.1281,-5.1202,-5.1149,-5.082,-5.0739,-5.0712,-5.0684,-4.9428,-4.8176,-4.8055,-4.6757,-4.5569,-4.5432,-4.5397,-4.5397,-4.5397,-4.5344,-4.5274,-4.5274,-4.4889,-4.4546,-4.441,-4.236,-4.0684,-4.0076,-3.9023,-3.8391,-3.8391,-3.8391,-3.8391,-3.8391,-3.8391,-3.8391,-3.8391,-3.8391,-3.8391,-3.8391,-3.8391,-3.8391,-3.8391,-3.8391,-3.8391,-3.8408,-3.9023,-3.969,-4.7699,-4.8126,-4.8047,-4.7049,-4.545,-4.3244,-3.9985,-3.7431,-3.4932,-3.2057,-3.0862,-3.0097,-2.9318,-3.1781,0.0,-3.6616,-3.9912,-4.3914,-4.8749,-5.0814,0.0,-5.5142,-5.6482,-5.7351,0.0,0.0,0.0,0.0,0.0,0.0,-6.1996,-6.1886,-6.1746,-6.1559,-6.1473,-6.1171,-6.0586,-6.0192,-5.9574,-5.8684,-5.7935,-5.7364,-5.6954,-5.6579,-5.6401,-5.6401,0.0,0.0,-5.6401,-5.6401,-5.6401,-5.6347,-5.5937,-5.5544,-5.5062,-5.3867,-5.3189,-5.2786,-5.1976,-5.169,-5.169,-5.169,-5.169,-5.169,-5.169,-5.169,-5.1665,-5.1538,-5.1513,-5.1436,-5.1132,-5.0928,-5.0749,-5.063,-4.9204,-4.7798,-4.7417,-4.6314,-4.5397,-4.5397,-4.5397,-4.5397,-4.5397,-4.5397,-4.5397,-4.5397,-4.522,-4.5069,-4.5069,-4.3565,-4.2111,-4.1095,-4.0189,-3.938,-3.8771,-3.8711,-3.8628,-3.8391,-3.8391,-3.8391,-3.8391,-3.8391,-3.8391,-3.8391,-3.8391,-3.8391,-3.8391,-3.8391,-3.8391,-3.8424,-3.9165,-3.9878,-4.7252,-4.7868,-4.8066,-4.7088,-4.5343,-4.2702,-3.8263,-3.5747,-3.3302,-2.9613,-2.8726,-2.86,-2.86,-3.0296,-3.2524,-3.5116,-3.7576,-4.1017,-4.6432,-4.8858,-5.1212,0.0,-5.5993,0.0,0.0,0.0,0.0,0.0,0.0,0.0,0.0,-6.1913,-6.183,-6.1802,-6.1528,-6.1001,-6.0167,-5.9798,-5.8944,-5.7634,-5.7445,-5.6989,-5.6401,-5.6401,-5.6401,-5.6401,0.0,0.0,0.0,-5.6401,-5.6294,-5.6079,-5.5455,-5.5009,-5.4563,-5.3358,-5.2804,-5.2554,-5.1904,-5.169,-5.169,-5.169,-5.169,-5.169,-5.169,-5.169,-5.169,-5.169,-5.169,-5.164,-5.1436,-5.1184,-5.0813,-5.0163,-4.8747,-4.7351,-4.651,-4.5845,-4.5397,-4.5397,-4.5397,-4.5397,-4.5397,-4.5397,-4.5397,-4.5397,-4.5397,-4.5397,-4.5397,-4.4626,-4.3639,-4.2449,-4.1429,-4.0341,-3.9235,-3.9115,-3.8969,-3.8544,-3.8532,-3.8476,-3.8391,-3.8391,-3.8391,-3.8391,-3.8391,-3.8391,-3.8391,-3.8391,-3.8391,-3.8424,-3.9282,-3.9978,-4.7257,-4.7978,-4.8104,-4.7278,-4.502,-4.2158,-3.8843,-3.5711,-3.2777,-3.0219,-2.9119,-2.86,-2.86,-2.9373,-3.1053,-3.4208,-3.6743,-3.9985,-4.4838,-4.8152,-5.1036,-5.3512,0.0,0.0,0.0,0.0,0.0,0.0,0.0,0.0,0.0,-6.1996,-6.1941,-6.1802,-6.1099,-6.0601,-6.0372,-5.8796,-5.7925,-5.7782,-5.6929,-5.6472,-5.6401,-5.6401,-5.6401,-5.6401,0.0,0.0,0.0,-5.6401,-5.5972,-5.5312,-5.5241,-5.4331,-5.309,-5.2947,-5.2447,-5.1797,-5.1726,-5.169,-5.169,-5.169,-5.169,-5.169,-5.169,-5.169,-5.169,-5.169,-5.169,-5.169,-5.1665,-5.164,-5.1157,-4.923,-4.7884,-4.6777,-4.5752,-4.5449,-4.5397,-4.5397,-4.5397,-4.5397,-4.5397,-4.5397,-4.5397,-4.5397,-4.5397,-4.5397,-4.5397,-4.5319,-4.4948,-4.4156,-4.2095,-4.0457,-3.9625,-3.9558,-3.9375,-3.8969,-3.8942,-3.8794,-3.842,-3.8391,-3.8391,-3.8391,-3.8391,-3.8391,-3.8391,-3.8391,-3.8391,-3.8424,-3.9768,-4.0432,-4.5175,-4.6149,-4.6654,-4.5865,-4.3543,-4.0637,-3.7468,-3.4643,-3.1999,-2.959,-2.8817,-2.86,-2.86,-2.8853,-2.997,-3.2705,-3.3556,-3.5709,-4.0999,-4.3643,-4.6667,-5.1013,0.0,0.0,0.0,0.0,0.0,0.0,0.0,0.0,0.0,-6.12,-6.1733,-6.1236,-6.091,-6.0178,-5.9087,-5.8385,-5.7747,-5.72,-5.6743,-5.6519,-5.6519,-5.6455,-5.6401,-5.6401,0.0,0.0,0.0,-5.5687,-5.5205,-5.4411,-5.3992,-5.3421,-5.284,-5.2376,-5.1958,-5.169,-5.169,-5.169,-5.169,-5.169,-5.169,-5.169,-5.169,-5.169,-5.169,-5.169,-5.169,-5.169,-5.169,-5.1208,-5.0384,-4.8887,-4.7847,-4.6957,-4.6062,-4.5752,-4.5649,-4.5649,-4.5511,-4.5397,-4.5397,-4.5397,-4.5397,-4.5397,-4.5397,-4.5397,-4.5397,-4.5397,-4.513,-4.438,-4.3066,-4.1827,-4.0781,-4.0299,-3.9825,-3.9391,-3.9142,-3.8914,-3.8766,-3.8532,-3.8391,-3.8391,-3.8391,-3.8391,-3.8391,-3.8391,-3.8391,-3.8424,-3.9833,-4.0496,-4.3299,-4.4595,-4.5477,-4.4889,-4.2682,-3.9832,-3.6635,-3.4051,-3.162,-2.9152,-2.8662,-2.865,-2.86,-2.86,-2.9233,-3.1166,-3.16,-3.3429,-3.8354,-4.0782,-4.3969,0.0,0.0,0.0,0.0,0.0,0.0,0.0,0.0,0.0,0.0,-5.9796,-6.0321,-5.976,-5.9506,-5.8911,-5.7903,-5.7624,-5.7149,-5.6487,-5.6374,-5.6169,-5.5901,-5.5795,-5.5714,0.0,0.0,0.0,0.0,-5.4866,-5.4384,-5.3635,-5.3082,-5.2751,-5.2483,-5.1904,-5.169,-5.169,-5.169,-5.169,-5.169,-5.169,-5.169,-5.169,-5.169,-5.169,-5.169,-5.169,-5.169,-5.1637,-5.1405,-5.0563,-4.9531,-4.8534,-4.7623,-4.6835,-4.6291,-4.6062,-4.5912,-4.5912,-4.5778,-4.5641,-4.5641,-4.5641,-4.5615,-4.5537,-4.5511,-4.5485,-4.5397,-4.5397,-4.519,-4.4665,-4.3776,-4.2754,-4.1672,-4.0888,-4.0271,-3.9833,-3.954,-3.9265,-3.9023,-3.8738,-3.8532,-3.8391,-3.8391,-3.8391,-3.8391,-3.8391,-3.8505,-3.8748,-3.9946,-4.0723,-4.2147,-4.3841,-4.4914,-4.4895,-4.2936,-4.0143,-3.6919,-3.433,-3.1865,-2.9314,-2.8785,-2.8749,-2.8625,-2.86,-2.8871,-2.9694,-3.1818,-3.4516,-3.7756,-4.0926,0.0,0.0,0.0,0.0,0.0,0.0,0.0,0.0,0.0,0.0,0.0,0.0,-5.7243,-5.7243,-5.6464,-5.641,-5.7206,-5.6284,-5.5812,-5.5812,-5.5685,-5.5117,-5.4235,-5.4235,0.0,0.0,0.0,0.0,0.0,-5.4001,-5.3581,-5.2911,-5.2911,-5.2429,-5.1708,-5.169,-5.169,-5.169,-5.169,-5.169,-5.169,-5.169,-5.169,-5.169,-5.169,-5.169,-5.169,-5.169,-5.169,-5.1512,-5.0727,-4.9763,-4.8827,-4.8006,-4.698,-4.6204,-4.6211,-4.6211,-4.6186,-4.6186,-4.6186,-4.6186,-4.6186,-4.6186,-4.6112,-4.5837,-4.5786,-4.5701,-4.545,-4.5397,-4.5397,-4.538,-4.4078,-4.2879,-4.2043,-4.1326,-4.0704,-4.033,-4.0305,-3.991,-3.905,-3.8996,-3.8821,-3.8408,-3.8391,-3.8391,-3.8391,-3.8391,-3.8764,-3.9505,-4.0173,-4.1257,-3.761,-3.8845,-3.977,-3.9217,-3.757,-3.5659,-3.4096,-3.2294,-3.0583,-2.9233,-2.8858,-2.8785,-2.8737,-2.8662,-2.9577,-3.2596,-3.3719,-3.5349,-3.8554,0.0,0.0,0.0,0.0,0.0,0.0,0.0,0.0,0.0,0.0,0.0,0.0,0.0,-5.6373,-5.6373,-5.612,-5.5866,-5.5631,-5.5328,-5.5177,-5.5177,-5.4993,-5.4774,-5.4471,-5.4371,0.0,0.0,0.0,0.0,0.0,-5.3242,-5.2779,-5.2065,-5.2065,-5.1904,-5.169,-5.169,-5.169,-5.169,-5.169,-5.169,-5.169,-5.169,-5.169,-5.169,-5.169,-5.169,-5.169,-5.169,-5.1298,-5.0816,-5.0584,-4.9483,-4.8402,-4.8135,-4.7388,-4.6749,-4.6749,-4.6613,-4.6453,-4.6453,-4.6332,-4.6211,-4.6211,-4.6211,-4.6161,-4.6087,-4.6087,-4.6038,-4.5955,-4.5955,-4.5879,-4.5701,-4.4798,-4.3838,-4.2904,-4.1636,-4.0864,-4.0704,-4.0436,-4.0163,-3.991,-3.9575,-3.9365,-3.9232,-3.8969,-3.8942,-3.9232,-3.9173,-3.9781,-4.0948,-4.1158,-4.1743,-3.4612,-3.5936,-3.6756,-3.6207,-3.5,-3.365,-3.2557,-3.1279,-3.01,-2.9244,-2.901,-2.8917,-2.881,-2.8724,-2.9466,-3.1944,-3.3103,-3.4824,0.0,0.0,0.0,0.0,0.0,0.0,0.0,0.0,0.0,0.0,0.0,0.0,0.0,0.0,-5.5577,-5.5577,-5.5577,-5.5504,-5.5323,-5.5051,-5.4907,-5.4907,-5.4466,-5.4068,-5.373,0.0,0.0,0.0,0.0,0.0,0.0,-5.2541,-5.223,-5.1783,-5.1715,-5.169,-5.169,-5.169,-5.169,-5.169,-5.169,-5.169,-5.169,-5.169,-5.169,-5.169,-5.169,-5.169,-5.1637,-5.1333,-5.0887,-5.037,-4.9781,-4.893,-4.8127,-4.7824,-4.7377,-4.6998,-4.6998,-4.6865,-4.6731,-4.6731,-4.6613,-4.6495,-4.6495,-4.6495,-4.6471,-4.6374,-4.6357,-4.6308,-4.6211,-4.6211,-4.6137,-4.5963,-4.5281,-4.4555,-4.3831,-4.2555,-4.1774,-4.1774,-4.1513,-4.1314,-4.1146,-4.0586,-4.0228,-4.0072,-3.9824,-3.9797,-4.0055,-4.0563,-4.1164,-4.1868,-4.2129,-4.2382,0.0,-3.447,-3.5231,-3.5113,-3.4475,-3.3489,-3.1991,-3.1072,0.0,-2.941,-2.9211,-2.916,-2.9016,-2.8949,-2.8974,-2.9181,-3.1143,-3.3734,0.0,0.0,0.0,0.0,0.0,0.0,0.0,0.0,0.0,0.0,0.0,0.0,0.0,0.0,0.0,-5.4979,-5.4943,-5.5233,-5.5921,-5.5196,-5.4816,-5.4798,-5.4001,-5.3152,-5.2311,0.0,0.0,0.0,0.0,0.0,0.0,-5.1956,-5.1907,-5.1907,-5.1783,-5.1715,-5.1715,-5.169,-5.169,-5.169,-5.169,-5.169,-5.169,-5.169,-5.169,-5.169,-5.1619,-5.1637,-5.153,-5.0727,-5.0459,-5.0066,-4.8591,-4.8163,-4.7931,-4.7181,-4.6998,-4.6998,-4.6998,-4.6998,-4.6998,-4.6998,-4.6998,-4.6998,-4.6998,-4.6998,-4.6911,-4.6661,-4.6637,-4.6542,-4.6284,-4.6259,-4.6259,-4.6235,-4.562,-4.5085,-4.4791,-4.3813,-4.3214,-4.3189,-4.3189,-4.2996,-4.2559,-4.1886,-4.1358,-4.0992,-4.0966,-4.0956,-4.0953,-4.2355,-4.2834,-4.2426,-4.3069,-4.3111,-2.8532,0.0,-3.1029,-3.0988,-3.0901,-3.0715,0.0,-2.9979,-2.9764,-2.9557,-2.9339,-2.9566,-3.0726,-3.0368,-3.1052,-3.4597,-3.617,-3.7814,0.0,0.0,0.0,0.0,0.0,0.0,0.0,0.0,0.0,0.0,0.0,0.0,0.0,0.0,0.0,-5.574,-5.5196,-5.4979,-5.516,-5.4381,-5.3983,-5.3965,-5.3168,-5.2656,-5.2452,0.0,0.0,0.0,0.0,0.0,-5.2102,-5.2078,-5.2054,-5.2054,-5.1907,-5.1858,-5.1833,-5.174,-5.169,-5.169,-5.169,-5.169,-5.169,-5.169,-5.169,-5.1583,-5.0976,-5.1208,-5.153,-5.0727,-5.0066,-4.9388,-4.8448,-4.7752,-4.7212,-4.7033,-4.6998,-4.6998,-4.6998,-4.6998,-4.6998,-4.6998,-4.6998,-4.6998,-4.6998,-4.6998,-4.698,-4.6911,-4.6911,-4.6888,-4.6819,-4.6819,-4.6731,-4.6542,-4.6359,-4.6044,-4.5575,-4.4247,-4.336,-4.3214,-4.3189,-4.3139,-4.3047,-4.2867,-4.2738,-4.2637,-4.2637,-4.2584,-4.2478,-4.3135,-4.3507,-4.3606,-4.3773,-4.3798,-2.6612,-2.8267,-2.9773,-2.9701,-3.0019,-3.0327,-3.0264,-2.9955,-2.9682,-2.9682,-2.9589,-2.9836,-3.1014,-3.1139,-3.2103,-3.5266,-3.7153,0.0,0.0,0.0,0.0,0.0,0.0,0.0,0.0,0.0,0.0,0.0,0.0,0.0,0.0,0.0,0.0,0.0,-5.4797,-5.468,-5.4907,-5.411,-5.3693,-5.3693,-5.2878,-5.2498,-5.2498,0.0,0.0,0.0,0.0,0.0,-5.2269,-5.2222,-5.2174,-5.2174,-5.2054,-5.2005,-5.198,-5.1833,-5.1808,-5.1765,-5.1715,-5.169,-5.1637,-5.1262,-5.1155,-5.0994,-5.0191,-5.0263,-5.0441,-4.9656,-4.9121,-4.8621,-4.7859,-4.7342,-4.6998,-4.6998,-4.6998,-4.6998,-4.6998,-4.6998,-4.6998,-4.6998,-4.6998,-4.6998,-4.6998,-4.6998,-4.6998,-4.6998,-4.6998,-4.6998,-4.6998,-4.6998,-4.6934,-4.6795,-4.6778,-4.6613,-4.6211,-4.5414,-4.4722,-4.425,-4.4199,-4.4199,-4.4199,-4.3897,-4.3707,-4.3707,-4.3707,-4.3838,-4.4102,-4.4336,-4.4388,-4.4316,-4.4316,-4.4202,-2.6179,-2.8289,-3.0121,-2.9736,-3.0359,-3.1039,-3.0889,-3.0323,-2.9834,-2.9834,-2.992,-3.0272,-3.1214,-3.2108,0.0,-3.4852,0.0,0.0,0.0,0.0,0.0,0.0,0.0,0.0,0.0,0.0,0.0,0.0,0.0,0.0,0.0,0.0,0.0,0.0,-5.3815,-5.3935,-5.434,-5.3909,-5.3693,-5.3693,-5.2878,-5.2498,-5.2498,-5.2498,0.0,0.0,0.0,0.0,-5.2498,-5.2382,-5.2335,-5.2311,-5.2174,-5.2126,-5.2126,-5.198,-5.186,-5.171,-5.1444,-5.1358,-5.1226,-5.0548,-5.0334,-5.0174,-4.9388,-4.9115,-4.8996,-4.8234,-4.8109,-4.802,-4.7194,-4.6998,-4.6998,-4.6998,-4.6998,-4.6998,-4.6998,-4.6998,-4.6998,-4.6998,-4.6998,-4.6998,-4.6998,-4.6998,-4.6998,-4.6998,-4.6998,-4.6998,-4.6998,-4.6998,-4.6998,-4.6998,-4.6998,-4.6888,-4.6613,-4.659,-4.6301,-4.5563,-4.5485,-4.5432,-4.5397,-4.4803,-4.4483,-4.4483,-4.4483,-4.4768,-4.5397,-4.5397,-4.5194,-4.479,-4.479,-4.4597,-2.7046,-2.9298,-3.0814,-2.9266,-3.0156,-3.12,-3.0349,-3.0059,-2.9975,-2.9975,-3.0431,-3.1477,-3.3693,-3.4817,-3.6362,0.0,0.0,0.0,0.0,0.0,0.0,0.0,0.0,0.0,0.0,0.0,0.0,0.0,0.0,0.0,0.0,0.0,0.0,0.0,0.0,-5.1694,-5.1766,-5.3043,-5.3693,-5.3693,-5.2878,-5.2498,-5.2498,-5.2498,-5.2498,0.0,0.0,-5.2498,-5.2498,-5.2475,-5.2475,-5.2452,-5.2335,-5.2264,-5.2264,-5.2126,-5.1646,-5.094,-5.0116,-4.9764,-4.965,-4.9507,-4.9471,-4.9329,-4.8586,-4.8377,-4.8216,-4.7413,-4.7681,-4.802,-4.7194,-4.6998,-4.6998,-4.6998,-4.6998,-4.6998,-4.6998,-4.6998,-4.6998,-4.6998,-4.6998,-4.6998,-4.6998,-4.6998,-4.6998,-4.6998,-4.6998,-4.6998,-4.6998,-4.6998,-4.6998,-4.6998,-4.6998,-4.6888,-4.6613,-4.659,-4.6471,-4.6087,-4.5862,-4.5624,-4.5397,-4.5276,-4.5225,-4.5225,-4.5225,-4.5276,-4.5397,-4.5397,-4.5371,-4.5274,-4.5274,-4.5247,-2.6141,-2.816,-2.9954,-2.9606,-3.1886,-3.3971,-3.3018,-3.282,-3.282,-3.282,-3.3045,-3.3764,-3.5381,0.0,-3.8849,-4.2572,0.0,0.0,0.0,0.0,0.0,0.0,0.0,0.0,0.0,0.0,0.0,0.0,0.0,0.0,0.0,0.0,0.0,0.0,0.0,0.0,-5.1213,-5.1977,-5.2344,-5.2344,-5.1958,-5.1814,-5.1814,-5.1814,-5.1814,-5.1814,0.0,-5.1814,-5.1793,-5.1563,-5.1456,-5.1453,-5.1221,-5.1103,-5.1103,-5.0966,-5.062,-5.0196,-4.9767,-4.9572,-4.9435,-4.8917,-4.8769,-4.8626,-4.7788,-4.7556,-4.7484,-4.7087,-4.7288,-4.7484,-4.7087,-4.6998,-4.6998,-4.6998,-4.6998,-4.6998,-4.6998,-4.6998,-4.6998,-4.6998,-4.6998,-4.6998,-4.6998,-4.6998,-4.6998,-4.6998,-4.6998,-4.6998,-4.6998,-4.6998,-4.6998,-4.6998,-4.6998,-4.6934,-4.6819,-4.6819,-4.6637,-4.6235,-4.6087,-4.5887,-4.5624,-4.5624,-4.5537,-4.5397,-4.5397,-4.5397,-4.5397,-4.5397,-4.5397,-4.5397,-4.5397,-4.5397,-2.5682,-2.7453,-2.9414,-3.0261,-3.2917,-3.5354,-3.5469,-3.5209,-3.5076,-3.5668,-3.5954,-3.6356,-3.7226,-3.9088,0.0,0.0,0.0,0.0,0.0,0.0,0.0,0.0,0.0,0.0,0.0,0.0,0.0,0.0,0.0,0.0,0.0,0.0,0.0,0.0,0.0,0.0,-5.12,-5.12,-5.1189,-5.1194,-5.1194,-5.1194,-5.1194,-5.1194,-5.1194,-5.1194,-5.1194,-5.1194,-5.1176,-5.0855,-5.0738,-5.0717,-5.0467,-5.0359,-5.032,-4.9923,-4.9698,-4.9568,-4.9275,-4.9153,-4.9,-4.8276,-4.8015,-4.7862,-4.7204,-4.6998,-4.6998,-4.6998,-4.6998,-4.6998,-4.6998,-4.6998,-4.6998,-4.6998,-4.6998,-4.6998,-4.6998,-4.6998,-4.6998,-4.6998,-4.6998,-4.6998,-4.6998,-4.6998,-4.6998,-4.6998,-4.6998,-4.6998,-4.6998,-4.6998,-4.6998,-4.6998,-4.6998,-4.6998,-4.6998,-4.6998,-4.6819,-4.6405,-4.6332,-4.6161,-4.5912,-4.5887,-4.5803,-4.5589,-4.5528,-4.5485,-4.5485,-4.5423,-4.5397,-4.5397,-4.5397,-4.5397,-2.709,-2.879,-3.03,-3.1121,-3.1599,-3.2669,-3.5717,-3.5209,-3.474,-3.7043,-3.8151,-3.8992,-3.9862,-4.2679,0.0,0.0,0.0,0.0,0.0,0.0,0.0,0.0,0.0,0.0,0.0,0.0,0.0,0.0,0.0,0.0,0.0,0.0,0.0,0.0,0.0,0.0,-5.1211,-5.1211,-5.1199,-5.1194,-5.1194,-5.1194,-5.1194,-5.1194,-5.1194,-5.1194,-5.1194,-5.1194,-5.1194,-5.1176,-5.1158,-5.1158,-5.1139,-5.1121,-5.0991,-4.9853,-4.9397,-4.9161,-4.8055,-4.7539,-4.738,-4.7286,-4.7182,-4.7092,-4.7038,-4.6998,-4.6998,-4.6998,-4.6998,-4.6998,-4.6998,-4.6998,-4.6998,-4.6998,-4.6998,-4.6998,-4.6998,-4.6998,-4.6998,-4.6998,-4.6998,-4.6998,-4.6998,-4.6998,-4.6998,-4.6998,-4.6998,-4.6998,-4.6998,-4.6998,-4.6998,-4.6998,-4.6998,-4.6998,-4.6998,-4.6998,-4.698,-4.6934,-4.6708,-4.6471,-4.6186,-4.6161,-4.6161,-4.6137,-4.5887,-4.576,-4.576,-4.5511,-4.5397,-4.5397,-4.5397,-4.5397,-2.5969,-2.8128,-3.0395,-3.119,-3.2604,-3.4407,-3.6719,-3.7597,-3.8476,-4.0463,-4.1132,-4.1628,-4.244,0.0,0.0,0.0,0.0,0.0,0.0,0.0,0.0,0.0,0.0,0.0,0.0,0.0,0.0,0.0,0.0,0.0,0.0,0.0,0.0,0.0,0.0,0.0,0.0,-5.0391,-5.0393,-5.0406,-5.0406,-5.0406,-5.0406,-5.0406,-5.0406,-5.0406,-5.0406,-5.0406,-5.0375,-5.0169,-5.0071,-5.0054,-4.9815,-4.9727,-4.9654,-4.9195,-4.9011,-4.8919,-4.8476,-4.8271,-4.8176,-4.8099,-4.798,-4.7818,-4.7527,-4.7371,-4.7272,-4.7066,-4.6998,-4.6998,-4.6998,-4.6998,-4.6998,-4.6998,-4.6998,-4.6998,-4.6998,-4.6998,-4.6998,-4.6998,-4.6998,-4.6998,-4.6998,-4.6998,-4.6998,-4.6998,-4.6998,-4.6998,-4.6998,-4.6998,-4.6998,-4.6998,-4.6998,-4.6998,-4.6998,-4.6998,-4.6998,-4.6998,-4.6911,-4.6731,-4.6471,-4.6471,-4.6357,-4.6211,-4.6112,-4.6062,-4.6062,-4.5955,-4.5905,-4.5905,-4.5727,-4.5649,-2.5587,-2.765,-3.0051,-3.1133,-3.331,-3.5783,-3.8018,-3.9451,-4.0931,-4.3138,-4.3596,-4.3768,-4.4322,0.0,0.0,0.0,0.0,0.0,0.0,0.0,0.0,0.0,0.0,0.0,0.0,0.0,0.0,0.0,0.0,0.0,0.0,0.0,0.0,0.0,0.0,0.0,0.0,-4.9779,-4.9779,-4.9533,-4.9779,-4.9912,-4.9912,-4.9912,-4.9912,-4.9912,-4.9912,-4.9912,-4.9879,-4.9655,-4.9566,-4.9518,-4.9246,-4.915,-4.9134,-4.9038,-4.8988,-4.8969,-4.885,-4.8763,-4.8709,-4.8638,-4.8531,-4.8365,-4.8042,-4.7759,-4.7521,-4.7284,-4.712,-4.6998,-4.6998,-4.6998,-4.6998,-4.6998,-4.6998,-4.6998,-4.6998,-4.6998,-4.6998,-4.6998,-4.6998,-4.6998,-4.6998,-4.6998,-4.6998,-4.6998,-4.6998,-4.6998,-4.6998,-4.6998,-4.6998,-4.6998,-4.6998,-4.6998,-4.6998,-4.6998,-4.6998,-4.6998,-4.6998,-4.6911,-4.6731,-4.6749,-4.6637,-4.6471,-4.6357,-4.6332,-4.6332,-4.6235,-4.6211,-4.6186,-4.5938,-4.5811,-2.6402,-2.7638,-2.9331,-3.0999,-3.3349,-3.6137,-3.9556,-4.032,-4.1266,-4.4609,-4.5307,-4.5307,-4.5307,-4.5307,0.0,0.0,0.0,0.0,0.0,0.0,0.0,0.0,0.0,0.0,0.0,0.0,0.0,0.0,0.0,0.0,0.0,0.0,0.0,0.0,0.0,0.0,0.0,-4.9476,-4.9476,-4.8698,-4.9495,-4.9893,-4.9912,-4.9912,-4.9912,-4.9912,-4.9912,-4.9912,-4.9912,-4.9912,-4.9912,-4.9912,-4.9912,-4.9912,-4.9852,-4.9537,-4.9396,-4.9349,-4.8936,-4.8709,-4.8601,-4.8601,-4.8585,-4.8513,-4.8495,-4.8139,-4.7702,-4.7702,-4.7374,-4.702,-4.7002,-4.6998,-4.6998,-4.6998,-4.6998,-4.6998,-4.6998,-4.6998,-4.6998,-4.6998,-4.6998,-4.6998,-4.6998,-4.6998,-4.6998,-4.6998,-4.6998,-4.6998,-4.6998,-4.6998,-4.6998,-4.6998,-4.6998,-4.6998,-4.6998,-4.6998,-4.6998,-4.6998,-4.6998,-4.6998,-4.6998,-4.6998,-4.6998,-4.6998,-4.6731,-4.6613,-4.6613,-4.6332,-4.6211,-4.6211,-4.5938,-4.5811,-2.6402,-2.8523,-3.114,-3.2802,-3.6031,-3.9365,-4.1571,-4.2068,-4.2679,-4.4838,-4.5307,-4.5307,-4.5307,0.0,0.0,0.0,0.0,0.0,0.0,0.0,0.0,0.0,0.0,0.0,0.0,0.0,0.0,0.0,0.0,0.0,0.0,0.0,0.0,0.0,0.0,0.0,0.0,0.0,-4.8022,-4.7776,-4.8022,-4.8761,-4.9912,-4.9912,-4.9912,-4.9912,-4.9912,-4.9912,-4.9912,-4.9912,-4.9912,-4.9912,-4.9912,-4.9912,-4.9898,-4.9783,-4.9755,-4.9722,-4.9617,-4.9539,-4.9506,-4.9506,-4.9435,-4.9299,-4.905,-4.8777,-4.8458,-4.7964,-4.7677,-4.7442,-4.7205,-4.7066,-4.6998,-4.6998,-4.6998,-4.6998,-4.6998,-4.6998,-4.6998,-4.6998,-4.6998,-4.6998,-4.6998,-4.6998,-4.6998,-4.6998,-4.6998,-4.6998,-4.6998,-4.6998,-4.6998,-4.6998,-4.6998,-4.6998,-4.6998,-4.6998,-4.6998,-4.6998,-4.6998,-4.6998,-4.6998,-4.6998,-4.6998,-4.6998,-4.6911,-4.6888,-4.6888,-4.6795,-4.6754,-4.6731,-4.6284,-4.6087,-2.7625,-2.9898,-3.2535,-3.4885,-3.7903,-4.0912,-4.3252,-4.3787,-4.4074,-4.5097,-4.5307,-4.5307,-4.5307,0.0,0.0,0.0,0.0,0.0,0.0,0.0,0.0,0.0,0.0,0.0,0.0,0.0,0.0,0.0,0.0,0.0,0.0,0.0,0.0,0.0,0.0,0.0,0.0,0.0,0.0,-4.6973,-4.7283,-4.7953,-4.8907,-4.8907,-4.8907,-4.8907,-4.8907,-4.9097,-4.9419,-4.9419,-4.9608,-4.9912,-4.9912,-4.9912,-4.9912,-4.9912,-4.9912,-4.9912,-4.9912,-4.9912,-4.9912,-4.9912,-4.9843,-4.9745,-4.9544,-4.9259,-4.893,-4.8531,-4.8216,-4.7964,-4.7775,-4.765,-4.7503,-4.7075,-4.6998,-4.6998,-4.6998,-4.6998,-4.6998,-4.6998,-4.6998,-4.6998,-4.6998,-4.6998,-4.6998,-4.6998,-4.6998,-4.6998,-4.6998,-4.6998,-4.6998,-4.6998,-4.6998,-4.6998,-4.6998,-4.6998,-4.6998,-4.6998,-4.6998,-4.6998,-4.6998,-4.6998,-4.6998,-4.6998,-4.6998,-4.6998,-4.6998,-4.6998,-4.6998,-4.6998,-4.6566,-4.6357,-2.9402,-3.1362,-3.352,-3.6967,-3.9298,-4.1552,-4.4609,-4.5364,-4.5411,-4.5411,0.0,-4.5411,0.0,0.0,0.0,0.0,0.0,0.0,0.0,0.0,0.0,0.0,0.0,0.0,0.0,0.0,0.0,0.0,0.0,0.0,0.0,0.0,0.0,0.0,0.0,0.0,0.0,0.0,0.0,0.0,-4.694,-4.7245,-4.7195,-4.7334,-4.7409,-4.7397,-4.7397,-4.7864,-4.8585,-4.8585,-4.9021,-4.9684,-4.9684,-4.9684,-4.9684,-4.9684,-4.9722,-4.9798,-4.9798,-4.9836,-4.9912,-4.9912,-4.9912,-4.9912,-4.9912,-4.9602,-4.9262,-4.923,-4.8898,-4.8549,-4.8513,-4.8495,-4.8272,-4.7349,-4.7098,-4.7048,-4.7002,-4.6998,-4.6998,-4.6998,-4.6998,-4.6998,-4.6998,-4.6998,-4.6998,-4.6998,-4.6998,-4.6998,-4.6998,-4.6998,-4.6998,-4.6998,-4.6998,-4.6998,-4.6998,-4.6998,-4.6998,-4.6998,-4.6998,-4.6998,-4.6998,-4.6998,-4.6998,-4.6998,-4.6998,-4.6998,-4.6998,-4.6998,-4.6998,-4.698,-4.6708,-4.659,-2.8669,-3.0904,-3.3673,-3.7712,-4.1495,-4.4399,-4.5154,-4.5793,-4.6233,-4.6233,-4.6233,0.0,0.0,0.0,0.0,0.0,0.0,0.0,0.0,0.0,0.0,0.0,0.0,0.0,0.0,0.0,0.0,0.0,0.0,0.0,0.0,0.0,0.0,0.0,0.0,0.0,-4.5181,-4.5304,-4.5358,0.0,-4.5517,-4.5612,-4.5639,-4.689,-4.7448,-4.7397,-4.7397,-4.751,-4.7694,-4.7694,-4.7776,-4.7927,-4.7927,-4.7927,-4.7927,-4.7927,-4.8376,-4.8964,-4.8964,-4.9381,-4.9912,-4.9912,-4.9912,-4.9912,-4.9912,-4.9838,-4.9693,-4.9442,-4.9217,-4.8984,-4.8655,-4.8549,-4.844,-4.8234,-4.7862,-4.7464,-4.7075,-4.6998,-4.6998,-4.6998,-4.6998,-4.6998,-4.6998,-4.6998,-4.6998,-4.6998,-4.6998,-4.6998,-4.6998,-4.6998,-4.6998,-4.6998,-4.6998,-4.6998,-4.6998,-4.6998,-4.6998,-4.6998,-4.6998,-4.6998,-4.6998,-4.6998,-4.6998,-4.6998,-4.6998,-4.6998,-4.6998,-4.6998,-4.6998,-4.698,-4.6708,-4.659,-2.823,-3.1057,-3.4541,-3.9565,-4.308,-4.5307,-4.5307,-4.5927,-4.65,-4.65,-4.6844,0.0,0.0,0.0,0.0,0.0,0.0,0.0,0.0,0.0,0.0,0.0,0.0,0.0,0.0,0.0,0.0,0.0,0.0,0.0,0.0,0.0,0.0,0.0,0.0,0.0,-4.5254,-4.5181,-4.5148,-4.5148,-4.5148,-4.5148,-4.5167,-4.595,-4.6289,-4.6252,-4.6215,-4.643,-4.6828,-4.6828,-4.7036,-4.7397,-4.7397,-4.7397,-4.7397,-4.7397,-4.7681,-4.8079,-4.8079,-4.8344,-4.8774,-4.9191,-4.904,-4.885,-4.9665,-4.9343,-4.8753,-4.8985,-4.9008,-4.8897,-4.8693,-4.8896,-4.9097,-4.8881,-4.8458,-4.8021,-4.7759,-4.7715,-4.7695,-4.7591,-4.7442,-4.7327,-4.7249,-4.7093,-4.6998,-4.6998,-4.6998,-4.6998,-4.6998,-4.6998,-4.6998,-4.6998,-4.6998,-4.6998,-4.6998,-4.6998,-4.6998,-4.6998,-4.6998,-4.6998,-4.6998,-4.6998,-4.6998,-4.6998,-4.6998,-4.6998,-4.6998,-4.6998,-4.6998,-4.6998,-4.6865,-4.6795,-2.7428,-3.1178,-3.5515,-4.0998,-4.373,-4.5067,-4.5067,-4.5812,-4.65,-4.65,0.0,0.0,0.0,0.0,0.0,0.0,0.0,0.0,0.0,0.0,0.0,0.0,0.0,0.0,0.0,0.0,0.0,0.0,0.0,0.0,0.0,0.0,0.0,0.0,0.0,-4.5307,-4.5307,-4.5235,-4.5213,-4.5213,-4.5213,-4.5213,-4.5203,-4.5091,-4.5033,-4.5003,-4.4943,-4.5324,-4.6,-4.5988,-4.6373,-4.6961,-4.6961,-4.6961,-4.6961,-4.6961,-4.7055,-4.7188,-4.7188,-4.7283,-4.751,-4.8243,-4.7984,-4.7662,-4.9059,-4.8509,-4.7548,-4.8281,-4.849,-4.849,-4.849,-4.8983,-4.9413,-4.9175,-4.8828,-4.8525,-4.8494,-4.8495,-4.8458,-4.8272,-4.8003,-4.772,-4.7542,-4.7276,-4.7088,-4.702,-4.6998,-4.6998,-4.6998,-4.6998,-4.6998,-4.6998,-4.6998,-4.6998,-4.6998,-4.6998,-4.6998,-4.6998,-4.6998,-4.6998,-4.6998,-4.6998,-4.6998,-4.6998,-4.6998,-4.6998,-4.6998,-4.6998,-4.6998,-4.6998,-4.6998,-4.6998,-2.5166,-3.0261,-3.5935,-3.969,-4.2421,-4.4159,-4.4159,0.0,-4.65,0.0,0.0,0.0,0.0,0.0,0.0,0.0,0.0,0.0,0.0,0.0,0.0,0.0,0.0,0.0,0.0,0.0,0.0,0.0,0.0,0.0,0.0,0.0,-4.5307,-4.5307,-4.5307,0.0,-4.5307,-4.5297,-4.5286,-4.5286,-4.5286,-4.5286,-4.5286,-4.5203,-4.5148,-4.5091,-4.5022,-4.5055,-4.5169,-4.5109,-4.5141,-4.5236,-4.5236,-4.5236,-4.5236,-4.5236,-4.571,-4.6354,-4.6354,-4.6809,-4.7416,-4.7529,-4.7491,-4.7434,-4.7662,-4.7567,-4.7416,-4.7529,-4.7567,-4.7567,-4.7567,-4.7643,-4.7908,-4.8594,-4.871,-4.8648,-4.8526,-4.8495,-4.8495,-4.8458,-4.8272,-4.8041,-4.772,-4.7542,-4.7338,-4.7025,-4.6998,-4.6998,-4.6998,-4.6998,-4.6998,-4.6998,-4.6998,-4.6998,-4.6998,-4.6998,-4.6998,-4.6998,-4.6998,-4.6998,-4.6998,-4.6998,-4.6998,-4.6998,-4.6998,-4.6998,-4.6998,-4.6998,-4.6998,-4.6998,-4.6998,-4.6998,-2.6307,-3.0464,-3.4724,-3.8601,-4.1094,-4.2737,-4.3233,-4.3902,0.0,0.0,0.0,0.0,0.0,0.0,0.0,0.0,0.0,0.0,0.0,0.0,0.0,0.0,0.0,0.0,0.0,0.0,0.0,0.0,0.0,0.0,0.0,-4.5307,-4.5307,-4.5307,-4.5307,0.0,-4.5307,-4.5307,-4.5307,-4.5307,-4.5307,-4.5307,-4.5297,-4.5275,-4.5213,-4.5159,-4.5091,-4.5068,-4.5057,-4.4979,-4.4962,-4.4943,-4.4907,-4.4895,-4.4895,-4.4895,-4.5141,-4.5464,-4.5464,-4.5691,-4.607,-4.6563,-4.6392,-4.6165,-4.7112,-4.6733,-4.6108,-4.6582,-4.6733,-4.6733,-4.6733,-4.7055,-4.7491,-4.7883,-4.7978,-4.7961,-4.789,-4.8618,-4.9211,-4.8932,-4.8725,-4.8512,-4.8197,-4.8098,-4.7979,-4.7697,-4.7759,-4.7695,-4.732,-4.7349,-4.7288,-4.7025,-4.6998,-4.6998,-4.6998,-4.6998,-4.6998,-4.6998,-4.6998,-4.6998,-4.6998,-4.6998,-4.6783,-4.6337,-4.6766,-4.6998,-4.6998,-4.6998,-4.6998,-4.6998,-4.6998,-4.6998,-2.6452,-2.9359,-3.2075,-3.6077,-3.8522,-4.0252,0.0,0.0,0.0,0.0,0.0,0.0,0.0,0.0,0.0,0.0,0.0,0.0,0.0,0.0,0.0,0.0,0.0,0.0,0.0,0.0,0.0,0.0,0.0,0.0,-4.5307,-4.5307,-4.5307,-4.5307,-4.5307,-4.5307,-4.5307,-4.5307,-4.5307,-4.5307,-4.5307,-4.5307,-4.5307,-4.5307,-4.5275,-4.5213,-4.5159,-4.5125,-4.5125,-4.5038,-4.5033,-4.5014,-4.4943,-4.4938,-4.4919,-4.4907,-4.4895,-4.4895,-4.4895,-4.4895,-4.5009,-4.5653,-4.5426,-4.5122,-4.6392,-4.588,-4.5047,-4.5691,-4.5862,-4.5862,-4.5862,-4.6316,-4.6809,-4.7036,-4.7093,-4.715,-4.7359,-4.8382,-4.9167,-4.881,-4.8762,-4.8625,-4.8116,-4.8361,-4.8457,-4.8015,-4.8255,-4.8328,-4.7834,-4.784,-4.7761,-4.7417,-4.7392,-4.7327,-4.7191,-4.7169,-4.7143,-4.702,-4.6998,-4.6998,-4.6998,-4.6801,-4.6409,-4.582,-4.6195,-4.6391,-4.6391,-4.6391,-4.6498,-4.6694,-4.6694,-4.6801,-2.353,-2.5518,-2.761,-3.0958,-3.3726,-3.6243,0.0,0.0,0.0,0.0,0.0,0.0,0.0,0.0,0.0,0.0,0.0,0.0,0.0,0.0,0.0,0.0,0.0,0.0,0.0,0.0,0.0,0.0,0.0,0.0,-4.5307,-4.5307,-4.5307,-4.5307,-4.5307,-4.5307,-4.5307,-4.5307,-4.5307,-4.5307,-4.5307,-4.5307,-4.5307,-4.5307,-4.5297,-4.5297,-4.5213,-4.5192,-4.5192,-4.5125,-4.5084,-4.5091,-4.5014,-4.4991,-4.4998,-4.4919,-4.4895,-4.4895,-4.4895,-4.4895,-4.4914,-4.4952,-4.4933,-4.4914,-4.5009,-4.4971,-4.4914,-4.4952,-4.4971,-4.4971,-4.4971,-4.5009,-4.5236,-4.607,-4.6259,-4.6468,-4.7245,-4.7472,-4.7529,-4.7503,-4.8007,-4.8068,-4.6986,-4.7954,-4.8499,-4.7406,-4.796,-4.8476,-4.844,-4.8458,-4.844,-4.8421,-4.8421,-4.8234,-4.772,-4.7661,-4.7467,-4.7025,-4.6998,-4.6998,-4.6998,-4.6266,-4.5838,-4.5802,-4.5084,-4.471,-4.471,-4.471,-4.5102,-4.5856,-4.5856,-4.6266,-2.2697,-2.4082,-2.5625,-2.8456,-3.1437,-3.4079,-3.5523,0.0,0.0,0.0,0.0,0.0,0.0,0.0,0.0,0.0,0.0,0.0,0.0,0.0,0.0,0.0,0.0,0.0,0.0,0.0,0.0,0.0,0.0,0.0,-4.3692,-4.3692,-4.3692,-4.3692,-4.4208,-4.4723,-4.5288,-4.5307,-4.5307,-4.5307,-4.5307,-4.5307,-4.5307,-4.5307,-4.5307,-4.5297,-4.5256,-4.5256,-4.5265,-4.5192,-4.517,-4.5159,-4.5091,-4.5049,-4.5068,-4.4979,-4.4955,-4.4955,-4.4907,-4.4895,-4.4895,-4.4895,-4.4895,-4.4895,-4.4895,-4.4895,-4.4895,-4.4895,-4.4895,-4.4895,-4.4895,-4.4895,-4.499,-4.5293,-4.5369,-4.5445,-4.5729,-4.6639,-4.7397,-4.7397,-4.7585,-4.7632,-4.7224,-4.7589,-4.7941,-4.7972,-4.8333,-4.8662,-4.8756,-4.8864,-4.883,-4.8531,-4.8495,-4.8421,-4.8216,-4.8216,-4.8157,-4.7962,-4.7635,-4.7247,-4.6759,-4.6125,-4.5338,-4.4357,-4.4032,-4.4121,-4.4603,-4.4603,-4.4745,-4.5053,-4.557,-4.5945,-2.1682,-2.2623,-2.3964,0.0,-2.8728,-3.0587,-3.3121,0.0,0.0,0.0,0.0,0.0,0.0,0.0,0.0,0.0,0.0,0.0,0.0,0.0,0.0,0.0,0.0,0.0,0.0,0.0,0.0,0.0,0.0,0.0,-4.2794,-4.2794,-4.2794,-4.2794,-4.3329,-4.3883,-4.4456,-4.4723,-4.4857,-4.4876,-4.5163,-4.5307,-4.5307,-4.5307,-4.5307,-4.5307,-4.5307,-4.5307,-4.5297,-4.5246,-4.5224,-4.5243,-4.5159,-4.5136,-4.5125,-4.5068,-4.5026,-4.5014,-4.4955,-4.4931,-4.4919,-4.4907,-4.4895,-4.4895,-4.4895,-4.4895,-4.4895,-4.4895,-4.4895,-4.4895,-4.4895,-4.4895,-4.4895,-4.4895,-4.4895,-4.4895,-4.4895,-4.5767,-4.6563,-4.6563,-4.679,-4.6904,-4.6601,-4.7018,-4.7465,-4.7643,-4.8253,-4.8729,-4.8821,-4.9186,-4.9324,-4.8999,-4.8965,-4.8898,-4.8744,-4.8467,-4.823,-4.807,-4.7479,-4.6921,-4.641,-4.5804,-4.4969,-4.396,-4.3568,-4.3593,-4.4058,-4.3906,-4.3982,-4.4228,-4.4785,-4.532,0.0,0.0,0.0,0.0,0.0,0.0,0.0,0.0,0.0,0.0,0.0,0.0,0.0,0.0,0.0,0.0,0.0,0.0,0.0,0.0,0.0,0.0,0.0,0.0,0.0,0.0,0.0,0.0,0.0,-4.2737,-4.2737,-4.2737,-4.2737,-4.2756,-4.2756,-4.2775,-4.2794,-4.3567,-4.3968,-4.3968,-4.4819,-4.525,-4.5269,-4.5269,-4.5288,-4.5307,-4.5307,-4.5307,-4.5307,-4.5307,-4.5307,-4.5297,-4.5224,-4.5203,-4.5192,-4.5125,-4.5103,-4.5103,-4.5033,-4.4991,-4.4979,-4.4919,-4.4895,-4.4895,-4.4895,-4.4895,-4.4895,-4.4895,-4.4895,-4.4895,-4.4895,-4.4895,-4.4895,-4.4895,-4.4895,-4.4895,-4.4895,-4.4895,-4.4895,-4.4895,-4.5577,-4.588,-4.5047,-4.6241,-4.7074,-4.6297,-4.758,-4.8642,-4.8661,-4.9343,-4.9836,-4.9836,-4.9836,-4.9646,-4.9187,-4.8372,-4.7695,-4.722,-4.6465,-4.6006,-4.5969,-4.5212,-4.4769,-4.4751,-4.365,-4.3051,-4.2995,-4.2534,-4.2697,-4.3483,-4.3518,-4.4357,-2.0641,0.0,0.0,0.0,0.0,0.0,0.0,0.0,0.0,0.0,0.0,0.0,0.0,0.0,0.0,0.0,0.0,0.0,0.0,0.0,0.0,0.0,0.0,0.0,0.0,0.0,0.0,0.0,0.0,-4.0989,-4.0989,-4.0989,-4.1266,-4.1839,-4.1858,-4.2163,-4.2794,-4.3023,-4.3138,-4.3138,-4.3386,-4.3806,-4.435,-4.435,-4.4704,-4.5307,-4.5307,-4.5307,-4.5307,-4.5307,-4.5307,-4.5297,-4.5286,-4.5275,-4.5256,-4.5192,-4.517,-4.5159,-4.5103,-4.5061,-4.5049,-4.4991,-4.4967,-4.4955,-4.4907,-4.4895,-4.4895,-4.4895,-4.4895,-4.4895,-4.4895,-4.4895,-4.4895,-4.4895,-4.4895,-4.4895,-4.4895,-4.4895,-4.4895,-4.4895,-4.5085,-4.5179,-4.4933,-4.5274,-4.5729,-4.6146,-4.6582,-4.7093,-4.7694,-4.7946,-4.8079,-4.8079,-4.8079,-4.8039,-4.7913,-4.7686,-4.748,-4.7349,-4.6824,-4.6132,-4.5308,-4.4744,-4.4035,-4.3228,-4.2895,-4.2729,-4.271,-4.2528,-4.2512,-4.2662,-4.3786,-4.4856,-2.1823,-2.196,-2.2486,0.0,0.0,0.0,0.0,0.0,0.0,0.0,0.0,0.0,0.0,0.0,0.0,0.0,0.0,0.0,0.0,0.0,0.0,0.0,0.0,0.0,0.0,0.0,0.0,0.0,-4.0301,-4.0301,-4.0301,-4.0301,-4.0511,-4.0979,-4.0998,-4.1246,-4.1762,-4.2087,-4.2259,-4.2259,-4.2622,-4.3061,-4.3491,-4.3491,-4.3959,-4.4762,-4.4762,-4.4953,-4.5307,-4.5307,-4.5307,-4.5307,-4.5307,-4.5307,-4.5297,-4.5265,-4.5235,-4.5224,-4.517,-4.5148,-4.5136,-4.5049,-4.5038,-4.5026,-4.4955,-4.4931,-4.495,-4.4907,-4.4895,-4.4895,-4.4895,-4.4895,-4.4895,-4.4895,-4.4895,-4.4895,-4.4895,-4.4895,-4.4895,-4.4895,-4.4895,-4.4895,-4.4895,-4.4895,-4.5066,-4.5577,-4.5975,-4.6373,-4.6828,-4.7188,-4.7397,-4.7397,-4.7397,-4.7397,-4.7397,-4.7093,-4.6904,-4.6904,-4.631,-4.5651,-4.4986,-4.4693,-4.4249,-4.3572,-4.342,-4.3213,-4.2882,-4.2667,-4.2486,-4.2402,-4.3593,-4.4549,-2.3382,-2.3304,-2.4004,-2.5972,0.0,0.0,-2.6654,-2.6356,0.0,0.0,0.0,0.0,0.0,0.0,0.0,0.0,0.0,0.0,0.0,0.0,0.0,0.0,0.0,0.0,0.0,0.0,0.0,-4.0148,-4.0072,-4.0014,-4.0014,-4.0119,-4.0176,-4.0167,-4.0272,-4.031,-4.0301,-4.1008,-4.1361,-4.138,-4.2144,-4.2565,-4.266,-4.266,-4.31,-4.3873,-4.3968,-4.4437,-4.5163,-4.5269,-4.5307,-4.5307,-4.5307,-4.5307,-4.5307,-4.5307,-4.5307,-4.5297,-4.5224,-4.5203,-4.5192,-4.5136,-4.5114,-4.5103,-4.5026,-4.5003,-4.501,-4.4919,-4.4914,-4.4895,-4.4895,-4.4895,-4.4895,-4.4895,-4.4895,-4.4895,-4.4895,-4.4895,-4.4895,-4.4895,-4.4895,-4.4895,-4.4895,-4.4895,-4.4895,-4.4895,-4.5558,-4.6051,-4.6051,-4.6676,-4.7112,-4.7112,-4.7112,-4.7112,-4.7112,-4.6468,-4.6051,-4.6051,-4.5331,-4.4883,-4.4858,-4.4827,-4.4833,-4.4789,-4.4484,-4.3986,-4.332,-4.2825,-4.2568,-4.2521,-4.3227,-4.3878,-2.3692,-2.4608,-2.5796,-2.4238,0.0,0.0,0.0,-2.3852,0.0,0.0,0.0,0.0,0.0,0.0,0.0,0.0,0.0,0.0,0.0,0.0,0.0,0.0,0.0,0.0,0.0,0.0,-3.8613,-3.9211,-3.861,-3.8209,-3.8209,-3.8958,-3.9391,-3.9336,-4.0082,-4.0447,-4.0379,-4.0481,-4.053,-4.054,-4.0702,-4.1132,-4.1743,-4.1743,-4.2221,-4.308,-4.372,-4.4102,-4.4312,-4.501,-4.5307,-4.5307,-4.5307,-4.5307,-4.5307,-4.5307,-4.5307,-4.5297,-4.5286,-4.5286,-4.5275,-4.5203,-4.5181,-4.517,-4.5103,-4.5091,-4.508,-4.4991,-4.4931,-4.4895,-4.4895,-4.4895,-4.4895,-4.4895,-4.4895,-4.4895,-4.4895,-4.4895,-4.4895,-4.4895,-4.4895,-4.4895,-4.4895,-4.4895,-4.4895,-4.4895,-4.5047,-4.5141,-4.5141,-4.5293,-4.5388,-4.5388,-4.5388,-4.5388,-4.5388,-4.5236,-4.5141,-4.5141,-4.499,-4.4777,-4.4498,-4.4498,-4.4374,-4.4095,-4.4035,-4.3802,-4.3371,-4.2863,-4.2589,-4.2606,-4.3376,-4.3824,-2.5212,-2.5329,-2.6205,-2.5757,0.0,0.0,0.0,0.0,0.0,0.0,0.0,0.0,0.0,0.0,0.0,0.0,0.0,0.0,0.0,0.0,0.0,0.0,0.0,0.0,0.0,0.0,-3.7647,-3.8493,-3.807,-3.7816,-3.7855,-3.8266,-3.8516,-3.8554,-3.9018,-3.9444,-3.9861,-3.9842,-4.0073,-4.0508,-4.0508,-4.0719,-4.1104,-4.1104,-4.1558,-4.2376,-4.2705,-4.31,-4.3551,-4.4325,-4.4647,-4.4685,-4.5125,-4.5307,-4.5307,-4.5307,-4.5307,-4.5307,-4.5307,-4.5307,-4.5297,-4.5265,-4.5254,-4.5243,-4.517,-4.5125,-4.5103,-4.5068,-4.4991,-4.4943,-4.4943,-4.4938,-4.4895,-4.4895,-4.4895,-4.4895,-4.4895,-4.4895,-4.4895,-4.4895,-4.4895,-4.4895,-4.4895,-4.4895,-4.4895,-4.4895,-4.4895,-4.4895,-4.4895,-4.4895,-4.4895,-4.4895,-4.4895,-4.4895,-4.4895,-4.4895,-4.4895,-4.4895,-4.4895,-4.4814,-4.4668,-4.4655,-4.457,-4.4402,-4.4227,-4.408,-4.3893,-4.3473,-4.3051,-4.2706,-4.3043,-4.3418,0.0,0.0,0.0,0.0,0.0,-2.6361,0.0,0.0,0.0,0.0,0.0,0.0,0.0,0.0,0.0,0.0,0.0,0.0,0.0,0.0,0.0,0.0,0.0,0.0,0.0,0.0,-3.6105,-3.7037,-3.6832,-3.6855,-3.7276,-3.7523,-3.7695,-3.7795,-3.7977,-3.8394,-3.9084,-3.9307,-3.9751,-4.0448,-4.0623,-4.0694,-4.0694,-4.0694,-4.1061,-4.1661,-4.1716,-4.2136,-4.2832,-4.355,-4.3858,-4.3944,-4.4926,-4.5307,-4.5307,-4.5307,-4.5307,-4.5307,-4.5307,-4.5307,-4.5307,-4.5307,-4.5307,-4.5297,-4.5243,-4.517,-4.5125,-4.5125,-4.508,-4.5014,-4.5014,-4.4967,-4.495,-4.4919,-4.4919,-4.4926,-4.4895,-4.4895,-4.4895,-4.4895,-4.4895,-4.4895,-4.4895,-4.4895,-4.4895,-4.4895,-4.4895,-4.4895,-4.4895,-4.4895,-4.4895,-4.4895,-4.4895,-4.4895,-4.4895,-4.4895,-4.4895,-4.4895,-4.4895,-4.4895,-4.4895,-4.4895,-4.4895,-4.4895,-4.4623,-4.4471,-4.4397,-4.414,-4.3656,-4.3013,-4.2901,-4.3207,0.0,0.0,0.0,0.0,-3.0317,0.0,0.0,0.0,0.0,0.0,0.0,0.0,0.0,0.0,0.0,0.0,0.0,0.0,0.0,0.0,0.0,0.0,0.0,0.0,0.0,0.0,0.0,-3.3417,-3.2756,-3.3016,-3.4632,-3.6227,-3.7098,-3.7114,-3.7853,-3.827,-3.8321,-3.9035,-3.9447,-3.9563,-4.0339,-4.0694,-4.0694,-4.0694,-4.0752,-4.0887,-4.1577,-4.1931,-4.2085,-4.2934,-4.3294,-4.3419,-4.4768,-4.5307,-4.5307,-4.5307,-4.5307,-4.5307,-4.5307,-4.5307,-4.5307,-4.5307,-4.5307,-4.5297,-4.5297,-4.5235,-4.5181,-4.5181,-4.5148,-4.5091,-4.5091,-4.5091,-4.5049,-4.4991,-4.4998,-4.4967,-4.4907,-4.4895,-4.4895,-4.4895,-4.4895,-4.4895,-4.4895,-4.4895,-4.4895,-4.4895,-4.4895,-4.4895,-4.4895,-4.4895,-4.4895,-4.4895,-4.4895,-4.4895,-4.4895,-4.4895,-4.4895,-4.4895,-4.4895,-4.4895,-4.4895,-4.4895,-4.4895,-4.4895,-4.487,-4.4694,-4.4397,-4.4355,-4.4154,-4.377,-4.377,-4.3791,0.0,0.0,0.0,0.0,0.0,0.0,0.0,0.0,-2.603,0.0,0.0,0.0,0.0,0.0,0.0,0.0,0.0,0.0,0.0,0.0,0.0,0.0,0.0,0.0,0.0,0.0,0.0,0.0,0.0,-3.1805,-3.3611,-3.4854,-3.5741,-3.6293,-3.6706,-3.7131,-3.7614,-3.7987,-3.8661,-3.9634,-3.9995,-4.0434,-4.093,-4.093,-4.093,-4.0945,-4.1212,-4.1316,-4.1369,-4.2125,-4.246,-4.2543,-4.3647,-4.432,-4.471,-4.5138,-4.5307,-4.5307,-4.5307,-4.5307,-4.5307,-4.5307,-4.5307,-4.5307,-4.5307,-4.5286,-4.5265,-4.5265,-4.5203,-4.5159,-4.5159,-4.5136,-4.5103,-4.5049,-4.5068,-4.5045,-4.4967,-4.4955,-4.4943,-4.4907,-4.4895,-4.4895,-4.4895,-4.4895,-4.4895,-4.4895,-4.4895,-4.4895,-4.4895,-4.4895,-4.4895,-4.4895,-4.4895,-4.4895,-4.4895,-4.4895,-4.4895,-4.4895,-4.4895,-4.4895,-4.4895,-4.4895,-4.4895,-4.4895,-4.4895,-4.4827,-4.4694,-4.4694,-4.4629,-4.4476,-4.408,-4.3896,-3.2718,0.0,0.0,0.0,0.0,0.0,0.0,0.0,0.0,0.0,0.0,0.0,0.0,0.0,0.0,0.0,0.0,0.0,0.0,0.0,0.0,0.0,0.0,0.0,0.0,0.0,0.0,0.0,0.0,0.0,-3.2496,-3.3582,-3.4554,-3.546,-3.5785,-3.6231,-3.6865,-3.716,-3.7901,-3.9114,-3.934,-3.9898,-4.0743,-4.074,-4.0874,-4.1088,-4.0992,-4.0948,-4.0997,-4.1479,-4.1673,-4.177,-4.2582,-4.3201,-4.374,-4.4726,-4.5227,-4.5391,-4.537,-4.5329,-4.5307,-4.5307,-4.5307,-4.5307,-4.5307,-4.5307,-4.5307,-4.5307,-4.5256,-4.5224,-4.5224,-4.5192,-4.5148,-4.5136,-4.5125,-4.5114,-4.5038,-4.5033,-4.5022,-4.4931,-4.4919,-4.4919,-4.4895,-4.4895,-4.4895,-4.4895,-4.4895,-4.4895,-4.4895,-4.4895,-4.4895,-4.4895,-4.4895,-4.4895,-4.4895,-4.4895,-4.4895,-4.4895,-4.4895,-4.4895,-4.4895,-4.4895,-4.4895,-4.4895,-4.4895,-4.4895,-4.4895,-4.4895,-4.4895,-4.4883,-4.4402,-4.4169,0.0,0.0,0.0,-3.1622,0.0,0.0,0.0,0.0,-2.7665,0.0,0.0,0.0,0.0,0.0,-2.4082,-2.3246,0.0,0.0,0.0,0.0,0.0,0.0,0.0,0.0,0.0,0.0,0.0,0.0,0.0,0.0,-3.0699,-3.25,-3.3838,-3.4716,-3.5554,-3.601,-3.6049,-3.6881,-3.7324,-3.7383,-3.8181,-3.9006,-3.9842,-3.985,-4.0292,-4.1107,-4.1107,-4.1085,-4.1104,-4.1124,-4.112,-4.1192,-4.1878,-4.2145,-4.2363,-4.395,-4.5032,-4.5667,-4.5549,-4.5419,-4.5307,-4.5307,-4.5307,-4.5307,-4.5307,-4.5307,-4.5307,-4.5307,-4.5297,-4.5297,-4.5297,-4.5297,-4.5286,-4.5203,-4.5192,-4.5181,-4.5114,-4.5103,-4.508,-4.5003,-4.501,-4.4986,-4.4907,-4.4895,-4.4895,-4.4895,-4.4895,-4.4895,-4.4895,-4.4895,-4.4895,-4.4895,-4.4895,-4.4895,-4.4895,-4.4895,-4.4895,-4.4895,-4.4895,-4.4895,-4.4895,-4.4895,-4.4895,-4.4895,-4.4895,-4.4895,-4.4895,-4.4895,-4.4895,-4.4895,-4.487,-4.487,0.0,0.0,-3.5412,-3.31,0.0,0.0,0.0,0.0,0.0,0.0,0.0,0.0,0.0,0.0,-2.4296,-2.4004,-2.2992,-2.2038,0.0,0.0,0.0,0.0,0.0,0.0,0.0,0.0,0.0,0.0,0.0,0.0,0.0,-3.104,-3.2613,-3.4642,-3.4991,-3.5428,-3.5992,-3.6282,-3.6726,-3.7304,-3.7572,-3.8148,-3.8958,-3.953,-3.9953,-4.0265,-4.086,-4.1107,-4.1107,-4.1107,-4.1107,-4.1127,-4.1349,-4.1766,-4.2412,-4.3936,-4.4671,-4.4981,-4.5452,-4.5592,-4.5539,-4.5455,-4.5438,-4.5429,-4.5329,-4.5307,-4.5307,-4.5307,-4.5307,-4.5307,-4.5307,-4.5307,-4.5297,-4.5275,-4.5275,-4.5254,-4.5181,-4.517,-4.5148,-4.5091,-4.5068,-4.5068,-4.5045,-4.5026,-4.4991,-4.4907,-4.4895,-4.4895,-4.4895,-4.4895,-4.4895,-4.4895,-4.4895,-4.4895,-4.4895,-4.4895,-4.4895,-4.4895,-4.4895,-4.4895,-4.4895,-4.4895,-4.4895,-4.4895,-4.4895,-4.4895,-4.4895,-4.4895,-4.4895,-4.4895,-4.4895,-4.4895,-3.5949,-3.596,0.0,0.0,-3.2539,0.0,-2.8747,0.0,0.0,0.0,0.0,0.0,0.0,0.0,-2.4863,-2.4868,-2.3403,-2.2057,0.0,0.0,0.0,0.0,0.0,0.0,0.0,0.0,-2.3867,-2.4783,0.0,0.0,0.0,0.0,-3.1384,-3.3706,-3.4386,-3.5115,-3.5992,-3.5992,-3.6282,-3.6842,-3.6838,-3.7264,-3.8094,-3.8629,-3.9207,-3.9833,-4.0388,-4.0811,-4.11,-4.11,-4.1094,-4.111,-4.1097,-4.1425,-4.2013,-4.3253,-4.4089,-4.4692,-4.5531,-4.577,-4.5689,-4.5603,-4.5549,-4.5472,-4.54,-4.535,-4.5307,-4.5307,-4.5307,-4.5307,-4.5307,-4.5307,-4.5307,-4.5307,-4.5307,-4.5297,-4.5235,-4.5243,-4.5233,-4.5148,-4.5136,-4.5125,-4.5095,-4.5103,-4.5049,-4.4943,-4.495,-4.4919,-4.4895,-4.4895,-4.4895,-4.4895,-4.4895,-4.4895,-4.4895,-4.4895,-4.4895,-4.4895,-4.4895,-4.4895,-4.4895,-4.4895,-4.4895,-4.4895,-4.4895,-4.4895,-4.4895,-4.4895,-4.4895,-4.4895,-4.4895,-4.4895]},{"header":{"parameterUnit":"m.s-1","parameterCategory":1,"la1":30.6,"la2":29.2853,"lo1":-89.7004,"lo2":-87.6739,"dy":0.0162,"dx":0.0183,"nx":112,"ny":82,"refTime":"2024-06-20T12:00:00:Z","depth":0,"parameterNumber":3,"parameterNumberName":"V-component_of_WINDS"},"data":[0.0,0.0,0.0,0.0,0.0,0.0,0.0,0.0,0.0,0.0,0.0,0.0,0.0,0.0,0.0,0.0,0.0,0.0,0.0,0.0,0.0,0.0,0.0,0.0,0.0,0.0,0.0,0.0,0.0,0.0,0.0,0.0,0.0,0.0,0.0,0.0,0.0,0.0,0.0,0.0,0.0,0.0,0.0,0.0,0.0,0.0,0.0,0.0,0.0,0.0,0.0,0.0,0.0,0.0,0.0,0.0,0.0,0.0,0.0,0.0,0.0,0.0,0.0,0.0,0.0,0.0,0.0,0.0,0.0,0.0,0.0,0.0,0.0,0.0,0.0,0.0,0.0,0.0,0.0,0.0,0.0,0.0,0.0,0.0,0.0,0.0,0.0,0.0,0.0,0.0,0.0,-2.4836,-2.7316,-2.8803,-2.8803,-2.8244,-2.6475,-2.3209,0.0,0.0,0.0,0.0,0.0,0.0,0.0,0.0,0.0,0.0,0.0,0.0,0.0,0.0,0.0,0.0,0.0,0.0,0.0,0.0,0.0,0.0,0.0,0.0,0.0,0.0,0.0,0.0,0.0,0.0,0.0,0.0,0.0,0.0,0.0,0.0,0.0,0.0,0.0,0.0,0.0,0.0,0.0,0.0,0.0,0.0,0.0,0.0,0.0,0.0,0.0,0.0,0.0,0.0,0.0,0.0,0.0,0.0,0.0,0.0,0.0,0.0,0.0,0.0,0.0,0.0,0.0,0.0,0.0,0.0,0.0,0.0,0.0,0.0,0.0,0.0,0.0,0.0,0.0,0.0,0.0,0.0,0.0,0.0,0.0,0.0,0.0,0.0,0.0,0.0,0.0,0.0,0.0,0.0,0.0,0.0,0.0,0.0,0.0,0.0,0.0,0.0,0.0,0.0,-2.3187,-2.7042,-2.8254,-2.8803,-2.8803,-2.7938,-2.6157,-2.3187,0.0,0.0,0.0,0.0,0.0,0.0,0.0,0.0,0.0,0.0,0.0,0.0,0.0,0.0,0.0,0.0,0.0,0.0,0.0,0.0,0.0,0.0,0.0,0.0,0.0,0.0,0.0,0.0,0.0,0.0,0.0,0.0,0.0,0.0,0.0,0.0,0.0,0.0,0.0,0.0,0.0,0.0,0.0,0.0,0.0,0.0,0.0,0.0,0.0,0.0,0.0,0.0,0.0,0.0,0.0,0.0,0.0,0.0,0.0,0.0,0.0,0.0,0.0,0.0,0.0,0.0,0.0,0.0,0.0,0.0,0.0,0.0,0.0,0.0,0.0,0.0,0.0,0.0,0.0,0.0,0.0,0.0,0.0,0.0,0.0,0.0,0.0,0.0,0.0,0.0,0.0,0.0,0.0,0.0,0.0,0.0,0.0,0.0,0.0,0.0,0.0,0.0,0.0,-2.2761,-2.4519,-2.8047,-2.8672,-2.8803,-2.8803,-2.7872,-2.6081,-2.3187,-2.1625,0.0,0.0,0.0,0.0,0.0,0.0,0.0,0.0,0.0,0.0,0.0,0.0,0.0,0.0,0.0,0.0,0.0,0.0,0.0,0.0,0.0,0.0,0.0,0.0,0.0,0.0,0.0,0.0,0.0,0.0,0.0,0.0,0.0,0.0,0.0,0.0,0.0,0.0,0.0,0.0,0.0,0.0,0.0,0.0,0.0,0.0,0.0,0.0,0.0,0.0,0.0,0.0,0.0,0.0,0.0,0.0,0.0,0.0,0.0,0.0,0.0,0.0,0.0,0.0,0.0,0.0,0.0,0.0,0.0,0.0,0.0,0.0,0.0,0.0,0.0,0.0,0.0,0.0,0.0,0.0,0.0,0.0,0.0,0.0,0.0,0.0,0.0,0.0,0.0,0.0,0.0,0.0,0.0,0.0,0.0,0.0,0.0,0.0,0.0,0.0,0.0,0.0,-2.4945,-2.6081,-2.8541,-2.8803,-2.8803,-2.8803,-2.7555,-2.5762,-2.3229,-2.095,0.0,0.0,0.0,0.0,0.0,0.0,0.0,0.0,0.0,0.0,0.0,0.0,0.0,0.0,0.0,0.0,0.0,0.0,0.0,0.0,0.0,0.0,0.0,0.0,0.0,0.0,0.0,0.0,0.0,0.0,0.0,0.0,0.0,0.0,0.0,0.0,0.0,0.0,0.0,0.0,0.0,0.0,0.0,0.0,0.0,0.0,0.0,0.0,0.0,0.0,0.0,0.0,0.0,0.0,0.0,0.0,0.0,0.0,0.0,0.0,0.0,0.0,0.0,0.0,0.0,0.0,0.0,0.0,0.0,0.0,0.0,0.0,0.0,0.0,0.0,0.0,0.0,0.0,0.0,0.0,0.0,0.0,0.0,0.0,0.0,0.0,0.0,0.0,0.0,0.0,0.0,0.0,0.0,0.0,0.0,0.0,0.0,0.0,0.0,0.0,0.0,0.0,-2.5469,-2.7534,-2.8683,-2.8803,-2.8803,-2.8803,-2.6692,-2.4781,-2.3461,-2.0242,0.0,0.0,0.0,0.0,0.0,0.0,0.0,0.0,0.0,0.0,0.0,0.0,0.0,0.0,0.0,0.0,0.0,0.0,0.0,0.0,0.0,0.0,0.0,0.0,0.0,0.0,0.0,0.0,0.0,0.0,0.0,0.0,0.0,0.0,0.0,0.0,0.0,0.0,0.0,0.0,0.0,0.0,0.0,0.0,0.0,0.0,0.0,0.0,0.0,0.0,0.0,0.0,0.0,0.0,0.0,0.0,0.0,0.0,0.0,0.0,0.0,0.0,0.0,0.0,0.0,0.0,0.0,0.0,0.0,0.0,0.0,0.0,0.0,0.0,0.0,0.0,0.0,0.0,0.0,0.0,0.0,0.0,0.0,0.0,0.0,0.0,0.0,0.0,0.0,0.0,0.0,0.0,0.0,0.0,0.0,0.0,0.0,0.0,0.0,0.0,0.0,0.0,-2.4749,-2.6693,0.0,-2.8803,-2.8803,-2.8803,-2.7108,-2.5318,-2.3494,0.0,0.0,0.0,0.0,0.0,0.0,0.0,0.0,0.0,0.0,0.0,0.0,0.0,0.0,0.0,0.0,0.0,0.0,0.0,0.0,0.0,0.0,0.0,0.0,0.0,0.0,0.0,0.0,0.0,0.0,0.0,0.0,0.0,0.0,0.0,0.0,0.0,0.0,0.0,0.0,0.0,0.0,0.0,0.0,0.0,0.0,0.0,0.0,0.0,0.0,0.0,0.0,0.0,0.0,0.0,0.0,0.0,0.0,0.0,0.0,0.0,0.0,0.0,0.0,0.0,0.0,0.0,0.0,0.0,0.0,0.0,0.0,0.0,0.0,0.0,0.0,0.0,0.0,0.0,0.0,0.0,0.0,0.0,0.0,0.0,0.0,0.0,0.0,0.0,0.0,0.0,0.0,0.0,0.0,0.0,0.0,0.0,0.0,0.0,0.0,0.0,0.0,-2.263,-2.4672,-2.6594,0.0,-2.8803,-2.8738,-2.8538,-2.6944,-2.5139,-2.3195,0.0,0.0,0.0,0.0,0.0,0.0,0.0,0.0,0.0,0.0,0.0,0.0,0.0,0.0,0.0,0.0,0.0,0.0,0.0,0.0,0.0,0.0,0.0,0.0,0.0,0.0,0.0,0.0,0.0,0.0,0.0,0.0,0.0,0.0,0.0,0.0,0.0,0.0,0.0,0.0,0.0,0.0,0.0,0.0,0.0,0.0,0.0,0.0,0.0,0.0,0.0,0.0,0.0,0.0,0.0,0.0,0.0,0.0,0.0,0.0,0.0,0.0,0.0,0.0,0.0,0.0,0.0,0.0,0.0,0.0,0.0,0.0,0.0,0.0,0.0,0.0,0.0,0.0,0.0,0.0,0.0,0.0,0.0,0.0,0.0,0.0,0.0,0.0,0.0,0.0,0.0,0.0,0.0,0.0,0.0,0.0,0.0,0.0,0.0,0.0,0.0,0.0,-2.2761,-2.5524,-2.7687,-2.8694,-2.8803,-2.856,-2.8034,-2.5874,-2.3896,0.0,0.0,0.0,0.0,0.0,0.0,0.0,0.0,0.0,0.0,0.0,0.0,0.0,0.0,0.0,0.0,0.0,0.0,0.0,0.0,0.0,0.0,0.0,0.0,0.0,0.0,0.0,0.0,0.0,0.0,0.0,0.0,0.0,0.0,0.0,0.0,0.0,0.0,0.0,0.0,0.0,0.0,0.0,0.0,0.0,0.0,0.0,0.0,0.0,0.0,0.0,0.0,0.0,0.0,0.0,0.0,0.0,0.0,0.0,0.0,0.0,0.0,0.0,0.0,0.0,0.0,0.0,0.0,0.0,0.0,0.0,0.0,0.0,0.0,0.0,0.0,0.0,0.0,0.0,0.0,0.0,0.0,0.0,0.0,0.0,0.0,0.0,0.0,0.0,0.0,0.0,0.0,0.0,0.0,0.0,0.0,0.0,0.0,0.0,0.0,0.0,0.0,0.0,-2.2706,-2.5524,-2.7687,-2.8694,-2.8803,-2.856,-2.8034,-2.6474,-2.4524,-2.2259,0.0,0.0,0.0,0.0,0.0,0.0,0.0,0.0,0.0,0.0,0.0,0.0,0.0,0.0,0.0,0.0,0.0,0.0,0.0,0.0,0.0,0.0,0.0,0.0,0.0,0.0,0.0,0.0,0.0,0.0,0.0,0.0,0.0,0.0,0.0,0.0,0.0,0.0,0.0,0.0,0.0,0.0,0.0,0.0,0.0,0.0,0.0,0.0,0.0,0.0,0.0,0.0,0.0,0.0,0.0,0.0,0.0,0.0,0.0,0.0,0.0,0.0,0.0,0.0,0.0,0.0,0.0,0.0,0.0,0.0,0.0,0.0,0.0,0.0,0.0,0.0,0.0,0.0,0.0,0.0,0.0,0.0,0.0,0.0,0.0,0.0,0.0,0.0,0.0,0.0,0.0,0.0,0.0,0.0,0.0,0.0,0.0,0.0,0.0,0.0,0.0,0.0,-2.2567,-2.5486,-2.761,-2.8386,-2.8473,-2.8276,-2.774,-2.6616,-2.4704,-2.1864,0.0,0.0,0.0,0.0,0.0,0.0,0.0,0.0,0.0,0.0,0.0,0.0,0.0,0.0,0.0,0.0,0.0,0.0,0.0,0.0,0.0,0.0,0.0,0.0,0.0,0.0,0.0,0.0,0.0,0.0,0.0,0.0,0.0,0.0,0.0,0.0,0.0,0.0,0.0,0.0,0.0,0.0,0.0,0.0,0.0,0.0,0.0,0.0,0.0,0.0,0.0,0.0,0.0,0.0,0.0,0.0,0.0,0.0,0.0,0.0,0.0,0.0,0.0,0.0,0.0,0.0,0.0,0.0,0.0,0.0,0.0,0.0,0.0,0.0,0.0,0.0,0.0,0.0,0.0,0.0,0.0,0.0,0.0,0.0,0.0,0.0,0.0,0.0,0.0,0.0,0.0,0.0,0.0,0.0,0.0,0.0,0.0,0.0,0.0,0.0,0.0,0.0,-2.2373,-2.5348,-2.7391,-2.7871,-2.7925,-2.7729,-2.7293,-2.642,-2.4577,-2.1518,0.0,0.0,0.0,0.0,0.0,0.0,0.0,0.0,0.0,0.0,0.0,0.0,0.0,0.0,0.0,0.0,0.0,0.0,0.0,0.0,0.0,0.0,0.0,0.0,0.0,0.0,0.0,0.0,0.0,0.0,0.0,0.0,0.0,0.0,0.0,0.0,0.0,0.0,0.0,0.0,0.0,0.0,0.0,0.0,0.0,0.0,0.0,0.0,0.0,0.0,0.0,0.0,0.0,0.0,0.0,0.0,0.0,0.0,0.0,0.0,-1.7079,0.0,0.0,0.0,0.0,0.0,0.0,0.0,0.0,0.0,0.0,0.0,0.0,0.0,0.0,0.0,0.0,0.0,0.0,0.0,0.0,0.0,0.0,0.0,0.0,0.0,0.0,0.0,0.0,0.0,0.0,0.0,0.0,0.0,0.0,0.0,0.0,0.0,0.0,0.0,0.0,0.0,-2.2122,-2.4923,-2.6911,-2.7413,-2.7468,-2.7282,-2.6769,-2.6245,-2.4792,-2.2243,0.0,0.0,0.0,0.0,0.0,0.0,0.0,0.0,0.0,0.0,0.0,0.0,0.0,0.0,0.0,0.0,0.0,0.0,0.0,0.0,0.0,0.0,0.0,0.0,0.0,0.0,0.0,0.0,0.0,0.0,0.0,0.0,0.0,0.0,0.0,0.0,0.0,0.0,0.0,0.0,0.0,0.0,0.0,0.0,0.0,0.0,0.0,0.0,0.0,0.0,0.0,0.0,0.0,0.0,0.0,0.0,0.0,0.0,0.0,0.0,0.0,-1.8473,0.0,0.0,0.0,0.0,0.0,0.0,0.0,0.0,0.0,0.0,0.0,0.0,0.0,0.0,0.0,0.0,0.0,0.0,0.0,0.0,0.0,0.0,0.0,0.0,0.0,0.0,0.0,0.0,0.0,0.0,0.0,0.0,0.0,0.0,0.0,0.0,0.0,0.0,0.0,0.0,-2.1921,-2.4774,-2.6671,-2.6955,-2.6944,-2.6846,-2.6606,-2.6179,-2.5065,-2.3084,-2.1579,0.0,0.0,0.0,0.0,0.0,0.0,0.0,0.0,0.0,0.0,0.0,0.0,0.0,0.0,0.0,0.0,0.0,0.0,0.0,0.0,0.0,0.0,0.0,0.0,0.0,0.0,0.0,0.0,0.0,0.0,0.0,0.0,0.0,0.0,0.0,0.0,0.0,0.0,0.0,0.0,0.0,0.0,0.0,0.0,0.0,0.0,0.0,0.0,0.0,0.0,0.0,0.0,0.0,0.0,-2.3088,-2.2694,-2.2394,-2.1914,-2.1337,-2.1173,-2.1059,-2.095,0.0,0.0,0.0,0.0,0.0,0.0,0.0,0.0,0.0,0.0,0.0,0.0,0.0,0.0,0.0,0.0,0.0,0.0,0.0,0.0,0.0,0.0,0.0,0.0,0.0,-2.3165,-2.2936,0.0,0.0,0.0,0.0,0.0,0.0,0.0,0.0,0.0,0.0,0.0,0.0,-2.195,-2.4682,-2.6464,-2.6464,-2.6464,-2.6464,-2.6464,-2.6136,-2.5349,-2.4022,-2.2853,-2.1406,0.0,0.0,0.0,0.0,0.0,0.0,0.0,0.0,0.0,0.0,0.0,0.0,0.0,0.0,0.0,0.0,0.0,0.0,0.0,0.0,0.0,0.0,0.0,0.0,0.0,0.0,0.0,0.0,0.0,0.0,0.0,0.0,-1.2107,-1.2727,0.0,0.0,0.0,0.0,0.0,0.0,0.0,0.0,0.0,0.0,0.0,0.0,0.0,0.0,-2.3505,-2.4769,-2.5117,-2.469,-2.5868,-2.5912,-2.5052,-2.4996,-2.4859,-2.469,-2.4629,0.0,-2.0002,-1.9409,0.0,0.0,0.0,0.0,0.0,0.0,0.0,0.0,0.0,0.0,0.0,0.0,0.0,0.0,0.0,0.0,0.0,0.0,0.0,0.0,0.0,0.0,-2.524,-2.488,-2.5164,-2.5317,0.0,-2.2535,-2.0544,-1.978,0.0,0.0,0.0,0.0,0.0,0.0,0.0,0.0,-2.2666,-2.4712,-2.5994,-2.5994,-2.5994,-2.5994,-2.5994,-2.5939,-2.5633,-2.5022,-2.4017,-2.2871,-2.1574,-1.9282,0.0,0.0,0.0,0.0,0.0,0.0,0.0,0.0,0.0,0.0,0.0,0.0,0.0,0.0,0.0,0.0,0.0,0.0,0.0,0.0,0.0,0.0,0.0,0.0,0.0,0.0,0.0,0.0,0.0,-1.2833,-1.4475,-1.4198,-1.5218,-1.5687,0.0,0.0,0.0,0.0,0.0,0.0,0.0,0.0,0.0,-2.3981,-2.4519,-2.5223,-2.6144,-2.6993,-2.7403,-2.741,-2.7996,-2.8004,-2.738,-2.7204,-2.6974,-2.6682,-2.5586,-2.4175,-2.2613,-2.1553,-2.1118,-2.1099,0.0,0.0,0.0,0.0,0.0,-2.3372,-2.4443,0.0,0.0,0.0,0.0,0.0,0.0,0.0,0.0,0.0,0.0,0.0,0.0,0.0,0.0,-2.5917,-2.595,-2.5917,-2.5983,-2.4781,-2.3307,0.0,-2.1407,-2.0391,-1.813,0.0,0.0,0.0,0.0,0.0,-2.3296,-2.4869,-2.5895,-2.5895,-2.5895,-2.5895,-2.5895,-2.5895,-2.5808,-2.56,-2.4923,-2.4045,-2.2974,-2.1251,-1.9465,0.0,0.0,0.0,0.0,0.0,0.0,0.0,0.0,0.0,0.0,0.0,0.0,0.0,0.0,0.0,0.0,0.0,0.0,0.0,0.0,0.0,0.0,0.0,0.0,0.0,0.0,0.0,0.0,-1.4422,-1.5877,-1.5418,-1.6864,-1.7515,0.0,0.0,0.0,0.0,0.0,0.0,-2.3308,-2.3919,-2.4861,-2.6227,-2.692,-2.7707,-2.8618,-2.897,-2.9373,-2.9829,-2.9829,-2.9748,-2.9535,-2.9272,-2.8803,-2.808,-2.6256,-2.5235,-2.4789,-2.3213,-2.2309,-2.1877,-2.1825,-2.1902,-2.2269,-2.4367,-2.5047,-2.5168,-2.6737,-2.7086,-2.654,-2.5221,0.0,-2.3766,-2.1939,0.0,0.0,0.0,0.0,-2.394,-2.4814,0.0,-2.5906,-2.6627,-2.6441,-2.6179,-2.6508,-2.6245,-2.5469,0.0,-2.3646,-2.2794,-2.0391,0.0,0.0,0.0,0.0,-2.3405,-2.4017,-2.5153,-2.5895,-2.5895,-2.5895,-2.5895,-2.5895,-2.5895,-2.5852,-2.5721,-2.5371,-2.4738,-2.3727,-2.26,-2.103,-1.8885,0.0,0.0,0.0,0.0,0.0,0.0,0.0,0.0,0.0,0.0,0.0,0.0,0.0,0.0,0.0,0.0,0.0,0.0,0.0,0.0,0.0,0.0,0.0,0.0,0.0,0.0,0.0,0.0,0.0,-1.5983,-1.7817,0.0,0.0,0.0,0.0,-2.1549,-2.2941,-2.4354,-2.5637,-2.6615,-2.7734,-2.9052,-2.9145,-2.9611,-3.0532,-3.0574,-3.0812,-3.1267,-3.1267,-3.1298,-3.1285,-3.1264,-3.0342,-2.8797,-2.7585,-2.6194,-2.4663,-2.2805,-2.2452,-2.309,-2.2988,-2.3567,-2.4652,-2.5704,-2.612,-2.6243,-2.7006,-2.7293,-2.7337,-2.7664,-2.6594,-2.5117,-2.4996,-2.3973,0.0,0.0,-2.5022,-2.5874,-2.6387,-2.6824,-2.7217,-2.7261,-2.6933,-2.6551,-2.6584,-2.6245,-2.5874,0.0,-2.5382,-2.4727,-2.3618,0.0,-2.2837,-2.2794,-2.3307,-2.4039,-2.5018,-2.5568,-2.5895,-2.5895,-2.5895,-2.5895,-2.5895,-2.5895,-2.5699,-2.5281,-2.5226,-2.4738,-2.3727,-2.2794,-2.1675,-2.0408,-1.8531,0.0,0.0,0.0,0.0,0.0,0.0,0.0,0.0,0.0,0.0,0.0,0.0,0.0,0.0,0.0,0.0,0.0,0.0,0.0,0.0,0.0,0.0,0.0,0.0,0.0,0.0,0.0,0.0,-1.8473,-1.9133,0.0,0.0,-2.1486,-2.2912,-2.3801,-2.5476,-2.6951,-2.8028,-2.868,-2.9384,-3.017,-3.0481,-3.0801,-3.1122,-3.1133,-3.136,-3.1805,-3.1805,-3.1961,-3.225,-3.225,-3.1451,-3.006,-2.8624,-2.7086,-2.5446,-2.3666,-2.2901,-2.2852,-2.3591,-2.4097,-2.4532,-2.5974,-2.6472,-2.65,-2.7245,-2.7477,-2.7547,-2.7898,-2.7359,-2.6551,-2.6551,-2.619,-2.5852,-2.6201,-2.6551,-2.6846,-2.7031,-2.7184,-2.7315,-2.7315,-2.7184,-2.7064,-2.7064,-2.6704,-2.6376,-2.6376,-2.5972,-2.524,-2.3913,-2.4366,-2.4552,-2.3575,-2.4421,-2.5251,-2.559,-2.5797,-2.5895,-2.5895,-2.5895,-2.5895,-2.5895,-2.5611,-2.5401,-2.5226,-2.4585,-2.3951,-2.3285,-2.2652,-2.1518,-1.983,-1.9154,-1.7802,0.0,0.0,0.0,0.0,0.0,0.0,0.0,0.0,0.0,0.0,0.0,0.0,0.0,0.0,0.0,0.0,0.0,0.0,0.0,0.0,0.0,0.0,0.0,0.0,0.0,0.0,-1.8759,-1.9414,-2.032,-2.1026,-2.1288,-2.3026,-2.4488,-2.5276,-2.7013,-2.832,-2.908,-2.999,-3.0667,-3.1133,-3.1443,-3.1681,-3.1836,-3.1836,-3.1981,-3.2215,-3.2215,-3.238,-3.2669,-3.2669,-3.1937,-3.046,-2.8924,-2.7301,-2.566,-2.4007,-2.3093,-2.2735,-2.366,-2.4202,-2.4675,-2.6179,-2.6953,-2.7316,-2.7978,-2.8162,-2.8017,-2.8191,-2.7949,-2.7555,-2.7555,-2.7446,-2.7315,-2.7315,-2.7424,-2.7555,-2.7555,-2.7676,-2.7796,-2.7796,-2.7676,-2.7555,-2.7555,-2.7151,-2.6769,-2.6617,-2.6234,-2.56,-2.4628,-2.5262,-2.5579,-2.4607,-2.5284,-2.5895,-2.5895,-2.5895,-2.5895,-2.5895,-2.5895,-2.5895,-2.5895,-2.5448,-2.515,-2.4956,-2.4181,-2.34,-2.2794,-2.2324,-2.1343,-1.984,-1.9576,-1.8719,-1.7279,0.0,0.0,0.0,0.0,0.0,0.0,0.0,0.0,0.0,0.0,0.0,0.0,0.0,0.0,0.0,0.0,0.0,0.0,0.0,0.0,0.0,0.0,0.0,-1.6524,-1.745,-1.8326,-1.8775,-2.1324,-2.2722,-2.1848,-2.4299,-2.5927,-2.578,-2.7283,-2.8403,-2.8807,-3.0468,-3.1598,-3.1932,-3.2019,-3.2235,-3.2633,-3.2711,-3.2721,-3.2721,-3.2721,-3.2721,-3.2721,-3.2711,-3.1758,-3.0034,-2.8558,-2.6942,-2.5204,-2.3731,-2.3078,-2.3095,-2.3233,-2.3996,-2.5165,-2.6399,-2.7622,-2.8713,-2.9268,-2.9194,-2.8836,-2.8825,-2.8462,-2.8034,-2.8023,-2.773,-2.7359,-2.7359,-2.7653,-2.8012,-2.8012,-2.8407,-2.8803,-2.8803,-2.8396,-2.8012,-2.8012,-2.7631,-2.7206,-2.6715,-2.6267,-2.5917,-2.5895,-2.5895,-2.5895,-2.5895,-2.5895,0.0,-2.5895,-2.5895,-2.5895,-2.5895,-2.5895,-2.5895,-2.5895,-2.5478,-2.4996,-2.4497,-2.3962,-2.3215,-2.2335,-2.1832,-2.1293,-2.0616,-1.9759,-1.9634,-2.0229,0.0,0.0,0.0,0.0,0.0,0.0,0.0,0.0,0.0,0.0,0.0,0.0,0.0,0.0,0.0,0.0,0.0,0.0,0.0,0.0,0.0,0.0,-1.6974,-1.7975,-1.8611,-1.9685,-2.1502,-2.1674,-2.2073,-2.3289,-2.4624,-2.5405,-2.532,-2.7647,-2.9244,-2.9739,-3.1096,-3.1605,-3.1164,-3.237,-3.2653,-3.1839,-3.3054,-3.3699,-3.3699,-3.3699,-3.3699,-3.3699,-3.2653,-3.1421,-3.0055,-2.9061,-2.7651,-2.603,-2.6044,-2.5336,-2.4278,-2.3908,-2.4234,-2.5148,-2.6092,-2.7525,-2.8985,-2.9165,-2.9478,-2.9751,-2.9401,-2.9194,-2.9019,-2.8669,-2.8508,-2.8399,-2.8399,-2.8497,-2.856,-2.856,-2.8705,-2.8803,-2.8803,-2.8705,-2.856,-2.856,-2.8178,-2.7762,-2.7631,-2.6944,-2.6321,-2.5961,-2.5895,-2.5895,-2.5895,0.0,0.0,-2.5895,-2.5895,-2.5895,-2.5895,-2.5895,-2.5895,-2.5895,-2.5153,-2.4465,0.0,-2.2826,-2.2062,-2.18,-2.1354,-2.1106,-2.1118,-2.0449,-2.0188,0.0,0.0,0.0,0.0,0.0,0.0,0.0,0.0,0.0,0.0,0.0,0.0,0.0,0.0,0.0,0.0,0.0,0.0,0.0,0.0,0.0,0.0,-1.6854,-1.7888,-1.9022,-1.9353,-2.0018,-2.1428,-2.1568,-2.2005,-2.3257,-2.4199,-2.4791,-2.5055,-2.7007,-2.8362,-2.8778,-3.0142,-3.0704,-3.023,-3.191,-3.2445,-3.1728,-3.2705,-3.3505,-3.4062,-3.3505,-3.3505,-3.4062,-3.3255,-3.2201,0.0,-2.9568,-2.814,-2.6628,-2.6097,-2.5221,0.0,0.0,0.0,0.0,0.0,-2.7744,-2.8796,-2.8796,-2.8974,-2.9112,-2.8828,-2.8859,-2.8898,-2.8619,-2.8676,-2.8803,-2.8803,-2.8803,-2.8803,-2.8803,-2.8803,-2.8803,-2.8803,-2.8803,-2.8803,-2.8803,-2.8585,-2.8287,-2.8034,0.0,0.0,-2.6321,-2.6037,-2.5895,-2.5895,-2.5895,-2.5895,0.0,-2.5895,-2.5895,-2.5895,-2.5895,-2.5895,-2.5895,-2.5207,0.0,0.0,0.0,-2.2215,-2.1614,-2.1248,0.0,0.0,0.0,0.0,0.0,0.0,0.0,0.0,-2.2904,-2.2996,0.0,0.0,0.0,0.0,0.0,0.0,0.0,0.0,0.0,0.0,0.0,0.0,0.0,0.0,0.0,0.0,-1.7962,-1.873,-1.9691,-1.9881,-1.9925,-2.0025,-2.1246,-2.2196,-2.2546,-2.3413,-2.4198,-2.4823,-2.5845,-2.6679,-2.7056,0.0,0.0,0.0,0.0,-3.1774,-3.1652,-3.1822,-3.253,-3.3777,-3.254,-3.2601,-3.3788,-3.3657,-3.2914,-3.1751,-2.9874,-2.8358,-2.7082,-2.5382,-2.4287,-2.3842,-2.4502,-2.4944,-2.5313,-2.714,-2.8199,0.0,0.0,0.0,0.0,-2.8077,-2.8241,-2.8498,-2.8456,-2.8646,-2.888,-2.888,-2.8836,-2.8803,-2.8803,-2.8803,-2.8803,-2.8803,-2.8803,-2.8803,-2.8803,-2.8803,-2.8672,-2.8154,-2.8034,-2.7729,-2.6889,-2.6343,-2.5961,-2.5906,-2.5895,0.0,-2.5895,-2.5895,-2.5895,-2.5895,0.0,0.0,-2.5895,-2.5448,-2.5018,-2.4519,-2.4017,-2.3127,-2.1887,-2.1703,-2.191,-2.2437,-2.3136,-2.4145,-2.5427,-2.5957,-2.6444,-2.686,-2.4144,-2.402,0.0,0.0,0.0,0.0,0.0,0.0,0.0,0.0,0.0,0.0,0.0,0.0,0.0,0.0,0.0,-1.7582,-1.8489,-1.925,-1.9749,-2.0208,-2.0807,-2.1556,-2.1907,-2.2282,-2.2824,-2.3546,-2.3933,-2.3876,-2.5528,-2.6761,-2.7397,-2.8672,0.0,-2.8381,-3.0003,-3.0401,-2.9327,-3.0719,-3.1593,-3.1847,0.0,0.0,-3.1783,-3.071,-3.0068,-2.9793,-2.9018,-2.8211,-2.7362,-2.776,-2.6868,-2.5308,-2.4932,-2.5626,-2.6905,-2.7561,-2.9169,-3.0863,-3.0255,-3.0398,-3.0761,-3.0425,-3.0342,-3.0301,-2.9932,-2.9585,0.0,-2.9347,-2.911,-2.8803,-2.8803,-2.8803,-2.8803,-2.8803,-2.8803,-2.8803,-2.8803,-2.8803,-2.8771,-2.8683,-2.8309,-2.7936,-2.7751,-2.7009,-2.6354,-2.5961,-2.5895,-2.5895,-2.5895,-2.5895,-2.5895,-2.5895,-2.5895,-2.5895,-2.5895,-2.5448,-2.5018,-2.4519,-2.4017,-2.3564,-2.3291,-2.3651,-2.3947,-2.4045,-2.4475,-2.479,-2.5097,-2.552,-2.6198,-2.7049,-2.6345,-2.6505,0.0,0.0,0.0,0.0,0.0,0.0,0.0,0.0,0.0,0.0,0.0,-1.6521,-1.7159,0.0,-1.823,-1.8707,-1.9199,-1.9689,-2.0172,-2.0516,-2.0881,-2.1319,-2.1677,-2.2085,-2.2576,-2.3154,-2.3603,-2.3825,-2.5081,-2.6042,-2.6541,-2.7491,-2.7841,-2.7412,-2.9034,-2.9611,-2.8982,-2.9868,-3.0613,-3.1313,-3.0613,-3.0678,-3.1249,-3.0613,-3.029,-3.0198,-2.8921,-2.8148,-2.7738,-2.6995,-2.61,-2.5125,-2.4647,-2.5206,-2.627,-2.63,-2.7482,-2.9059,-2.8644,-2.8751,-2.9071,-2.884,-2.9137,-2.9585,-2.9365,-2.9571,-2.9794,-2.9554,-2.935,-2.911,-2.8869,-2.8803,-2.8803,-2.8803,-2.8803,-2.8803,-2.8803,-2.8803,-2.8803,-2.8803,-2.856,-2.832,-2.8034,-2.7609,-2.7053,-2.6376,-2.6059,-2.5895,-2.5895,-2.5895,-2.5895,-2.5895,-2.5895,-2.5895,-2.5895,-2.5448,-2.5117,-2.4887,-2.4377,-2.4104,-2.4104,-2.4355,-2.4486,-2.4486,-2.4893,-2.5192,-2.5408,-2.5825,-2.6565,-2.7509,-2.7419,-2.7639,0.0,0.0,0.0,0.0,0.0,0.0,0.0,0.0,-1.5307,-1.6219,-1.7368,-1.8303,-1.841,-1.8982,-1.9507,-1.9744,-1.9918,-2.0128,-2.0647,-2.0779,-2.0815,-2.0815,-2.1284,-2.1752,-2.2147,-2.2638,-2.3246,-2.3953,-2.4616,-2.5155,-2.5613,-2.6335,-2.6708,-2.6779,-2.8147,-2.888,-2.888,-2.888,-2.9461,-3.0475,-2.9395,-2.9461,-3.0484,-3.0484,-3.0484,-3.0375,-2.8596,-2.7802,-2.7533,-2.5538,-2.4682,-2.4642,-2.4352,-2.4678,-2.5286,-2.5005,-2.5776,-2.7001,-2.6873,-2.6954,-2.7116,-2.7116,-2.7719,-2.8527,-2.8527,-2.9145,-2.9822,-2.958,-2.9445,-2.9308,-2.9019,-2.8946,-2.8924,-2.8825,-2.8803,-2.8803,-2.8803,-2.8803,-2.8803,-2.8803,-2.8803,-2.8683,-2.8244,-2.8056,-2.7674,-2.6726,-2.6289,-2.6005,-2.5917,-2.5895,-2.5895,-2.5895,-2.5895,-2.5895,-2.5895,-2.5546,-2.5357,-2.5357,-2.4967,-2.476,-2.476,-2.476,-2.476,-2.476,-2.512,-2.551,-2.5813,-2.6214,-2.6869,-2.776,-2.776,-2.803,-0.9666,-0.9919,-1.0498,-1.1974,-1.2357,-1.3088,0.0,0.0,-1.6746,-1.8578,-1.8871,-1.8932,-1.9598,-1.9722,-1.9744,-1.9801,-2.0245,-2.064,-2.0713,-2.0976,-2.1159,-2.1159,-2.1218,-2.1503,-2.2125,-2.2273,-2.2658,-2.3566,-2.4295,-2.4947,-2.5648,-2.634,-2.6819,-2.7129,-2.731,-2.7467,-2.7467,-2.7467,-2.7525,-2.765,-2.7525,-2.7525,-2.765,-2.765,-2.765,-2.7618,-2.6769,-2.6223,-2.5848,-2.5292,-2.5048,-2.5016,-2.4658,-2.4919,-2.5451,-2.532,-2.6587,-2.8394,-2.7841,-2.8145,-2.8827,-2.8827,-2.8903,-2.9021,-2.9021,-2.8824,-2.8727,-2.945,-2.9326,-2.9031,-2.933,-2.9401,-2.9339,-2.8902,-2.8803,-2.8803,-2.8803,-2.8803,-2.8803,-2.8803,-2.8803,-2.8781,-2.8727,-2.832,-2.7674,-2.6726,-2.654,-2.6387,-2.595,-2.5895,-2.5895,-2.5895,-2.5895,-2.5895,-2.5895,-2.5852,-2.5819,-2.5819,-2.5775,-2.5742,-2.5742,-2.5742,-2.5742,-2.5742,-2.5797,-2.5861,-2.5902,-2.5946,-2.6426,-2.7278,-2.7278,-2.7725,-1.1044,-1.163,-1.2168,-1.3217,-1.417,-1.5202,-1.6586,-1.7237,-1.7819,-1.8858,-1.9094,-1.9177,-1.9478,-1.9554,-1.9601,0.0,-2.0259,-2.0574,-2.0955,-2.0955,-2.0925,-2.0925,-2.0925,-2.1262,-2.2103,-2.2337,-2.2752,-2.3512,-2.4422,-2.5178,-2.5654,-2.6496,-2.705,-2.72,-2.72,-2.72,-2.72,-2.72,-2.72,-2.72,-2.72,-2.72,-2.72,-2.72,-2.6978,-2.6573,-2.6335,-2.5834,-2.5318,-2.5175,-2.5111,-2.5095,-2.4944,-2.5072,-2.5202,-2.4903,-2.5835,-2.717,-2.6728,-2.7034,-2.7628,-2.7628,-2.7941,-2.8349,-2.8349,-2.8549,-2.8822,-2.8941,-2.8778,-2.8512,-2.8209,-2.841,-2.862,-2.8188,-2.8466,-2.8803,-2.8803,-2.8803,-2.8803,-2.8803,-2.8803,-2.8803,-2.8803,-2.8593,-2.8233,-2.7511,-2.6933,-2.6519,-2.6354,-2.6081,-2.5895,-2.5895,-2.5895,-2.5895,-2.5895,-2.5895,-2.5895,-2.5895,-2.5895,-2.5895,-2.5895,-2.5895,-2.5895,-2.5895,-2.5895,-2.5895,-2.5895,-2.5895,-2.6218,-2.6816,-2.7062,-2.7522,-1.1994,-1.2801,-1.3552,-1.4441,-1.5747,-1.6957,-1.7282,-1.7971,-1.8635,-1.8877,-1.9111,-1.9279,-1.9279,-1.9404,-1.9594,-2.0142,-2.0256,-2.0511,-2.113,-2.0933,-2.0757,-2.0845,-2.0779,-2.1072,-2.1964,-2.2323,-2.2691,-2.3261,-2.4378,-2.5203,-2.5533,-2.6498,-2.7067,-2.72,-2.72,-2.72,-2.72,-2.72,-2.72,-2.72,-2.72,-2.72,-2.72,-2.72,-2.6811,-2.6208,-2.6208,-2.5755,-2.5111,-2.5111,-2.5111,-2.5111,-2.5111,-2.5111,-2.5053,-2.4485,-2.4991,-2.5844,-2.5579,-2.5852,-2.6364,-2.6364,-2.6836,-2.7466,-2.7466,-2.7887,-2.8406,-2.8249,-2.8222,-2.8095,-2.7603,-2.7749,-2.7986,-2.7569,-2.7836,-2.8186,-2.8186,-2.8315,-2.8409,-2.8222,-2.8513,-2.8746,-2.8513,-2.8653,-2.8683,-2.8287,-2.75,-2.6878,-2.6617,-2.6201,-2.5895,-2.5895,-2.5895,-2.5895,-2.5895,-2.5895,-2.5895,-2.5895,-2.5895,-2.5895,-2.5895,-2.5895,-2.5895,-2.5895,-2.5895,-2.5895,-2.5895,-2.5895,-2.6093,-2.6528,-2.6857,-2.7319,-1.2152,-1.313,-1.4335,-1.5868,-1.6901,-1.7768,-1.8571,-1.9001,-1.925,-1.9257,-1.9264,-1.9279,-1.9279,-1.9588,-1.9857,-2.0132,-2.0446,-2.0823,-2.1159,-2.0933,-2.0837,-2.1159,-2.0911,-2.0984,0.0,-2.2008,-2.2323,-2.2615,-2.3855,-2.4807,-2.5203,-2.616,-2.6859,-2.72,-2.72,-2.72,-2.72,-2.72,-2.72,-2.72,-2.72,-2.72,-2.72,-2.72,-2.6811,-2.6208,-2.6208,-2.5755,-2.5111,-2.5111,-2.5111,-2.5111,-2.5111,-2.5111,-2.5024,-2.436,-2.4509,-2.4995,-2.4875,-2.5229,-2.5743,-2.5743,-2.6136,-2.6646,-2.6646,-2.6636,-2.6845,-2.7609,-2.7814,-2.7922,-2.8279,-2.8086,-2.7693,-2.7221,-2.6826,-2.6552,-2.6552,-2.7115,-2.74,-2.6696,-2.7799,-2.856,-2.7778,-2.8269,-2.8792,-2.8781,-2.8309,-2.762,-2.6704,-2.6201,-2.5895,-2.5895,-2.5895,-2.5895,-2.5895,-2.5895,-2.5895,-2.5895,-2.5895,-2.5895,-2.5895,-2.5895,-2.5895,-2.5895,-2.5895,-2.5895,-2.5895,-2.5895,-2.6093,-2.6487,-2.6528,-2.7033,-1.3506,-1.4479,-1.5323,-1.68,-1.7789,-1.8513,-1.9038,-1.903,-1.895,-1.895,-1.8782,-1.8628,-1.8628,-1.8899,-1.9294,-1.9835,-2.0194,-2.0533,-2.113,-2.1115,-2.1006,-2.0903,-2.0984,0.0,0.0,0.0,0.0,-2.2579,-2.3647,-2.4566,-2.5195,-2.616,-2.6867,-2.72,-2.72,-2.72,-2.72,-2.72,-2.72,-2.72,-2.72,-2.72,-2.7193,-2.6962,-2.6597,-2.62,-2.5906,-2.554,-2.5111,-2.5111,-2.5111,-2.5111,-2.5111,-2.5111,-2.5024,-2.4368,-2.4231,-2.4361,-2.4273,-2.4629,-2.5174,-2.5569,-2.5852,-2.6081,-2.6473,-2.6591,-2.6636,-2.6954,-2.6999,-2.6959,-2.6848,-2.7093,-2.7156,-2.6464,-2.6626,-2.6828,-2.6575,-2.6696,-2.6781,-2.6552,-2.7305,-2.793,-2.7636,-2.8269,-2.8694,-2.8331,-2.7872,-2.7293,-2.6671,-2.6201,-2.5895,-2.5895,-2.5895,-2.5895,-2.5895,-2.5895,-2.5895,-2.5895,-2.5895,-2.5895,-2.5895,-2.5895,-2.5895,-2.5895,-2.5895,-2.5895,-2.5895,-2.5895,-2.5979,-2.6135,-2.6704,-2.7144,-1.4527,-1.5445,-1.6164,-1.7669,-1.8521,-1.8986,-1.9081,-1.8935,-1.8723,-1.8489,-1.8277,-1.8094,-1.7977,-1.8123,-1.8555,-1.9447,-1.9762,-2.0245,-2.124,-2.1181,-2.1086,-2.1233,-2.1225,-2.1218,0.0,0.0,0.0,-2.2432,-2.3462,-2.4381,-2.4929,-2.5962,-2.6666,-2.7,-2.7134,-2.72,-2.72,-2.72,-2.72,-2.72,-2.72,-2.7137,-2.7002,-2.6779,-2.6414,-2.5953,-2.5731,-2.5437,-2.5111,-2.5111,-2.5111,-2.5111,-2.5111,-2.5111,-2.5024,-2.4368,-2.4114,-2.4069,-2.3715,-2.396,-2.4509,-2.4906,-2.5183,-2.5514,-2.6081,-2.63,-2.63,-2.6537,-2.6591,-2.6527,-2.6306,-2.6486,-2.6593,-2.6073,-2.6129,-2.623,-2.5937,-2.5995,-2.5974,-2.5742,-2.6504,-2.7115,-2.6829,-2.7636,-2.8254,-2.7906,-2.7692,-2.7304,-2.6671,-2.6201,-2.5895,-2.5895,-2.5895,-2.5895,-2.5895,-2.5895,-2.5895,-2.5895,-2.5895,-2.5895,-2.5895,-2.5895,-2.5895,-2.5895,-2.5895,-2.5895,-2.5895,-2.5895,-2.5895,-2.5895,-2.6456,-2.7001,-1.5101,-1.6001,-1.6833,-1.8448,-1.903,-1.9169,-1.8855,-1.8752,-1.8533,-1.7896,-1.7743,-1.7611,-1.722,-1.7228,-1.7735,-1.8979,-1.9257,-1.9872,-2.1452,-2.1167,-2.1137,0.0,0.0,0.0,0.0,0.0,0.0,-2.2235,0.0,-2.4266,-2.4628,-2.558,-2.6272,-2.6666,-2.7,-2.72,-2.72,-2.72,-2.72,-2.72,-2.7185,-2.7002,-2.6676,-2.6636,-2.6263,-2.5573,-2.5557,-2.5421,-2.5111,-2.5111,-2.5111,-2.5111,-2.5111,-2.5111,-2.5024,-2.4368,-2.4114,-2.401,-2.3252,-2.3352,-2.3865,-2.3913,-2.4295,-2.4898,-2.5459,-2.5624,-2.5798,-2.6364,-2.6527,-2.6537,-2.6582,-2.6342,-2.6039,-2.6021,-2.5424,-2.4812,-2.4785,-2.5026,-2.506,-2.4341,-2.5401,-2.6215,-2.5489,-2.659,-2.7542,-2.7542,-2.7779,-2.7619,-2.6737,-2.6245,-2.5928,-2.5895,-2.5895,-2.5895,-2.5895,-2.5895,-2.5895,-2.5895,-2.5895,-2.5895,-2.5895,-2.5895,-2.5895,-2.5895,-2.5895,-2.5895,-2.5895,-2.5895,-2.5895,-2.5895,-2.5937,-2.6641,-1.5959,-1.674,-1.7364,-1.8788,-1.903,-1.8891,-1.8811,-1.8225,-1.7589,-1.7233,-1.6726,-1.6228,-1.5615,-1.6476,0.0,-1.7772,-1.9045,0.0,-2.1203,-2.1606,0.0,-2.2154,0.0,-2.2242,-2.2184,-2.2601,0.0,0.0,-2.3398,-2.4062,-2.4949,-2.5709,-2.6272,-2.6666,-2.7,-2.72,-2.72,-2.72,-2.72,-2.72,-2.6938,-2.6764,-2.6652,-2.6136,-2.5802,-2.5565,-2.5357,-2.5191,-2.5111,-2.5111,-2.5111,-2.5111,-2.5111,-2.5111,-2.5024,-2.4368,-2.4114,-2.401,-2.3252,-2.307,-2.3296,-2.3745,-2.4024,-2.4239,-2.4842,-2.5008,-2.5174,-2.5743,-2.5907,-2.6017,-2.6473,-2.6509,-2.6344,-2.6085,-2.5635,-2.5142,-2.4849,-2.4646,-2.444,-2.4251,-2.4962,-2.5732,-2.6119,-2.6494,-2.6781,-2.6781,-2.7025,-2.7185,-2.7129,-2.6725,-2.631,-2.5939,-2.5895,-2.5895,-2.5895,-2.5895,-2.5895,-2.5895,-2.5895,-2.5895,-2.5895,-2.5895,-2.5895,-2.5895,-2.5895,-2.5895,-2.5895,-2.5895,-2.5895,-2.5895,-2.6207,-2.6766,-1.65,-1.7166,-1.7694,-1.8968,-1.903,-1.8642,-1.8072,-1.7406,-1.666,-1.5817,-1.5313,-1.4911,-1.436,-1.5345,0.0,0.0,0.0,0.0,-2.1057,-2.165,-2.2067,0.0,-2.252,0.0,-2.2791,-2.312,-2.3442,0.0,-2.3918,-2.4312,-2.4878,-2.5554,-2.6071,-2.6398,-2.68,-2.7067,-2.72,-2.72,-2.7121,-2.697,-2.6771,-2.6517,-2.6207,-2.581,-2.5493,-2.5397,0.0,-2.5111,-2.5111,-2.5111,-2.5111,-2.5111,-2.5111,-2.5111,-2.5024,-2.4368,-2.4114,-2.401,-2.3252,-2.3014,-2.307,-2.3408,-2.3528,-2.3632,-2.4239,-2.4406,-2.4518,-2.5128,-2.5293,-2.5459,-2.6026,-2.6199,-2.6191,-2.6235,-2.5975,-2.5571,-2.5124,-2.4771,-2.4422,-2.4238,-2.4538,-2.4962,-2.5401,-2.5781,-2.5974,-2.5974,-2.6388,-2.6682,-2.6592,-2.6592,-2.6486,-2.6256,-2.6026,-2.5895,-2.5895,-2.5895,-2.5895,-2.5895,-2.5895,-2.5895,-2.5895,-2.5895,-2.5895,-2.5895,-2.5895,-2.5895,-2.5895,-2.5895,-2.5895,-2.5906,-2.6135,-2.6763,-1.6689,-1.7336,-1.7832,-1.885,-1.8884,-1.8343,-1.7182,-1.6551,-1.576,-1.4282,-1.3916,-1.374,-1.3367,-1.4165,-1.5228,-1.6514,0.0,-1.9294,-2.0918,-2.1467,-2.1928,-2.255,-2.2659,-2.2908,-2.3479,-2.361,-2.3896,-2.4466,-2.465,-2.4701,-2.4701,-2.5241,-2.5801,-2.6138,-2.6532,-2.6867,-2.72,-2.7153,-2.6978,-2.6676,-2.6581,-2.6223,-2.5573,-2.5525,-2.5397,-2.5111,0.0,0.0,-2.5111,-2.5111,-2.5111,-2.5111,-2.5111,-2.5079,-2.496,-2.4352,-2.4082,-2.3896,-2.3244,-2.3014,-2.3014,-2.3014,-2.3014,-2.307,-2.3632,-2.3801,-2.3913,-2.4509,-2.4676,-2.4842,-2.5404,-2.5569,-2.5734,-2.6245,-2.6054,-2.5731,-2.534,-2.5014,-2.4643,-2.4275,-2.4202,-2.4202,-2.4202,-2.4726,-2.5148,-2.5148,-2.5829,-2.6172,-2.5697,-2.6169,-2.652,-2.6455,-2.6105,-2.5895,-2.5895,-2.5895,-2.5895,-2.5895,-2.5895,-2.5895,-2.5895,-2.5895,-2.5895,-2.5895,-2.5895,-2.5895,-2.5895,-2.5895,-2.5895,-2.5895,-2.5961,-2.6731,-1.6461,-1.7173,-1.7679,-1.8049,-1.8067,-1.7786,-1.7071,-1.5994,-1.4922,-1.415,-1.355,-1.2994,-1.2368,-1.3528,-1.4794,-1.5555,-1.7201,-1.895,-2.0581,-2.132,-2.1928,0.0,-2.2857,-2.3069,-2.3186,0.0,0.0,0.0,0.0,0.0,-2.5039,-2.5367,-2.5928,-2.6599,-2.6658,-2.6867,-2.72,-2.6914,-2.674,-2.6668,-2.6096,-2.5692,-2.5565,-2.5334,-2.5167,-2.5111,0.0,0.0,-2.5111,-2.5111,-2.5111,-2.5111,-2.5111,-2.4928,-2.4619,-2.4265,-2.3872,-2.3578,-2.3157,-2.3014,-2.3014,-2.3014,-2.3014,-2.3014,-2.3127,-2.3183,-2.3296,-2.3913,-2.408,-2.4192,-2.4787,-2.4953,-2.5008,-2.5064,-2.4914,-2.4746,-2.4683,-2.447,-2.4293,-2.422,-2.4202,-2.4202,-2.4202,-2.4301,-2.439,-2.439,-2.5011,-2.546,-2.5383,-2.5895,-2.6106,-2.5716,-2.5829,-2.5895,-2.5895,-2.5895,-2.5895,-2.5895,-2.5895,-2.5895,-2.5895,-2.5895,-2.5895,-2.5895,-2.5895,-2.5895,-2.5895,-2.5895,-2.5895,-2.5906,-2.6321,-2.6834,-1.625,-1.7042,-1.7666,-1.7825,-1.7846,-1.7472,-1.6155,-1.5123,-1.4114,-1.2993,-1.2508,-1.216,-1.1845,-1.284,0.0,-1.4794,-1.6126,-1.7743,-1.9696,-2.053,0.0,-2.2279,-2.282,-2.3171,0.0,0.0,0.0,0.0,0.0,0.0,-2.5127,-2.5397,-2.5734,-2.613,-2.6331,-2.6439,-2.6658,-2.6485,-2.6291,-2.6128,-2.5794,-2.554,-2.5357,-2.5191,-2.5111,-2.5111,0.0,0.0,-2.5111,-2.5111,-2.5111,-2.5087,-2.4905,-2.473,-2.4515,-2.3983,-2.3681,-2.3433,-2.3141,-2.3014,-2.3014,-2.3014,-2.3014,-2.3014,-2.3014,-2.3014,-2.307,-2.3352,-2.3408,-2.3576,-2.4184,-2.4565,-2.4889,-2.5174,-2.5138,-2.4882,-2.4684,-2.4432,-2.4202,-2.4202,-2.4202,-2.4202,-2.4202,-2.4202,-2.4202,-2.4202,-2.4489,-2.4726,-2.4726,-2.5089,-2.5365,-2.5306,-2.5174,-2.5209,-2.5359,-2.538,-2.5506,-2.5895,-2.5895,-2.5895,-2.5895,-2.5895,-2.5895,-2.5895,-2.5895,-2.5895,-2.5895,-2.5895,-2.5895,-2.5917,-2.6355,-2.6835,-1.5925,-1.6834,-1.7613,-1.7723,-1.769,-1.7198,-1.5411,-1.4443,-1.3455,-1.2002,-1.1643,-1.1591,-1.1591,-1.2241,-1.314,-1.4232,-1.5182,-1.6572,-1.876,-1.974,-2.0691,0.0,-2.2623,0.0,0.0,0.0,0.0,0.0,0.0,0.0,0.0,-2.5329,-2.5532,-2.5599,-2.5801,-2.5894,-2.6005,-2.5924,-2.5782,-2.551,-2.5501,-2.5373,-2.5111,-2.5111,-2.5111,-2.5111,0.0,0.0,0.0,-2.5111,-2.5063,-2.4968,-2.469,-2.4492,-2.4293,-2.3687,-2.3441,-2.333,-2.3109,-2.3014,-2.3014,-2.3014,-2.3014,-2.3014,-2.3014,-2.3014,-2.3014,-2.3014,-2.3014,-2.3127,-2.3576,-2.4072,-2.4578,-2.5147,-2.5174,-2.4978,-2.473,-2.444,-2.4202,-2.4202,-2.4202,-2.4202,-2.4202,-2.4202,-2.4202,-2.4202,-2.4202,-2.4202,-2.4202,-2.4356,-2.4564,-2.4756,-2.4526,-2.448,-2.4636,-2.468,-2.4946,-2.5633,-2.5686,-2.577,-2.5895,-2.5895,-2.5895,-2.5895,-2.5895,-2.5895,-2.5895,-2.5895,-2.5895,-2.5917,-2.6496,-2.6966,-1.5412,-1.6579,-1.7508,-1.7266,-1.7281,-1.698,-1.5644,-1.4428,-1.3243,-1.2171,-1.1765,-1.1591,-1.1591,-1.1867,-1.2507,-1.3821,-1.4845,-1.6155,-1.8116,-1.9455,-2.0555,-2.162,0.0,0.0,0.0,0.0,0.0,0.0,0.0,0.0,0.0,-2.5127,-2.5262,-2.5599,-2.5308,-2.5334,-2.5626,-2.5337,-2.5187,-2.5124,-2.5124,-2.5143,-2.5111,-2.5111,-2.5111,-2.5111,0.0,0.0,0.0,-2.5111,-2.4921,-2.4627,-2.4595,-2.419,-2.3568,-2.3504,-2.3282,-2.3062,-2.303,-2.3014,-2.3014,-2.3014,-2.3014,-2.3014,-2.3014,-2.3014,-2.3014,-2.3014,-2.3014,-2.3014,-2.307,-2.3127,-2.3246,-2.368,-2.3939,-2.4092,-2.4199,-2.4229,-2.4202,-2.4202,-2.4202,-2.4202,-2.4202,-2.4202,-2.4202,-2.4202,-2.4202,-2.4202,-2.4202,-2.4223,-2.4088,-2.3664,-2.412,-2.4249,-2.3927,-2.3887,-2.4188,-2.4946,-2.4988,-2.5253,-2.5853,-2.5895,-2.5895,-2.5895,-2.5895,-2.5895,-2.5895,-2.5895,-2.5895,-2.5917,-2.6824,-2.7272,-1.4678,-1.589,-1.6981,-1.6637,-1.666,-1.6418,-1.5138,-1.3996,-1.2928,-1.1955,-1.1679,-1.1591,-1.1591,-1.1694,-1.2109,-1.3214,-1.3558,-1.4382,-1.6565,-1.7633,-1.8855,-2.0611,0.0,0.0,0.0,0.0,0.0,0.0,0.0,0.0,0.0,-2.4804,-2.5099,-2.4974,-2.4841,-2.4773,-2.4702,-2.4558,-2.4512,-2.4501,-2.4673,-2.4795,-2.4795,-2.4988,-2.5111,-2.5111,0.0,0.0,0.0,-2.4793,-2.4579,-2.4297,-2.4039,-2.3785,-2.3457,-2.3251,-2.3133,-2.3014,-2.3014,-2.3014,-2.3014,-2.3014,-2.3014,-2.3014,-2.3014,-2.3014,-2.3014,-2.3014,-2.3014,-2.3014,-2.3014,-2.3135,-2.3294,-2.358,-2.3531,-2.3348,-2.3217,-2.3438,-2.3637,-2.3637,-2.3945,-2.4202,-2.4202,-2.4202,-2.4202,-2.4202,-2.4202,-2.4202,-2.4202,-2.4202,-2.3996,-2.3535,-2.3505,-2.3484,-2.3545,-2.3325,-2.3517,-2.4198,-2.4637,-2.5031,-2.5295,-2.5686,-2.5895,-2.5895,-2.5895,-2.5895,-2.5895,-2.5895,-2.5895,-2.5917,-2.6867,-2.7315,-1.4069,-1.5246,-1.6272,-1.6061,-1.6011,-1.564,-1.4431,-1.337,-1.2455,-1.1631,-1.1435,-1.1466,-1.1591,-1.1591,-1.1848,-1.2592,-1.2767,-1.3506,-1.5447,-1.6477,-1.7765,0.0,0.0,0.0,0.0,0.0,0.0,0.0,0.0,0.0,0.0,-2.4159,-2.4371,-2.4145,-2.4042,-2.3951,-2.3836,-2.3795,-2.3818,-2.3832,-2.4147,-2.4277,-2.4307,-2.455,-2.4733,0.0,0.0,0.0,0.0,-2.4428,-2.4213,-2.388,-2.3634,-2.3417,-2.3298,-2.3109,-2.3014,-2.3014,-2.3014,-2.3014,-2.3014,-2.3014,-2.3014,-2.3014,-2.3014,-2.3014,-2.3014,-2.3014,-2.3014,-2.299,-2.2887,-2.3043,-2.3228,-2.3279,-2.3099,-2.2843,-2.2578,-2.2778,-2.3079,-2.3079,-2.3388,-2.3696,-2.3696,-2.3696,-2.3746,-2.3895,-2.3945,-2.3994,-2.4202,-2.4202,-2.4091,-2.3749,-2.3215,-2.2973,-2.304,-2.2723,-2.2784,-2.3464,-2.3993,-2.4476,-2.4861,-2.5338,-2.5686,-2.5895,-2.5895,-2.5895,-2.5895,-2.5895,-2.5972,-2.6136,-2.6944,-2.7468,-1.3694,-1.4669,-1.552,-1.5513,-1.5257,-1.471,-1.3575,-1.258,-1.1756,-1.1216,-1.1122,-1.1216,-1.1529,-1.1591,-1.1701,-1.1959,-1.2855,-1.3945,-1.5206,-1.6483,0.0,0.0,0.0,0.0,0.0,0.0,0.0,0.0,0.0,0.0,0.0,0.0,-2.3128,-2.3128,-2.2813,-2.2791,-2.3113,-2.3098,-2.3118,-2.3118,-2.3422,-2.3609,-2.3582,-2.3582,0.0,0.0,0.0,0.0,0.0,-2.4114,-2.3856,-2.3488,-2.3488,-2.3275,-2.3022,-2.3014,-2.3014,-2.3014,-2.3014,-2.3014,-2.3014,-2.3014,-2.3014,-2.3014,-2.3014,-2.3014,-2.3014,-2.3014,-2.3014,-2.2934,-2.2585,-2.2678,-2.2704,-2.2386,-2.2408,-2.2535,-2.2476,-2.2476,-2.2526,-2.2526,-2.2526,-2.2526,-2.2526,-2.2526,-2.2677,-2.3229,-2.3329,-2.3538,-2.4102,-2.4202,-2.4202,-2.4192,-2.3437,-2.2739,-2.2355,-2.1916,-2.2043,-2.2759,-2.2803,-2.345,-2.4818,-2.4903,-2.5211,-2.5906,-2.5895,-2.5895,-2.5895,-2.5895,-2.6147,-2.6584,-2.7097,-2.7829,-1.2175,-1.3044,-1.384,-1.3647,-1.3443,-1.3155,-1.2537,-1.1834,-1.1169,-1.0821,-1.0933,-1.1122,-1.1247,-1.1435,-1.1987,-1.317,-1.3623,-1.4282,-1.5577,0.0,0.0,0.0,0.0,0.0,0.0,0.0,0.0,0.0,0.0,0.0,0.0,0.0,-2.2776,-2.2776,-2.2674,-2.2571,-2.2476,-2.2495,-2.2503,-2.2503,-2.2849,-2.2968,-2.2982,-2.3219,0.0,0.0,0.0,0.0,0.0,-2.3705,-2.3499,-2.3181,-2.3181,-2.3109,-2.3014,-2.3014,-2.3014,-2.3014,-2.3014,-2.3014,-2.3014,-2.3014,-2.3014,-2.3014,-2.3014,-2.3014,-2.3014,-2.3014,-2.2839,-2.2625,-2.2521,-2.2161,-2.1803,-2.1683,-2.1533,-2.1428,-2.1428,-2.1674,-2.1971,-2.1971,-2.2224,-2.2476,-2.2476,-2.2476,-2.2577,-2.2728,-2.2728,-2.2828,-2.3038,-2.3038,-2.3188,-2.3538,-2.3073,-2.276,-2.2692,-2.208,-2.1785,-2.2043,-2.253,-2.3013,-2.345,-2.3897,-2.4241,-2.4456,-2.4946,-2.4988,-2.4456,-2.5744,-2.6769,-2.7555,-2.7696,-2.8156,-1.1163,-1.1763,-1.2209,-1.2247,-1.2094,-1.1875,-1.1449,-1.0962,-1.0548,-1.0392,-1.0523,-1.0776,-1.1059,-1.1279,-1.1793,-1.2906,-1.3375,-1.407,0.0,0.0,0.0,0.0,0.0,0.0,0.0,0.0,0.0,0.0,0.0,0.0,0.0,0.0,-2.2454,-2.2454,-2.2454,-2.2425,-2.2352,-2.2242,-2.2184,-2.2184,-2.2283,-2.2326,-2.2324,0.0,0.0,0.0,0.0,0.0,0.0,-2.3119,-2.305,-2.2853,-2.2958,-2.3014,-2.3014,-2.3014,-2.3014,-2.3014,-2.3014,-2.3014,-2.3014,-2.3014,-2.3014,-2.3014,-2.3014,-2.3014,-2.299,-2.2855,-2.2656,-2.2426,-2.2164,-2.1721,-2.1365,-2.123,-2.1032,-2.0925,-2.0925,-2.1173,-2.142,-2.142,-2.1674,-2.1928,-2.1928,-2.1928,-2.1979,-2.2182,-2.2173,-2.2274,-2.2476,-2.2476,-2.2627,-2.2979,-2.2638,-2.2518,-2.2817,-2.2389,-2.2153,-2.2153,-2.2598,-2.296,-2.322,-2.3491,-2.3755,-2.4018,-2.4464,-2.4508,-2.4008,-2.5532,-2.6732,-2.7581,-2.7753,-2.8185,0.0,-1.0703,-1.0687,-1.1198,-1.1077,-1.076,-1.0317,-0.9984,0.0,-0.9912,-0.9951,-1.0219,-1.0957,-1.1076,-1.1231,-1.1716,-1.2543,-1.3587,0.0,0.0,0.0,0.0,0.0,0.0,0.0,0.0,0.0,0.0,0.0,0.0,0.0,0.0,0.0,-2.2213,-2.2198,-2.2315,-2.2593,-2.2301,-2.2147,-2.214,-2.1818,-2.1677,-2.1668,0.0,0.0,0.0,0.0,0.0,0.0,-2.2456,-2.257,-2.257,-2.2853,-2.2958,-2.2958,-2.3014,-2.3014,-2.3014,-2.3014,-2.3014,-2.3014,-2.3014,-2.3014,-2.3014,-2.2982,-2.299,-2.2942,-2.2585,-2.2466,-2.2291,-2.1571,-2.1381,-2.1278,-2.0945,-2.0925,-2.0925,-2.0925,-2.0925,-2.0925,-2.0925,-2.0925,-2.0925,-2.0925,-2.0925,-2.107,-2.1573,-2.1623,-2.1827,-2.2325,-2.2375,-2.2375,-2.2426,-2.2127,-2.2111,-2.2699,-2.2808,-2.2857,-2.2904,-2.2904,-2.3224,-2.3895,-2.3578,-2.3638,-2.4267,-2.4312,-2.4366,-2.4486,-2.5261,-2.6056,-2.6898,-2.7306,-2.793,-0.7913,0.0,-0.9265,-0.94,-0.908,-0.8807,0.0,-0.9094,-0.9064,-0.9072,-0.9568,-1.018,-1.0768,-1.0903,-1.1533,-1.3367,-1.4066,-1.4848,0.0,0.0,0.0,0.0,0.0,0.0,0.0,0.0,0.0,0.0,0.0,0.0,0.0,0.0,0.0,-2.252,-2.2301,-2.2213,-2.2286,-2.1972,-2.1811,-2.1803,-2.1481,-2.1341,-2.1325,0.0,0.0,0.0,0.0,0.0,-2.2116,-2.2173,-2.223,-2.223,-2.257,-2.2683,-2.274,-2.2901,-2.3014,-2.3014,-2.3014,-2.3014,-2.3014,-2.3014,-2.3014,-2.2966,-2.2696,-2.2799,-2.2942,-2.2585,-2.2291,-2.1989,-2.1507,-2.1198,-2.102,-2.0941,-2.0925,-2.0925,-2.0925,-2.0925,-2.0925,-2.0925,-2.0925,-2.0925,-2.0925,-2.0925,-2.0917,-2.107,-2.107,-2.1121,-2.1275,-2.1275,-2.142,-2.1827,-2.1803,-2.2147,-2.3097,-2.2606,-2.2452,-2.2857,-2.2904,-2.2998,-2.313,-2.3093,-2.3084,-2.3271,-2.3271,-2.397,-2.5398,-2.5092,-2.55,-2.6591,-2.6693,-2.6839,-0.6697,-0.7475,-0.8117,-0.8376,-0.8254,-0.8162,-0.8464,-0.8483,-0.8441,-0.8441,-0.8765,-0.9229,-0.9779,-0.9968,-1.0664,-1.2575,-1.3157,0.0,0.0,0.0,0.0,0.0,0.0,0.0,0.0,0.0,0.0,0.0,0.0,0.0,0.0,0.0,0.0,0.0,-2.1241,-2.1539,-2.2184,-2.1862,-2.1693,-2.1693,-2.1364,-2.1211,-2.1211,0.0,0.0,0.0,0.0,0.0,-2.1717,-2.1831,-2.1945,-2.1945,-2.223,-2.2343,-2.24,-2.274,-2.2796,-2.2845,-2.2958,-2.3014,-2.299,-2.2823,-2.2776,-2.2704,-2.2347,-2.2378,-2.2458,-2.2108,-2.187,-2.1648,-2.1246,-2.1016,-2.0925,-2.0925,-2.0925,-2.0925,-2.0925,-2.0925,-2.0925,-2.0925,-2.0925,-2.0925,-2.0925,-2.0925,-2.0925,-2.0925,-2.0925,-2.0925,-2.0925,-2.0925,-2.1019,-2.1326,-2.1318,-2.1674,-2.2476,-2.215,-2.2359,-2.3405,-2.3501,-2.3501,-2.3501,-2.3279,-2.3178,-2.3178,-2.3178,-2.3802,-2.5015,-2.4639,-2.4986,-2.5974,-2.5974,-2.6167,-0.6164,-0.6661,-0.7231,-0.7725,-0.7887,-0.7991,-0.8024,-0.7948,-0.7889,-0.7889,-0.7947,-0.8218,-0.8767,-0.898,0.0,-1.0989,0.0,0.0,0.0,0.0,0.0,0.0,0.0,0.0,0.0,0.0,0.0,0.0,0.0,0.0,0.0,0.0,0.0,0.0,-1.9521,-2.0099,-2.1337,-2.1576,-2.1693,-2.1693,-2.1364,-2.1211,-2.1211,-2.1211,0.0,0.0,0.0,0.0,-2.1211,-2.1497,-2.1611,-2.1668,-2.1945,-2.2059,-2.2059,-2.24,-2.2482,-2.2484,-2.2703,-2.2799,-2.2807,-2.2506,-2.241,-2.2339,-2.1989,-2.1932,-2.1814,-2.1412,-2.1357,-2.1317,-2.1012,-2.0925,-2.0925,-2.0925,-2.0925,-2.0925,-2.0925,-2.0925,-2.0925,-2.0925,-2.0925,-2.0925,-2.0925,-2.0925,-2.0925,-2.0925,-2.0925,-2.0925,-2.0925,-2.0925,-2.0925,-2.0925,-2.0925,-2.1121,-2.1674,-2.1725,-2.2333,-2.3845,-2.3994,-2.4093,-2.4202,-2.3822,-2.359,-2.359,-2.359,-2.3804,-2.4202,-2.4202,-2.4538,-2.5148,-2.5148,-2.5489,-0.5872,-0.6361,-0.6831,-0.7026,-0.6997,-0.6988,-0.7286,-0.7321,-0.7335,-0.7335,-0.7764,-0.8397,-0.9107,-0.9289,-0.9786,0.0,0.0,0.0,0.0,0.0,0.0,0.0,0.0,0.0,0.0,0.0,0.0,0.0,0.0,0.0,0.0,0.0,0.0,0.0,0.0,-1.7422,-1.7635,-2.0361,-2.1693,-2.1693,-2.1364,-2.1211,-2.1211,-2.1211,-2.1211,0.0,0.0,-2.1211,-2.1211,-2.1268,-2.1268,-2.1325,-2.1611,-2.1782,-2.1782,-2.2059,-2.1989,-2.1754,-2.1791,-2.1961,-2.217,-2.2107,-2.2091,-2.2027,-2.1632,-2.1476,-2.1404,-2.1048,-2.1167,-2.1317,-2.1012,-2.0925,-2.0925,-2.0925,-2.0925,-2.0925,-2.0925,-2.0925,-2.0925,-2.0925,-2.0925,-2.0925,-2.0925,-2.0925,-2.0925,-2.0925,-2.0925,-2.0925,-2.0925,-2.0925,-2.0925,-2.0925,-2.0925,-2.1121,-2.1674,-2.1725,-2.1979,-2.2728,-2.3179,-2.3687,-2.4202,-2.4137,-2.411,-2.411,-2.411,-2.4137,-2.4202,-2.4202,-2.4251,-2.439,-2.439,-2.444,-0.5527,-0.5986,-0.6469,-0.6597,-0.696,-0.7298,-0.7358,-0.7351,-0.7351,-0.7351,-0.7591,-0.795,-0.8413,0.0,-0.9192,-1.0417,0.0,0.0,0.0,0.0,0.0,0.0,0.0,0.0,0.0,0.0,0.0,0.0,0.0,0.0,0.0,0.0,0.0,0.0,0.0,0.0,-1.6764,-1.8279,-1.9052,-1.9052,-1.8911,-1.8795,-1.8795,-1.8795,-1.8795,-1.8795,0.0,-1.8795,-1.8851,-1.9471,-1.9752,-1.9815,-2.0565,-2.0907,-2.0907,-2.1241,-2.1357,-2.1307,-2.1317,-2.1426,-2.1495,-2.1461,-2.1459,-2.1396,-2.1214,-2.1111,-2.1079,-2.0964,-2.0992,-2.1079,-2.0964,-2.0925,-2.0925,-2.0925,-2.0925,-2.0925,-2.0925,-2.0925,-2.0925,-2.0925,-2.0925,-2.0925,-2.0925,-2.0925,-2.0925,-2.0925,-2.0925,-2.0925,-2.0925,-2.0925,-2.0925,-2.0925,-2.0925,-2.1019,-2.1275,-2.1275,-2.1623,-2.2426,-2.2728,-2.3129,-2.3687,-2.3687,-2.3895,-2.4202,-2.4202,-2.4202,-2.4202,-2.4202,-2.4202,-2.4202,-2.4202,-2.4202,-0.543,-0.5835,-0.6286,-0.6432,-0.6997,-0.7555,-0.758,-0.7484,-0.7456,-0.7581,-0.7642,-0.7728,-0.7955,-0.8308,0.0,0.0,0.0,0.0,0.0,0.0,0.0,0.0,0.0,0.0,0.0,0.0,0.0,0.0,0.0,0.0,0.0,0.0,0.0,0.0,0.0,0.0,-1.5837,-1.5837,-1.6201,-1.6819,-1.6819,-1.6819,-1.6819,-1.6819,-1.6819,-1.6819,-1.6819,-1.6819,-1.6875,-1.7759,-1.8092,-1.8209,-1.9057,-1.9394,-1.9442,-1.9917,-2.0269,-2.0532,-2.0726,-2.0864,-2.0926,-2.0928,-2.094,-2.0998,-2.0893,-2.0925,-2.0925,-2.0925,-2.0925,-2.0925,-2.0925,-2.0925,-2.0925,-2.0925,-2.0925,-2.0925,-2.0925,-2.0925,-2.0925,-2.0925,-2.0925,-2.0925,-2.0925,-2.0925,-2.0925,-2.0925,-2.0925,-2.0925,-2.0925,-2.0925,-2.0925,-2.0925,-2.0925,-2.0925,-2.0925,-2.0925,-2.1275,-2.2072,-2.2224,-2.2577,-2.3079,-2.3129,-2.3338,-2.3795,-2.3954,-2.3994,-2.3994,-2.4152,-2.4202,-2.4202,-2.4202,-2.4202,-0.5758,-0.612,-0.644,-0.6615,-0.6717,-0.6944,-0.7633,-0.7484,-0.7345,-0.7874,-0.8109,-0.8288,-0.8518,-0.9072,0.0,0.0,0.0,0.0,0.0,0.0,0.0,0.0,0.0,0.0,0.0,0.0,0.0,0.0,0.0,0.0,0.0,0.0,0.0,0.0,0.0,0.0,-1.3065,-1.3065,-1.4319,-1.6819,-1.6819,-1.6819,-1.6819,-1.6819,-1.6819,-1.6819,-1.6819,-1.6819,-1.6819,-1.6875,-1.6931,-1.6931,-1.6987,-1.7043,-1.7123,-1.7899,-1.8407,-1.881,-1.9538,-2.0118,-2.054,-2.056,-2.0699,-2.0905,-2.0881,-2.0925,-2.0925,-2.0925,-2.0925,-2.0925,-2.0925,-2.0925,-2.0925,-2.0925,-2.0925,-2.0925,-2.0925,-2.0925,-2.0925,-2.0925,-2.0925,-2.0925,-2.0925,-2.0925,-2.0925,-2.0925,-2.0925,-2.0925,-2.0925,-2.0925,-2.0925,-2.0925,-2.0925,-2.0925,-2.0925,-2.0925,-2.0917,-2.1019,-2.1471,-2.1979,-2.2526,-2.2577,-2.2577,-2.2627,-2.3129,-2.3379,-2.3379,-2.3945,-2.4202,-2.4202,-2.4202,-2.4202,-0.549,-0.5947,-0.6461,-0.6665,-0.6967,-0.7313,-0.7805,-0.7992,-0.8178,-0.8601,-0.8743,-0.8848,-0.9069,0.0,0.0,0.0,0.0,0.0,0.0,0.0,0.0,0.0,0.0,0.0,0.0,0.0,0.0,0.0,0.0,0.0,0.0,0.0,0.0,0.0,0.0,0.0,0.0,-1.2564,-1.3032,-1.4038,-1.4038,-1.4038,-1.4038,-1.4038,-1.4038,-1.4038,-1.4038,-1.4038,-1.4148,-1.4861,-1.5189,-1.5243,-1.5946,-1.6217,-1.6253,-1.658,-1.6756,-1.6904,-1.7226,-1.745,-1.7654,-1.7804,-1.8178,-1.8655,-1.9383,-1.9864,-2.0248,-2.0771,-2.0925,-2.0925,-2.0925,-2.0925,-2.0925,-2.0925,-2.0925,-2.0925,-2.0925,-2.0925,-2.0925,-2.0925,-2.0925,-2.0925,-2.0925,-2.0925,-2.0925,-2.0925,-2.0925,-2.0925,-2.0925,-2.0925,-2.0925,-2.0925,-2.0925,-2.0925,-2.0925,-2.0925,-2.0925,-2.0925,-2.107,-2.142,-2.1979,-2.1979,-2.2173,-2.2476,-2.2677,-2.2778,-2.2778,-2.3038,-2.3138,-2.3138,-2.3488,-2.3637,-0.5409,-0.5846,-0.6388,-0.6653,-0.7118,-0.7606,-0.8081,-0.8385,-0.8747,-0.9169,-0.9267,-0.9303,-0.9421,0.0,0.0,0.0,0.0,0.0,0.0,0.0,0.0,0.0,0.0,0.0,0.0,0.0,0.0,0.0,0.0,0.0,0.0,0.0,0.0,0.0,0.0,0.0,0.0,-1.2354,-1.2354,-1.2292,-1.2354,-1.2387,-1.2387,-1.2387,-1.2387,-1.2387,-1.2387,-1.2387,-1.2436,-1.3305,-1.363,-1.3732,-1.4471,-1.4793,-1.4846,-1.5227,-1.5387,-1.5381,-1.5755,-1.5962,-1.6062,-1.6215,-1.6592,-1.7127,-1.7903,-1.8753,-1.9502,-2.0071,-2.055,-2.0925,-2.0925,-2.0925,-2.0925,-2.0925,-2.0925,-2.0925,-2.0925,-2.0925,-2.0925,-2.0925,-2.0925,-2.0925,-2.0925,-2.0925,-2.0925,-2.0925,-2.0925,-2.0925,-2.0925,-2.0925,-2.0925,-2.0925,-2.0925,-2.0925,-2.0925,-2.0925,-2.0925,-2.0925,-2.0925,-2.107,-2.142,-2.1428,-2.1623,-2.1979,-2.2173,-2.2224,-2.2224,-2.2426,-2.2476,-2.2526,-2.3029,-2.3279,-0.5612,-0.5906,-0.6301,-0.6624,-0.7126,-0.7722,-0.8453,-0.8616,-0.8771,-0.9482,-0.9579,-0.9579,-0.9579,-0.9579,0.0,0.0,0.0,0.0,0.0,0.0,0.0,0.0,0.0,0.0,0.0,0.0,0.0,0.0,0.0,0.0,0.0,0.0,0.0,0.0,0.0,0.0,0.0,-1.2278,-1.2278,-1.2085,-1.2283,-1.2382,-1.2387,-1.2387,-1.2387,-1.2387,-1.2387,-1.2387,-1.2387,-1.2387,-1.2387,-1.2387,-1.2387,-1.2387,-1.2545,-1.3738,-1.4164,-1.4326,-1.5488,-1.6062,-1.6262,-1.6262,-1.6433,-1.6645,-1.6698,-1.764,-1.879,-1.879,-1.9805,-2.0873,-2.0865,-2.0925,-2.0925,-2.0925,-2.0925,-2.0925,-2.0925,-2.0925,-2.0925,-2.0925,-2.0925,-2.0925,-2.0925,-2.0925,-2.0925,-2.0925,-2.0925,-2.0925,-2.0925,-2.0925,-2.0925,-2.0925,-2.0925,-2.0925,-2.0925,-2.0925,-2.0925,-2.0925,-2.0925,-2.0925,-2.0925,-2.0925,-2.0925,-2.0925,-2.142,-2.1674,-2.1674,-2.2224,-2.2476,-2.2476,-2.3029,-2.3279,-0.5612,-0.6063,-0.6619,-0.6972,-0.7659,-0.8412,-0.8836,-0.8942,-0.9072,-0.9531,-0.9579,-0.9579,-0.9579,0.0,0.0,0.0,0.0,0.0,0.0,0.0,0.0,0.0,0.0,0.0,0.0,0.0,0.0,0.0,0.0,0.0,0.0,0.0,0.0,0.0,0.0,0.0,0.0,0.0,-1.1973,-1.1912,-1.1973,-1.2157,-1.2387,-1.2387,-1.2387,-1.2387,-1.2387,-1.2387,-1.2387,-1.2387,-1.2387,-1.2387,-1.2387,-1.2387,-1.2441,-1.2817,-1.2925,-1.2975,-1.3295,-1.3506,-1.3555,-1.3555,-1.3884,-1.4428,-1.5055,-1.579,-1.6685,-1.8112,-1.8961,-1.9591,-2.0403,-2.0771,-2.0925,-2.0925,-2.0925,-2.0925,-2.0925,-2.0925,-2.0925,-2.0925,-2.0925,-2.0925,-2.0925,-2.0925,-2.0925,-2.0925,-2.0925,-2.0925,-2.0925,-2.0925,-2.0925,-2.0925,-2.0925,-2.0925,-2.0925,-2.0925,-2.0925,-2.0925,-2.0925,-2.0925,-2.0925,-2.0925,-2.0925,-2.0925,-2.107,-2.1121,-2.1121,-2.1326,-2.1369,-2.142,-2.2325,-2.2728,-0.5872,-0.6355,-0.6915,-0.7415,-0.8057,-0.8743,-0.9194,-0.9307,-0.9368,-0.9534,-0.9579,-0.9579,-0.9579,0.0,0.0,0.0,0.0,0.0,0.0,0.0,0.0,0.0,0.0,0.0,0.0,0.0,0.0,0.0,0.0,0.0,0.0,0.0,0.0,0.0,0.0,0.0,0.0,0.0,0.0,-1.1494,-1.1625,-1.1845,-1.2137,-1.2137,-1.2137,-1.2137,-1.2137,-1.2184,-1.2264,-1.2264,-1.2311,-1.2387,-1.2387,-1.2387,-1.2387,-1.2387,-1.2387,-1.2387,-1.2387,-1.2387,-1.2387,-1.2387,-1.2659,-1.3039,-1.3565,-1.4358,-1.531,-1.6533,-1.743,-1.8112,-1.8819,-1.9131,-1.9495,-2.0652,-2.0925,-2.0925,-2.0925,-2.0925,-2.0925,-2.0925,-2.0925,-2.0925,-2.0925,-2.0925,-2.0925,-2.0925,-2.0925,-2.0925,-2.0925,-2.0925,-2.0925,-2.0925,-2.0925,-2.0925,-2.0925,-2.0925,-2.0925,-2.0925,-2.0925,-2.0925,-2.0925,-2.0925,-2.0925,-2.0925,-2.0925,-2.0925,-2.0925,-2.0925,-2.0925,-2.0925,-2.1776,-2.2173,-0.625,-0.6702,-0.7163,-0.7858,-0.8353,-0.8832,-0.9482,-0.9591,-0.9652,-0.9652,0.0,-0.9652,0.0,0.0,0.0,0.0,0.0,0.0,0.0,0.0,0.0,0.0,0.0,0.0,0.0,0.0,0.0,0.0,0.0,0.0,0.0,0.0,0.0,0.0,0.0,0.0,0.0,0.0,0.0,0.0,-1.1215,-1.1452,-1.1658,-1.1747,-1.1766,-1.1817,-1.1817,-1.1878,-1.2057,-1.2057,-1.2165,-1.233,-1.233,-1.233,-1.233,-1.233,-1.234,-1.2358,-1.2358,-1.2368,-1.2387,-1.2387,-1.2387,-1.2387,-1.2387,-1.3349,-1.4417,-1.4524,-1.5476,-1.6539,-1.6645,-1.6698,-1.7331,-1.9916,-2.0601,-2.0763,-2.0865,-2.0925,-2.0925,-2.0925,-2.0925,-2.0925,-2.0925,-2.0925,-2.0925,-2.0925,-2.0925,-2.0925,-2.0925,-2.0925,-2.0925,-2.0925,-2.0925,-2.0925,-2.0925,-2.0925,-2.0925,-2.0925,-2.0925,-2.0925,-2.0925,-2.0925,-2.0925,-2.0925,-2.0925,-2.0925,-2.0925,-2.0925,-2.0925,-2.0917,-2.1471,-2.1725,-0.6126,-0.6604,-0.7196,-0.8016,-0.882,-0.9437,-0.9546,-0.9734,-0.9827,-0.9827,-0.9827,0.0,0.0,0.0,0.0,0.0,0.0,0.0,0.0,0.0,0.0,0.0,0.0,0.0,0.0,0.0,0.0,0.0,0.0,0.0,0.0,0.0,0.0,0.0,0.0,0.0,-1.0068,-1.0407,-1.0524,0.0,-1.0613,-1.0635,-1.0694,-1.1257,-1.161,-1.1817,-1.1817,-1.1846,-1.1836,-1.1836,-1.1912,-1.195,-1.195,-1.195,-1.195,-1.195,-1.2006,-1.2151,-1.2151,-1.2255,-1.2387,-1.2387,-1.2387,-1.2387,-1.2387,-1.2599,-1.3083,-1.4002,-1.4637,-1.5269,-1.6162,-1.6539,-1.6857,-1.7437,-1.8433,-1.9539,-2.0652,-2.0925,-2.0925,-2.0925,-2.0925,-2.0925,-2.0925,-2.0925,-2.0925,-2.0925,-2.0925,-2.0925,-2.0925,-2.0925,-2.0925,-2.0925,-2.0925,-2.0925,-2.0925,-2.0925,-2.0925,-2.0925,-2.0925,-2.0925,-2.0925,-2.0925,-2.0925,-2.0925,-2.0925,-2.0925,-2.0925,-2.0925,-2.0925,-2.0917,-2.1471,-2.1725,-0.6033,-0.6637,-0.7342,-0.841,-0.9157,-0.9579,-0.9579,-0.9762,-0.9884,-0.9884,-0.9957,0.0,0.0,0.0,0.0,0.0,0.0,0.0,0.0,0.0,0.0,0.0,0.0,0.0,0.0,0.0,0.0,0.0,0.0,0.0,0.0,0.0,0.0,0.0,0.0,0.0,-0.9826,-1.0068,-1.0216,-1.0216,-1.0216,-1.0216,-1.022,-1.082,-1.1166,-1.1318,-1.1469,-1.1576,-1.1676,-1.1676,-1.1728,-1.1817,-1.1817,-1.1817,-1.1817,-1.1817,-1.1888,-1.1987,-1.1987,-1.2054,-1.2104,-1.2208,-1.217,-1.2123,-1.2325,-1.2245,-1.2269,-1.3011,-1.3304,-1.356,-1.4135,-1.4484,-1.4835,-1.553,-1.6745,-1.8014,-1.8753,-1.8916,-1.8968,-1.9228,-1.9591,-1.9968,-2.03,-2.066,-2.0925,-2.0925,-2.0925,-2.0925,-2.0925,-2.0925,-2.0925,-2.0925,-2.0925,-2.0925,-2.0925,-2.0925,-2.0925,-2.0925,-2.0925,-2.0925,-2.0925,-2.0925,-2.0925,-2.0925,-2.0925,-2.0925,-2.0925,-2.0925,-2.0925,-2.0925,-2.1173,-2.1326,-0.5861,-0.6627,-0.7549,-0.8714,-0.9295,-0.9579,-0.9579,-0.9738,-0.9884,-0.9884,0.0,0.0,0.0,0.0,0.0,0.0,0.0,0.0,0.0,0.0,0.0,0.0,0.0,0.0,0.0,0.0,0.0,0.0,0.0,0.0,0.0,0.0,0.0,0.0,0.0,-0.9579,-0.9579,-0.9821,-0.992,-0.992,-0.992,-0.992,-0.9969,-1.0462,-1.0708,-1.0752,-1.0998,-1.1248,-1.1363,-1.1413,-1.1562,-1.1709,-1.1709,-1.1709,-1.1709,-1.1709,-1.1732,-1.1765,-1.1765,-1.1789,-1.1846,-1.1973,-1.1964,-1.1883,-1.2175,-1.2038,-1.1855,-1.1982,-1.2034,-1.2034,-1.2034,-1.2156,-1.2607,-1.3869,-1.5045,-1.606,-1.658,-1.6698,-1.6804,-1.7272,-1.8007,-1.8797,-1.945,-2.0189,-2.0719,-2.0873,-2.0925,-2.0925,-2.0925,-2.0925,-2.0925,-2.0925,-2.0925,-2.0925,-2.0925,-2.0925,-2.0925,-2.0925,-2.0925,-2.0925,-2.0925,-2.0925,-2.0925,-2.0925,-2.0925,-2.0925,-2.0925,-2.0925,-2.0925,-2.0925,-2.0925,-2.0925,-0.5321,-0.6432,-0.7638,-0.8482,-0.9065,-0.9437,-0.9437,0.0,-0.9884,0.0,0.0,0.0,0.0,0.0,0.0,0.0,0.0,0.0,0.0,0.0,0.0,0.0,0.0,0.0,0.0,0.0,0.0,0.0,0.0,0.0,0.0,0.0,-0.9579,-0.9579,-0.9579,0.0,-0.9579,-0.9628,-0.9677,-0.9677,-0.9677,-0.9677,-0.9677,-0.9969,-1.0216,-1.0462,-1.0757,-1.0869,-1.0896,-1.1142,-1.1255,-1.1279,-1.1279,-1.1279,-1.1279,-1.1279,-1.1397,-1.1557,-1.1557,-1.1671,-1.1822,-1.185,-1.1841,-1.1827,-1.1883,-1.186,-1.1822,-1.185,-1.186,-1.186,-1.186,-1.1879,-1.1945,-1.2341,-1.2597,-1.3434,-1.6119,-1.6698,-1.6698,-1.6804,-1.7272,-1.7962,-1.8797,-1.945,-2.0094,-2.0814,-2.0925,-2.0925,-2.0925,-2.0925,-2.0925,-2.0925,-2.0925,-2.0925,-2.0925,-2.0925,-2.0925,-2.0925,-2.0925,-2.0925,-2.0925,-2.0925,-2.0925,-2.0925,-2.0925,-2.0925,-2.0925,-2.0925,-2.0925,-2.0925,-2.0925,-2.0925,-0.5592,-0.651,-0.742,-0.8249,-0.8735,-0.9084,-0.919,-0.9332,0.0,0.0,0.0,0.0,0.0,0.0,0.0,0.0,0.0,0.0,0.0,0.0,0.0,0.0,0.0,0.0,0.0,0.0,0.0,0.0,0.0,0.0,0.0,-0.9579,-0.9579,-0.9579,-0.9579,0.0,-0.9579,-0.9579,-0.9579,-0.9579,-0.9579,-0.9579,-0.9628,-0.9727,-0.992,-1.0167,-1.0462,-1.056,-1.0609,-1.085,-1.1002,-1.0998,-1.1145,-1.1194,-1.1194,-1.1194,-1.1255,-1.1335,-1.1335,-1.1392,-1.1487,-1.1609,-1.1567,-1.151,-1.1746,-1.1652,-1.1496,-1.1614,-1.1652,-1.1652,-1.1652,-1.1732,-1.1841,-1.1883,-1.1907,-1.2292,-1.3676,-1.4113,-1.4519,-1.537,-1.5949,-1.6586,-1.7483,-1.7864,-1.8237,-1.8909,-1.8753,-1.8968,-2.0086,-1.9916,-2.0012,-2.0814,-2.0925,-2.0925,-2.0925,-2.0925,-2.0925,-2.0925,-2.0925,-2.0925,-2.0925,-2.0925,-2.0829,-2.0631,-2.0821,-2.0925,-2.0925,-2.0925,-2.0925,-2.0925,-2.0925,-2.0925,-0.5472,-0.6073,-0.6635,-0.7627,-0.8056,-0.8372,0.0,0.0,0.0,0.0,0.0,0.0,0.0,0.0,0.0,0.0,0.0,0.0,0.0,0.0,0.0,0.0,0.0,0.0,0.0,0.0,0.0,0.0,0.0,0.0,-0.9579,-0.9579,-0.9579,-0.9579,-0.9579,-0.9579,-0.9579,-0.9579,-0.9579,-0.9579,-0.9579,-0.9579,-0.9579,-0.9579,-0.9727,-0.992,-1.0167,-1.0314,-1.0314,-1.0605,-1.0708,-1.0703,-1.0998,-1.11,-1.1096,-1.1145,-1.1194,-1.1194,-1.1194,-1.1194,-1.1222,-1.1383,-1.1326,-1.125,-1.1567,-1.1439,-1.1231,-1.1392,-1.1435,-1.1435,-1.1435,-1.1548,-1.1671,-1.1728,-1.1742,-1.1756,-1.1808,-1.2063,-1.2544,-1.3651,-1.4386,-1.504,-1.5866,-1.6181,-1.6567,-1.7121,-1.6911,-1.7233,-1.8722,-1.8544,-1.8693,-1.9702,-1.9813,-1.9968,-2.0336,-2.0388,-2.0498,-2.0873,-2.0925,-2.0925,-2.0925,-2.0837,-2.0662,-2.04,-2.0567,-2.0655,-2.0655,-2.0655,-2.0702,-2.079,-2.079,-2.0837,-0.4334,-0.4643,-0.5148,-0.6439,-0.6747,-0.7004,0.0,0.0,0.0,0.0,0.0,0.0,0.0,0.0,0.0,0.0,0.0,0.0,0.0,0.0,0.0,0.0,0.0,0.0,0.0,0.0,0.0,0.0,0.0,0.0,-0.9579,-0.9579,-0.9579,-0.9579,-0.9579,-0.9579,-0.9579,-0.9579,-0.9579,-0.9579,-0.9579,-0.9579,-0.9579,-0.9579,-0.9628,-0.9628,-0.992,-1.0019,-1.0019,-1.0314,-1.0408,-1.0462,-1.0703,-1.0801,-1.0855,-1.1096,-1.1194,-1.1194,-1.1194,-1.1194,-1.1198,-1.1208,-1.1203,-1.1198,-1.1222,-1.1212,-1.1198,-1.1208,-1.1212,-1.1212,-1.1212,-1.1222,-1.1279,-1.1487,-1.1534,-1.1586,-1.1779,-1.1836,-1.185,-1.1954,-1.2583,-1.3331,-1.3918,-1.4833,-1.57,-1.6381,-1.6572,-1.6751,-1.6857,-1.6804,-1.6857,-1.6909,-1.6909,-1.7437,-1.8797,-1.8894,-1.948,-2.0814,-2.0925,-2.0925,-2.0925,-2.0599,-2.0408,-2.0392,-2.0132,-1.9965,-1.9965,-1.9965,-2.014,-2.0416,-2.0416,-2.0599,-0.3646,-0.3895,-0.4259,-0.5082,-0.5827,-0.647,-0.7026,0.0,0.0,0.0,0.0,0.0,0.0,0.0,0.0,0.0,0.0,0.0,0.0,0.0,0.0,0.0,0.0,0.0,0.0,0.0,0.0,0.0,0.0,0.0,-0.9287,-0.9287,-0.9287,-0.9287,-0.9397,-0.9506,-0.9575,-0.9579,-0.9579,-0.9579,-0.9579,-0.9579,-0.9579,-0.9579,-0.9579,-0.9628,-0.9723,-0.9723,-0.9776,-1.0019,-1.0117,-1.0167,-1.0462,-1.0556,-1.056,-1.085,-1.0949,-1.0949,-1.1145,-1.1194,-1.1194,-1.1194,-1.1194,-1.1194,-1.1194,-1.1194,-1.1194,-1.1194,-1.1194,-1.1194,-1.1194,-1.1194,-1.1217,-1.1293,-1.1312,-1.1331,-1.1401,-1.1628,-1.1817,-1.1817,-1.203,-1.2318,-1.2488,-1.2863,-1.3352,-1.4096,-1.3973,-1.4241,-1.5666,-1.5583,-1.5689,-1.6592,-1.6698,-1.6909,-1.743,-1.743,-1.7647,-1.8171,-1.9065,-1.945,-1.9249,-1.9996,-2.0186,-1.9749,-1.9662,-1.9702,-1.9917,-1.9917,-1.998,-2.0059,-2.0289,-2.0456,-0.2903,-0.3079,-0.3368,0.0,-0.4647,-0.5256,-0.6064,0.0,0.0,0.0,0.0,0.0,0.0,0.0,0.0,0.0,0.0,0.0,0.0,0.0,0.0,0.0,0.0,0.0,0.0,0.0,0.0,0.0,0.0,0.0,-0.9096,-0.9096,-0.9096,-0.9096,-0.921,-0.9328,-0.9449,-0.9506,-0.9535,-0.9539,-0.96,-0.9579,-0.9579,-0.9579,-0.9579,-0.9579,-0.9579,-0.9579,-0.9628,-0.9772,-0.9871,-0.9875,-1.0167,-1.0265,-1.0314,-1.056,-1.0654,-1.0703,-1.0949,-1.1047,-1.1096,-1.1145,-1.1194,-1.1194,-1.1194,-1.1194,-1.1194,-1.1194,-1.1194,-1.1194,-1.1194,-1.1194,-1.1194,-1.1194,-1.1194,-1.1194,-1.1194,-1.1411,-1.1609,-1.1609,-1.1666,-1.1694,-1.1619,-1.1723,-1.1944,-1.2432,-1.2255,-1.2602,-1.4114,-1.4046,-1.4202,-1.5156,-1.5263,-1.5476,-1.5956,-1.5923,-1.6079,-1.6552,-1.7398,-1.7777,-1.7583,-1.8332,-1.8569,-1.8097,-1.8326,-1.8617,-1.8872,-1.9319,-1.9582,-1.975,-1.994,-2.0178,0.0,0.0,0.0,0.0,0.0,0.0,0.0,0.0,0.0,0.0,0.0,0.0,0.0,0.0,0.0,0.0,0.0,0.0,0.0,0.0,0.0,0.0,0.0,0.0,0.0,0.0,0.0,0.0,0.0,-0.9084,-0.9084,-0.9084,-0.9084,-0.9088,-0.9088,-0.9092,-0.9096,-0.931,-0.9396,-0.9396,-0.9527,-0.9567,-0.9571,-0.9571,-0.9575,-0.9579,-0.9579,-0.9579,-0.9579,-0.9579,-0.9579,-0.9628,-0.9871,-0.9969,-1.0019,-1.0314,-1.0413,-1.0413,-1.0708,-1.0801,-1.085,-1.1096,-1.1194,-1.1194,-1.1194,-1.1194,-1.1194,-1.1194,-1.1194,-1.1194,-1.1194,-1.1194,-1.1194,-1.1194,-1.1194,-1.1194,-1.1194,-1.1194,-1.1194,-1.1194,-1.1364,-1.1439,-1.1231,-1.1529,-1.1737,-1.1543,-1.1808,-1.2071,-1.2076,-1.2245,-1.2368,-1.2368,-1.2368,-1.2955,-1.4395,-1.4328,-1.481,-1.6201,-1.6113,-1.6066,-1.6053,-1.5733,-1.5579,-1.5573,-1.6266,-1.6741,-1.6936,-1.8164,-1.901,-1.936,-1.9376,-1.9749,-0.1602,0.0,0.0,0.0,0.0,0.0,0.0,0.0,0.0,0.0,0.0,0.0,0.0,0.0,0.0,0.0,0.0,0.0,0.0,0.0,0.0,0.0,0.0,0.0,0.0,0.0,0.0,0.0,0.0,-0.8759,-0.8759,-0.8759,-0.8771,-0.8893,-0.8897,-0.8962,-0.9096,-0.9145,-0.9169,-0.9169,-0.9222,-0.9311,-0.9477,-0.9477,-0.9502,-0.9579,-0.9579,-0.9579,-0.9579,-0.9579,-0.9579,-0.9628,-0.9677,-0.9727,-0.9723,-1.0019,-1.0117,-1.0167,-1.0413,-1.0507,-1.0556,-1.0801,-1.09,-1.0949,-1.1145,-1.1194,-1.1194,-1.1194,-1.1194,-1.1194,-1.1194,-1.1194,-1.1194,-1.1194,-1.1194,-1.1194,-1.1194,-1.1194,-1.1194,-1.1194,-1.1241,-1.1264,-1.1203,-1.1288,-1.1401,-1.1505,-1.1614,-1.1742,-1.1836,-1.1954,-1.1987,-1.1987,-1.1987,-1.2145,-1.2558,-1.2499,-1.2667,-1.3075,-1.3981,-1.4767,-1.527,-1.6175,-1.6903,-1.7356,-1.7604,-1.7699,-1.7746,-1.8326,-1.8706,-1.8994,-1.9495,-1.9971,-0.1502,-0.1512,-0.1548,0.0,0.0,0.0,0.0,0.0,0.0,0.0,0.0,0.0,0.0,0.0,0.0,0.0,0.0,0.0,0.0,0.0,0.0,0.0,0.0,0.0,0.0,0.0,0.0,0.0,-0.8612,-0.8612,-0.8612,-0.8612,-0.8657,-0.871,-0.8714,-0.8767,-0.8877,-0.8946,-0.8982,-0.8982,-0.906,-0.9153,-0.9294,-0.9294,-0.9344,-0.9514,-0.9514,-0.9555,-0.9579,-0.9579,-0.9579,-0.9579,-0.9579,-0.9579,-0.9628,-0.9776,-0.9821,-0.9871,-1.0117,-1.0216,-1.0265,-1.0556,-1.0605,-1.0654,-1.0949,-1.1047,-1.1051,-1.1145,-1.1194,-1.1194,-1.1194,-1.1194,-1.1194,-1.1194,-1.1194,-1.1194,-1.1194,-1.1194,-1.1194,-1.1194,-1.1194,-1.1194,-1.1194,-1.1194,-1.1236,-1.1364,-1.1463,-1.1562,-1.1676,-1.1765,-1.1817,-1.1817,-1.1817,-1.1817,-1.1817,-1.1742,-1.1694,-1.1694,-1.2355,-1.2982,-1.3379,-1.4199,-1.4805,-1.5216,-1.5643,-1.6318,-1.7326,-1.8001,-1.8473,-1.8713,-1.9352,-1.9893,-0.1609,-0.1604,-0.1679,-0.1816,0.0,0.0,-0.2566,-0.2799,0.0,0.0,0.0,0.0,0.0,0.0,0.0,0.0,0.0,0.0,0.0,0.0,0.0,0.0,0.0,0.0,0.0,0.0,0.0,-0.858,-0.8563,-0.8551,-0.8551,-0.8436,-0.8448,-0.8492,-0.8468,-0.8476,-0.852,-0.867,-0.8792,-0.8796,-0.8958,-0.9047,-0.9068,-0.9068,-0.9161,-0.9375,-0.9396,-0.9445,-0.96,-0.9571,-0.9579,-0.9579,-0.9579,-0.9579,-0.9579,-0.9579,-0.9579,-0.9628,-0.9871,-0.9969,-1.0019,-1.0265,-1.0364,-1.0413,-1.0654,-1.0752,-1.0806,-1.1096,-1.1198,-1.1194,-1.1194,-1.1194,-1.1194,-1.1194,-1.1194,-1.1194,-1.1194,-1.1194,-1.1194,-1.1194,-1.1194,-1.1194,-1.1194,-1.1194,-1.1194,-1.1194,-1.1359,-1.1482,-1.1482,-1.1638,-1.1746,-1.1746,-1.1746,-1.1746,-1.1746,-1.1586,-1.1482,-1.1482,-1.1302,-1.1243,-1.134,-1.1385,-1.1438,-1.1531,-1.2441,-1.3974,-1.6143,-1.7466,-1.8234,-1.8489,-1.902,-1.9479,-0.1657,-0.1721,-0.1804,-0.1695,0.0,0.0,0.0,-0.1877,0.0,0.0,0.0,0.0,0.0,0.0,0.0,0.0,0.0,0.0,0.0,0.0,0.0,0.0,0.0,0.0,0.0,0.0,-0.7506,-0.829,-0.8207,-0.8122,-0.8122,-0.7573,-0.739,-0.778,-0.7519,-0.7588,-0.794,-0.842,-0.8661,-0.8617,-0.8698,-0.8743,-0.8873,-0.8873,-0.8974,-0.9157,-0.9343,-0.9424,-0.9469,-0.9567,-0.9579,-0.9579,-0.9579,-0.9579,-0.9579,-0.9579,-0.9579,-0.9628,-0.9677,-0.9677,-0.9727,-0.9969,-1.0068,-1.0117,-1.0413,-1.0462,-1.0511,-1.0801,-1.1047,-1.1194,-1.1194,-1.1194,-1.1194,-1.1194,-1.1194,-1.1194,-1.1194,-1.1194,-1.1194,-1.1194,-1.1194,-1.1194,-1.1194,-1.1194,-1.1194,-1.1194,-1.1231,-1.1255,-1.1255,-1.1293,-1.1316,-1.1316,-1.1316,-1.1316,-1.1316,-1.1279,-1.1255,-1.1255,-1.1217,-1.158,-1.2393,-1.2393,-1.2829,-1.3692,-1.3884,-1.4603,-1.5893,-1.7372,-1.8133,-1.8195,-1.858,-1.8772,-0.1763,-0.1771,-0.1832,-0.1801,0.0,0.0,0.0,0.0,0.0,0.0,0.0,0.0,0.0,0.0,0.0,0.0,0.0,0.0,0.0,0.0,0.0,0.0,0.0,0.0,0.0,0.0,-0.6723,-0.6874,-0.7228,-0.7308,-0.7102,-0.7135,-0.7182,-0.7189,-0.6705,-0.6645,-0.6984,-0.698,-0.7021,-0.7143,-0.7143,-0.718,-0.7248,-0.7248,-0.7374,-0.7567,-0.8156,-0.8475,-0.8613,-0.922,-0.949,-0.9498,-0.9592,-0.9579,-0.9579,-0.9579,-0.9579,-0.9579,-0.9579,-0.9579,-0.9628,-0.9776,-0.9826,-0.9875,-1.0117,-1.0314,-1.0413,-1.056,-1.0801,-1.0998,-1.0998,-1.11,-1.1194,-1.1194,-1.1194,-1.1194,-1.1194,-1.1194,-1.1194,-1.1194,-1.1194,-1.1194,-1.1194,-1.1194,-1.1194,-1.1194,-1.1194,-1.1194,-1.1194,-1.1194,-1.1194,-1.1194,-1.1194,-1.1194,-1.1194,-1.1194,-1.1194,-1.1194,-1.1194,-1.1433,-1.1917,-1.1965,-1.2204,-1.2732,-1.3258,-1.374,-1.4262,-1.5555,-1.6796,-1.7908,-1.8215,-1.843,0.0,0.0,0.0,0.0,0.0,-0.1843,0.0,0.0,0.0,0.0,0.0,0.0,0.0,0.0,0.0,0.0,0.0,0.0,0.0,0.0,0.0,0.0,0.0,0.0,0.0,0.0,-0.6123,-0.5618,-0.6163,-0.6374,-0.5987,-0.6406,-0.6562,-0.6325,-0.5676,-0.5524,-0.5798,-0.5481,-0.541,-0.564,-0.5664,-0.5719,-0.5719,-0.5719,-0.5771,-0.5994,-0.6794,-0.724,-0.7456,-0.8416,-0.8774,-0.8841,-0.9396,-0.9579,-0.9579,-0.9579,-0.9579,-0.9579,-0.9579,-0.9579,-0.9579,-0.9579,-0.9579,-0.9628,-0.9875,-1.0117,-1.0314,-1.0314,-1.0511,-1.0703,-1.0703,-1.09,-1.1051,-1.1096,-1.1096,-1.1149,-1.1194,-1.1194,-1.1194,-1.1194,-1.1194,-1.1194,-1.1194,-1.1194,-1.1194,-1.1194,-1.1194,-1.1194,-1.1194,-1.1194,-1.1194,-1.1194,-1.1194,-1.1194,-1.1194,-1.1194,-1.1194,-1.1194,-1.1194,-1.1194,-1.1194,-1.1194,-1.1194,-1.1194,-1.2009,-1.249,-1.2678,-1.3547,-1.5032,-1.7052,-1.7279,-1.7512,0.0,0.0,0.0,0.0,-0.212,0.0,0.0,0.0,0.0,0.0,0.0,0.0,0.0,0.0,0.0,0.0,0.0,0.0,0.0,0.0,0.0,0.0,0.0,0.0,0.0,0.0,0.0,-0.5855,-0.5665,-0.5414,-0.506,-0.4328,-0.4104,-0.4475,-0.402,-0.398,-0.4409,-0.5009,-0.5325,-0.534,-0.5579,-0.5719,-0.5719,-0.5719,-0.5727,-0.5746,-0.6028,-0.6173,-0.6196,-0.6464,-0.6567,-0.678,-0.8803,-0.9579,-0.9579,-0.9579,-0.9579,-0.9579,-0.9579,-0.9579,-0.9579,-0.9579,-0.9579,-0.9628,-0.9628,-0.9821,-1.0068,-1.0068,-1.0216,-1.0462,-1.0462,-1.0462,-1.0556,-1.0801,-1.0855,-1.09,-1.1145,-1.1194,-1.1194,-1.1194,-1.1194,-1.1194,-1.1194,-1.1194,-1.1194,-1.1194,-1.1194,-1.1194,-1.1194,-1.1194,-1.1194,-1.1194,-1.1194,-1.1194,-1.1194,-1.1194,-1.1194,-1.1194,-1.1194,-1.1194,-1.1194,-1.1194,-1.1194,-1.1194,-1.1292,-1.1819,-1.2678,-1.2823,-1.3499,-1.4698,-1.4698,-1.4758,0.0,0.0,0.0,0.0,0.0,0.0,0.0,0.0,-0.182,0.0,0.0,0.0,0.0,0.0,0.0,0.0,0.0,0.0,0.0,0.0,0.0,0.0,0.0,0.0,0.0,0.0,0.0,0.0,0.0,-0.4117,-0.3829,-0.3779,-0.3756,-0.3734,-0.309,-0.2922,-0.3249,-0.324,-0.3382,-0.3685,-0.3807,-0.3938,-0.4076,-0.4076,-0.4076,-0.4123,-0.4741,-0.5027,-0.5079,-0.578,-0.6062,-0.6168,-0.7206,-0.8014,-0.8691,-0.9337,-0.9579,-0.9579,-0.9579,-0.9579,-0.9579,-0.9579,-0.9579,-0.9579,-0.9579,-0.9677,-0.9776,-0.9776,-0.9969,-1.0167,-1.0167,-1.0265,-1.0413,-1.0556,-1.056,-1.0659,-1.09,-1.0949,-1.0998,-1.1145,-1.1194,-1.1194,-1.1194,-1.1194,-1.1194,-1.1194,-1.1194,-1.1194,-1.1194,-1.1194,-1.1194,-1.1194,-1.1194,-1.1194,-1.1194,-1.1194,-1.1194,-1.1194,-1.1194,-1.1194,-1.1194,-1.1194,-1.1194,-1.1194,-1.1194,-1.1385,-1.1819,-1.1819,-1.2063,-1.2543,-1.374,-1.4316,-0.2216,0.0,0.0,0.0,0.0,0.0,0.0,0.0,0.0,0.0,0.0,0.0,0.0,0.0,0.0,0.0,0.0,0.0,0.0,0.0,0.0,0.0,0.0,0.0,0.0,0.0,0.0,0.0,0.0,0.0,-0.2807,-0.316,-0.3251,-0.2985,-0.2306,-0.2057,-0.2255,-0.1866,-0.1903,-0.2264,-0.2406,-0.2571,-0.2804,-0.2849,-0.2903,-0.2918,-0.3631,-0.3898,-0.3993,-0.4818,-0.5163,-0.5175,-0.5606,-0.6264,-0.7124,-0.829,-0.8689,-0.8772,-0.9076,-0.9377,-0.9579,-0.9579,-0.9579,-0.9579,-0.9579,-0.9579,-0.9579,-0.9579,-0.9723,-0.9871,-0.9871,-1.0019,-1.0216,-1.0265,-1.0314,-1.0364,-1.0605,-1.0708,-1.0757,-1.1047,-1.1096,-1.1096,-1.1194,-1.1194,-1.1194,-1.1194,-1.1194,-1.1194,-1.1194,-1.1194,-1.1194,-1.1194,-1.1194,-1.1194,-1.1194,-1.1194,-1.1194,-1.1194,-1.1194,-1.1194,-1.1194,-1.1194,-1.1194,-1.1194,-1.1194,-1.1194,-1.1194,-1.1194,-1.1194,-1.1243,-1.2732,-1.3451,0.0,0.0,0.0,-0.2211,0.0,0.0,0.0,0.0,-0.1965,0.0,0.0,0.0,0.0,0.0,-0.1684,-0.16,0.0,0.0,0.0,0.0,0.0,0.0,0.0,0.0,0.0,0.0,0.0,0.0,0.0,0.0,-0.2248,-0.1952,-0.181,-0.1857,-0.1513,-0.1336,-0.1338,-0.157,-0.1711,-0.1714,-0.2168,-0.2428,-0.2524,-0.2699,-0.2818,-0.292,-0.292,-0.2963,-0.2964,-0.2966,-0.3011,-0.3106,-0.4217,-0.4662,-0.4827,-0.5981,-0.6429,-0.6672,-0.7673,-0.8726,-0.9579,-0.9579,-0.9579,-0.9579,-0.9579,-0.9579,-0.9579,-0.9579,-0.9628,-0.9628,-0.9628,-0.9628,-0.9677,-0.9969,-1.0019,-1.0068,-1.0364,-1.0413,-1.0511,-1.0752,-1.0806,-1.0904,-1.1145,-1.1194,-1.1194,-1.1194,-1.1194,-1.1194,-1.1194,-1.1194,-1.1194,-1.1194,-1.1194,-1.1194,-1.1194,-1.1194,-1.1194,-1.1194,-1.1194,-1.1194,-1.1194,-1.1194,-1.1194,-1.1194,-1.1194,-1.1194,-1.1194,-1.1194,-1.1194,-1.1194,-1.1292,-1.1292,0.0,0.0,-0.2011,-0.2061,0.0,0.0,0.0,0.0,0.0,0.0,0.0,0.0,0.0,0.0,-0.1699,-0.1679,-0.1583,-0.1517,0.0,0.0,0.0,0.0,0.0,0.0,0.0,0.0,0.0,0.0,0.0,0.0,0.0,-0.1831,-0.1674,-0.1778,-0.1413,-0.1237,-0.1296,-0.1386,-0.1523,-0.171,-0.1846,-0.2041,-0.2255,-0.2504,-0.2619,-0.2639,-0.2812,-0.292,-0.292,-0.292,-0.292,-0.2921,-0.3345,-0.3516,-0.3757,-0.5638,-0.6328,-0.6372,-0.6793,-0.717,-0.7621,-0.8322,-0.8524,-0.8676,-0.9377,-0.9579,-0.9579,-0.9579,-0.9579,-0.9579,-0.9579,-0.9579,-0.9628,-0.9727,-0.9727,-0.9826,-1.0068,-1.0117,-1.0216,-1.0462,-1.056,-1.056,-1.0659,-1.0654,-1.0801,-1.1145,-1.1194,-1.1194,-1.1194,-1.1194,-1.1194,-1.1194,-1.1194,-1.1194,-1.1194,-1.1194,-1.1194,-1.1194,-1.1194,-1.1194,-1.1194,-1.1194,-1.1194,-1.1194,-1.1194,-1.1194,-1.1194,-1.1194,-1.1194,-1.1194,-1.1194,-1.1194,-0.0745,-0.1099,0.0,0.0,-0.1599,0.0,-0.1884,0.0,0.0,0.0,0.0,0.0,0.0,0.0,-0.1711,-0.163,-0.1585,-0.1518,0.0,0.0,0.0,0.0,0.0,0.0,0.0,0.0,-0.1669,-0.1733,0.0,0.0,0.0,0.0,-0.161,-0.173,-0.1389,-0.1226,-0.1296,-0.1296,-0.1386,-0.1568,-0.1649,-0.1749,-0.1955,-0.2194,-0.2355,-0.2349,-0.2559,-0.2675,-0.2739,-0.2739,-0.2829,-0.2875,-0.2784,-0.2851,-0.3122,-0.4594,-0.5365,-0.5735,-0.5792,-0.6077,-0.6523,-0.7223,-0.7673,-0.812,-0.8825,-0.9278,-0.9579,-0.9579,-0.9579,-0.9579,-0.9579,-0.9579,-0.9579,-0.9579,-0.9579,-0.9628,-0.9821,-0.9875,-0.9924,-1.0216,-1.0265,-1.0314,-1.0359,-1.0413,-1.0556,-1.0998,-1.1051,-1.1096,-1.1194,-1.1194,-1.1194,-1.1194,-1.1194,-1.1194,-1.1194,-1.1194,-1.1194,-1.1194,-1.1194,-1.1194,-1.1194,-1.1194,-1.1194,-1.1194,-1.1194,-1.1194,-1.1194,-1.1194,-1.1194,-1.1194,-1.1194,-1.1194]}]]